[[{"header":{"parameterUnit":"m.s-1","parameterCategory":1,"la1":30.6,"la2":29.2853,"lo1":-89.7004,"lo2":-87.6739,"dy":0.0162,"dx":0.0183,"nx":112,"ny":82,"refTime":"2024-03-26T12:00:00:Z","depth":0,"parameterNumber":2,"parameterNumberName":"U-component_of_WINDS"},"data":[0.0,0.0,0.0,0.0,0.0,0.0,0.0,0.0,0.0,0.0,0.0,0.0,0.0,0.0,0.0,0.0,0.0,0.0,0.0,0.0,0.0,0.0,0.0,0.0,0.0,0.0,0.0,0.0,0.0,0.0,0.0,0.0,0.0,0.0,0.0,0.0,0.0,0.0,0.0,0.0,0.0,0.0,0.0,0.0,0.0,0.0,0.0,0.0,0.0,0.0,0.0,0.0,0.0,0.0,0.0,0.0,0.0,0.0,0.0,0.0,0.0,0.0,0.0,0.0,0.0,0.0,0.0,0.0,0.0,0.0,0.0,0.0,0.0,0.0,0.0,0.0,0.0,0.0,0.0,0.0,0.0,0.0,0.0,0.0,0.0,0.0,0.0,0.0,0.0,0.0,0.0,2.6552,2.8832,3.0208,3.0208,3.0089,2.8595,2.5317,0.0,0.0,0.0,0.0,0.0,0.0,0.0,0.0,0.0,0.0,0.0,0.0,0.0,0.0,0.0,0.0,0.0,0.0,0.0,0.0,0.0,0.0,0.0,0.0,0.0,0.0,0.0,0.0,0.0,0.0,0.0,0.0,0.0,0.0,0.0,0.0,0.0,0.0,0.0,0.0,0.0,0.0,0.0,0.0,0.0,0.0,0.0,0.0,0.0,0.0,0.0,0.0,0.0,0.0,0.0,0.0,0.0,0.0,0.0,0.0,0.0,0.0,0.0,0.0,0.0,0.0,0.0,0.0,0.0,0.0,0.0,0.0,0.0,0.0,0.0,0.0,0.0,0.0,0.0,0.0,0.0,0.0,0.0,0.0,0.0,0.0,0.0,0.0,0.0,0.0,0.0,0.0,0.0,0.0,0.0,0.0,0.0,0.0,0.0,0.0,0.0,0.0,0.0,0.0,2.3454,2.8032,2.9535,3.0208,3.0208,2.953,2.7954,2.5276,0.0,0.0,0.0,0.0,0.0,0.0,0.0,0.0,0.0,0.0,0.0,0.0,0.0,0.0,0.0,0.0,0.0,0.0,0.0,0.0,0.0,0.0,0.0,0.0,0.0,0.0,0.0,0.0,0.0,0.0,0.0,0.0,0.0,0.0,0.0,0.0,0.0,0.0,0.0,0.0,0.0,0.0,0.0,0.0,0.0,0.0,0.0,0.0,0.0,0.0,0.0,0.0,0.0,0.0,0.0,0.0,0.0,0.0,0.0,0.0,0.0,0.0,0.0,0.0,0.0,0.0,0.0,0.0,0.0,0.0,0.0,0.0,0.0,0.0,0.0,0.0,0.0,0.0,0.0,0.0,0.0,0.0,0.0,0.0,0.0,0.0,0.0,0.0,0.0,0.0,0.0,0.0,0.0,0.0,0.0,0.0,0.0,0.0,0.0,0.0,0.0,0.0,0.0,2.3598,2.5487,2.9204,2.9956,3.0208,3.0208,2.9831,2.8314,2.5295,2.3526,0.0,0.0,0.0,0.0,0.0,0.0,0.0,0.0,0.0,0.0,0.0,0.0,0.0,0.0,0.0,0.0,0.0,0.0,0.0,0.0,0.0,0.0,0.0,0.0,0.0,0.0,0.0,0.0,0.0,0.0,0.0,0.0,0.0,0.0,0.0,0.0,0.0,0.0,0.0,0.0,0.0,0.0,0.0,0.0,0.0,0.0,0.0,0.0,0.0,0.0,0.0,0.0,0.0,0.0,0.0,0.0,0.0,0.0,0.0,0.0,0.0,0.0,0.0,0.0,0.0,0.0,0.0,0.0,0.0,0.0,0.0,0.0,0.0,0.0,0.0,0.0,0.0,0.0,0.0,0.0,0.0,0.0,0.0,0.0,0.0,0.0,0.0,0.0,0.0,0.0,0.0,0.0,0.0,0.0,0.0,0.0,0.0,0.0,0.0,0.0,0.0,0.0,2.6495,2.7806,2.9975,3.0208,3.0208,3.0208,2.9819,2.8305,2.5298,2.314,0.0,0.0,0.0,0.0,0.0,0.0,0.0,0.0,0.0,0.0,0.0,0.0,0.0,0.0,0.0,0.0,0.0,0.0,0.0,0.0,0.0,0.0,0.0,0.0,0.0,0.0,0.0,0.0,0.0,0.0,0.0,0.0,0.0,0.0,0.0,0.0,0.0,0.0,0.0,0.0,0.0,0.0,0.0,0.0,0.0,0.0,0.0,0.0,0.0,0.0,0.0,0.0,0.0,0.0,0.0,0.0,0.0,0.0,0.0,0.0,0.0,0.0,0.0,0.0,0.0,0.0,0.0,0.0,0.0,0.0,0.0,0.0,0.0,0.0,0.0,0.0,0.0,0.0,0.0,0.0,0.0,0.0,0.0,0.0,0.0,0.0,0.0,0.0,0.0,0.0,0.0,0.0,0.0,0.0,0.0,0.0,0.0,0.0,0.0,0.0,0.0,0.0,2.6801,2.9097,3.0089,3.0208,3.0208,3.0208,2.8706,2.7016,2.5219,2.2016,0.0,0.0,0.0,0.0,0.0,0.0,0.0,0.0,0.0,0.0,0.0,0.0,0.0,0.0,0.0,0.0,0.0,0.0,0.0,0.0,0.0,0.0,0.0,0.0,0.0,0.0,0.0,0.0,0.0,0.0,0.0,0.0,0.0,0.0,0.0,0.0,0.0,0.0,0.0,0.0,0.0,0.0,0.0,0.0,0.0,0.0,0.0,0.0,0.0,0.0,0.0,0.0,0.0,0.0,0.0,0.0,0.0,0.0,0.0,0.0,0.0,0.0,0.0,0.0,0.0,0.0,0.0,0.0,0.0,0.0,0.0,0.0,0.0,0.0,0.0,0.0,0.0,0.0,0.0,0.0,0.0,0.0,0.0,0.0,0.0,0.0,0.0,0.0,0.0,0.0,0.0,0.0,0.0,0.0,0.0,0.0,0.0,0.0,0.0,0.0,0.0,0.0,2.6625,2.859,0.0,3.0208,3.0208,3.0208,2.9605,2.8031,2.5279,0.0,0.0,0.0,0.0,0.0,0.0,0.0,0.0,0.0,0.0,0.0,0.0,0.0,0.0,0.0,0.0,0.0,0.0,0.0,0.0,0.0,0.0,0.0,0.0,0.0,0.0,0.0,0.0,0.0,0.0,0.0,0.0,0.0,0.0,0.0,0.0,0.0,0.0,0.0,0.0,0.0,0.0,0.0,0.0,0.0,0.0,0.0,0.0,0.0,0.0,0.0,0.0,0.0,0.0,0.0,0.0,0.0,0.0,0.0,0.0,0.0,0.0,0.0,0.0,0.0,0.0,0.0,0.0,0.0,0.0,0.0,0.0,0.0,0.0,0.0,0.0,0.0,0.0,0.0,0.0,0.0,0.0,0.0,0.0,0.0,0.0,0.0,0.0,0.0,0.0,0.0,0.0,0.0,0.0,0.0,0.0,0.0,0.0,0.0,0.0,0.0,0.0,2.4701,2.6932,2.8757,0.0,3.0176,3.0176,3.0176,2.9665,2.8109,2.5228,0.0,0.0,0.0,0.0,0.0,0.0,0.0,0.0,0.0,0.0,0.0,0.0,0.0,0.0,0.0,0.0,0.0,0.0,0.0,0.0,0.0,0.0,0.0,0.0,0.0,0.0,0.0,0.0,0.0,0.0,0.0,0.0,0.0,0.0,0.0,0.0,0.0,0.0,0.0,0.0,0.0,0.0,0.0,0.0,0.0,0.0,0.0,0.0,0.0,0.0,0.0,0.0,0.0,0.0,0.0,0.0,0.0,0.0,0.0,0.0,0.0,0.0,0.0,0.0,0.0,0.0,0.0,0.0,0.0,0.0,0.0,0.0,0.0,0.0,0.0,0.0,0.0,0.0,0.0,0.0,0.0,0.0,0.0,0.0,0.0,0.0,0.0,0.0,0.0,0.0,0.0,0.0,0.0,0.0,0.0,0.0,0.0,0.0,0.0,0.0,0.0,0.0,2.4777,2.7873,2.9952,3.0087,3.0095,3.0095,3.0095,2.8513,2.6788,0.0,0.0,0.0,0.0,0.0,0.0,0.0,0.0,0.0,0.0,0.0,0.0,0.0,0.0,0.0,0.0,0.0,0.0,0.0,0.0,0.0,0.0,0.0,0.0,0.0,0.0,0.0,0.0,0.0,0.0,0.0,0.0,0.0,0.0,0.0,0.0,0.0,0.0,0.0,0.0,0.0,0.0,0.0,0.0,0.0,0.0,0.0,0.0,0.0,0.0,0.0,0.0,0.0,0.0,0.0,0.0,0.0,0.0,0.0,0.0,0.0,0.0,0.0,0.0,0.0,0.0,0.0,0.0,0.0,0.0,0.0,0.0,0.0,0.0,0.0,0.0,0.0,0.0,0.0,0.0,0.0,0.0,0.0,0.0,0.0,0.0,0.0,0.0,0.0,0.0,0.0,0.0,0.0,0.0,0.0,0.0,0.0,0.0,0.0,0.0,0.0,0.0,0.0,2.4711,2.7792,2.9857,2.9948,2.9956,2.9956,2.9956,2.9489,2.7987,2.5153,0.0,0.0,0.0,0.0,0.0,0.0,0.0,0.0,0.0,0.0,0.0,0.0,0.0,0.0,0.0,0.0,0.0,0.0,0.0,0.0,0.0,0.0,0.0,0.0,0.0,0.0,0.0,0.0,0.0,0.0,0.0,0.0,0.0,0.0,0.0,0.0,0.0,0.0,0.0,0.0,0.0,0.0,0.0,0.0,0.0,0.0,0.0,0.0,0.0,0.0,0.0,0.0,0.0,0.0,0.0,0.0,0.0,0.0,0.0,0.0,0.0,0.0,0.0,0.0,0.0,0.0,0.0,0.0,0.0,0.0,0.0,0.0,0.0,0.0,0.0,0.0,0.0,0.0,0.0,0.0,0.0,0.0,0.0,0.0,0.0,0.0,0.0,0.0,0.0,0.0,0.0,0.0,0.0,0.0,0.0,0.0,0.0,0.0,0.0,0.0,0.0,0.0,2.4377,2.7437,2.9509,2.968,2.9697,2.9747,2.9857,2.976,2.8435,2.5469,0.0,0.0,0.0,0.0,0.0,0.0,0.0,0.0,0.0,0.0,0.0,0.0,0.0,0.0,0.0,0.0,0.0,0.0,0.0,0.0,0.0,0.0,0.0,0.0,0.0,0.0,0.0,0.0,0.0,0.0,0.0,0.0,0.0,0.0,0.0,0.0,0.0,0.0,0.0,0.0,0.0,0.0,0.0,0.0,0.0,0.0,0.0,0.0,0.0,0.0,0.0,0.0,0.0,0.0,0.0,0.0,0.0,0.0,0.0,0.0,0.0,0.0,0.0,0.0,0.0,0.0,0.0,0.0,0.0,0.0,0.0,0.0,0.0,0.0,0.0,0.0,0.0,0.0,0.0,0.0,0.0,0.0,0.0,0.0,0.0,0.0,0.0,0.0,0.0,0.0,0.0,0.0,0.0,0.0,0.0,0.0,0.0,0.0,0.0,0.0,0.0,0.0,2.4063,2.7009,2.9062,2.9398,2.9413,2.9504,2.9777,2.9575,2.839,2.6004,0.0,0.0,0.0,0.0,0.0,0.0,0.0,0.0,0.0,0.0,0.0,0.0,0.0,0.0,0.0,0.0,0.0,0.0,0.0,0.0,0.0,0.0,0.0,0.0,0.0,0.0,0.0,0.0,0.0,0.0,0.0,0.0,0.0,0.0,0.0,0.0,0.0,0.0,0.0,0.0,0.0,0.0,0.0,0.0,0.0,0.0,0.0,0.0,0.0,0.0,0.0,0.0,0.0,0.0,0.0,0.0,0.0,0.0,0.0,0.0,1.5081,0.0,0.0,0.0,0.0,0.0,0.0,0.0,0.0,0.0,0.0,0.0,0.0,0.0,0.0,0.0,0.0,0.0,0.0,0.0,0.0,0.0,0.0,0.0,0.0,0.0,0.0,0.0,0.0,0.0,0.0,0.0,0.0,0.0,0.0,0.0,0.0,0.0,0.0,0.0,0.0,0.0,2.5281,2.7712,2.9324,2.9612,2.9454,2.9439,2.9701,2.9678,2.8876,2.7067,0.0,0.0,0.0,0.0,0.0,0.0,0.0,0.0,0.0,0.0,0.0,0.0,0.0,0.0,0.0,0.0,0.0,0.0,0.0,0.0,0.0,0.0,0.0,0.0,0.0,0.0,0.0,0.0,0.0,0.0,0.0,0.0,0.0,0.0,0.0,0.0,0.0,0.0,0.0,0.0,0.0,0.0,0.0,0.0,0.0,0.0,0.0,0.0,0.0,0.0,0.0,0.0,0.0,0.0,0.0,0.0,0.0,0.0,0.0,0.0,0.0,1.6204,0.0,0.0,0.0,0.0,0.0,0.0,0.0,0.0,0.0,0.0,0.0,0.0,0.0,0.0,0.0,0.0,0.0,0.0,0.0,0.0,0.0,0.0,0.0,0.0,0.0,0.0,0.0,0.0,0.0,0.0,0.0,0.0,0.0,0.0,0.0,0.0,0.0,0.0,0.0,0.0,2.5055,2.7685,2.9307,2.9184,2.9354,2.9445,2.933,2.9233,2.8696,2.761,2.5151,0.0,0.0,0.0,0.0,0.0,0.0,0.0,0.0,0.0,0.0,0.0,0.0,0.0,0.0,0.0,0.0,0.0,0.0,0.0,0.0,0.0,0.0,0.0,0.0,0.0,0.0,0.0,0.0,0.0,0.0,0.0,0.0,0.0,0.0,0.0,0.0,0.0,0.0,0.0,0.0,0.0,0.0,0.0,0.0,0.0,0.0,0.0,0.0,0.0,0.0,0.0,0.0,0.0,1.8311,1.8741,1.8699,1.8756,1.889,1.9043,1.8368,1.7933,1.7676,0.0,0.0,0.0,0.0,0.0,0.0,0.0,0.0,0.0,0.0,0.0,0.0,0.0,0.0,0.0,0.0,0.0,0.0,0.0,0.0,0.0,0.0,0.0,0.0,0.0,2.4502,2.4373,0.0,0.0,0.0,0.0,0.0,0.0,0.0,0.0,0.0,0.0,0.0,0.0,2.4938,2.7671,2.9307,2.8892,2.9494,2.9692,2.9159,2.8956,2.8603,2.8029,2.5748,2.4259,0.0,0.0,0.0,0.0,0.0,0.0,0.0,0.0,0.0,0.0,0.0,0.0,0.0,0.0,0.0,0.0,0.0,0.0,0.0,0.0,0.0,0.0,0.0,0.0,0.0,0.0,0.0,0.0,0.0,0.0,0.0,0.0,1.3056,1.3815,0.0,0.0,0.0,0.0,0.0,0.0,0.0,0.0,0.0,0.0,0.0,0.0,0.0,0.0,1.702,1.7708,1.843,1.9176,1.9876,2.0258,2.0309,2.0314,2.0709,2.1359,2.1255,0.0,1.9157,1.8525,0.0,0.0,0.0,0.0,0.0,0.0,0.0,0.0,0.0,0.0,0.0,0.0,0.0,0.0,0.0,0.0,0.0,0.0,0.0,0.0,0.0,0.0,2.5218,2.4688,2.5659,2.6396,0.0,2.365,2.2272,2.1945,0.0,0.0,0.0,0.0,0.0,0.0,0.0,0.0,2.7068,2.8712,2.9718,2.9875,3.0402,3.0514,2.9984,2.9923,2.9563,2.8802,2.713,2.6249,2.6405,2.3211,0.0,0.0,0.0,0.0,0.0,0.0,0.0,0.0,0.0,0.0,0.0,0.0,0.0,0.0,0.0,0.0,0.0,0.0,0.0,0.0,0.0,0.0,0.0,0.0,0.0,0.0,0.0,0.0,0.0,1.441,1.4974,1.5661,1.6098,1.6159,0.0,0.0,0.0,0.0,0.0,0.0,0.0,0.0,0.0,1.8688,1.8652,1.8796,1.9101,1.9812,2.0345,2.0691,2.1394,2.1755,2.1787,2.1787,2.1977,2.2312,2.2312,2.1914,2.1245,2.057,2.0159,1.9872,0.0,0.0,0.0,0.0,0.0,2.0111,2.1024,2.1081,0.0,0.0,0.0,0.0,0.0,0.0,0.0,0.0,0.0,0.0,0.0,0.0,0.0,2.6519,2.7186,2.7578,2.7215,2.6738,2.584,0.0,2.3549,2.2822,2.1017,0.0,0.0,0.0,0.0,0.0,2.7754,2.9267,3.0197,3.0304,3.0945,3.1067,3.0376,2.9945,2.9595,2.9356,2.7845,2.7134,2.7552,2.5263,2.3512,0.0,0.0,0.0,0.0,0.0,0.0,0.0,0.0,0.0,0.0,0.0,0.0,0.0,0.0,0.0,0.0,0.0,0.0,0.0,0.0,0.0,0.0,0.0,0.0,0.0,0.0,0.0,0.0,1.597,1.6659,1.714,1.7794,1.7929,0.0,0.0,0.0,0.0,0.0,0.0,1.8713,1.9394,2.0167,2.1026,2.1004,2.1045,2.1167,2.1709,2.1966,2.1917,2.2462,2.2725,2.2725,2.2978,2.3091,2.3108,2.3295,2.3375,2.3281,2.22,2.1453,2.0929,2.0298,2.0501,2.1178,2.1295,2.1568,2.2028,2.3147,2.3378,2.2963,2.1583,0.0,2.0363,1.9172,0.0,0.0,0.0,0.0,2.3469,2.4676,2.539,2.6097,2.7304,2.7732,2.7892,2.7892,2.8523,2.8399,0.0,2.6044,2.5598,2.3053,0.0,0.0,0.0,0.0,2.6989,2.8588,2.9968,3.0807,3.0807,3.1528,3.1678,3.0878,3.0118,2.9669,2.9625,2.8303,2.7761,2.8284,2.6905,2.5601,2.4479,0.0,0.0,0.0,0.0,0.0,0.0,0.0,0.0,0.0,0.0,0.0,0.0,0.0,0.0,0.0,0.0,0.0,0.0,0.0,0.0,0.0,0.0,0.0,0.0,0.0,0.0,0.0,0.0,0.0,1.7192,1.9234,0.0,0.0,0.0,0.0,1.8303,1.9645,2.0263,1.9673,2.0213,2.09,2.1713,2.1742,2.2053,2.2671,2.2734,2.2734,2.2745,2.2779,2.2797,2.2821,2.3731,2.4128,2.4169,2.4933,2.5235,2.4985,2.2585,2.1981,2.2509,2.178,2.1974,2.2695,2.2765,2.3401,2.4228,2.4161,2.4797,2.5454,2.4493,2.3271,2.2171,2.2082,2.266,0.0,0.0,2.4438,2.5634,2.5723,2.5776,2.5812,2.5901,2.6496,2.7056,2.7056,2.7685,2.8213,0.0,2.8053,2.7792,2.686,0.0,2.6187,2.7678,2.7999,2.8641,3.0182,3.1118,3.1643,3.1643,3.2364,3.2507,3.1714,3.0921,3.0154,2.9455,2.8627,2.8368,2.8833,2.8057,2.7409,2.7021,2.4678,0.0,0.0,0.0,0.0,0.0,0.0,0.0,0.0,0.0,0.0,0.0,0.0,0.0,0.0,0.0,0.0,0.0,0.0,0.0,0.0,0.0,0.0,0.0,0.0,0.0,0.0,0.0,0.0,2.0108,2.098,0.0,0.0,2.0711,2.1141,1.9923,2.0898,2.1405,2.1137,2.1725,2.2211,2.2495,2.3046,2.346,2.3696,2.4177,2.4415,2.4415,2.4374,2.4329,2.4354,2.4693,2.4843,2.486,2.5153,2.5258,2.5178,2.4277,2.4077,2.4278,2.4024,2.4063,2.4285,2.4313,2.4568,2.4925,2.4958,2.522,2.5493,2.525,2.4886,2.4551,2.4551,2.4742,2.4974,2.4974,2.5384,2.5919,2.6443,2.6574,2.6693,2.7215,2.7553,2.7774,2.7774,2.8399,2.882,2.8303,2.8196,2.7946,2.7145,2.762,2.8149,2.8196,2.9034,3.0075,3.1135,3.151,3.1893,3.2418,3.2721,3.2775,3.2507,3.126,3.0396,3.0111,2.8909,2.8342,2.87,2.8563,2.826,2.7788,2.6595,2.4504,0.0,0.0,0.0,0.0,0.0,0.0,0.0,0.0,0.0,0.0,0.0,0.0,0.0,0.0,0.0,0.0,0.0,0.0,0.0,0.0,0.0,0.0,0.0,0.0,0.0,0.0,2.0764,2.1744,2.2141,2.193,2.0963,2.182,2.2113,2.1363,2.1947,2.2404,2.2562,2.3062,2.3411,2.3541,2.4104,2.4392,2.4372,2.4851,2.5143,2.5265,2.5111,2.5023,2.5033,2.5176,2.522,2.5261,2.5643,2.5813,2.5838,2.5964,2.6008,2.5962,2.5411,2.5174,2.5132,2.5132,2.5359,2.5694,2.6055,2.596,2.5733,2.5891,2.5833,2.5736,2.5736,2.6148,2.6615,2.6615,2.6972,2.7507,2.8031,2.8174,2.8316,2.8845,2.898,2.898,2.898,2.9398,2.954,2.8755,2.8606,2.8345,2.7549,2.8292,2.8916,2.8641,2.9683,3.0789,3.1599,3.1946,3.2311,3.2846,3.29,3.29,3.29,3.1421,3.0504,3.0504,2.9052,2.836,2.8694,2.8825,2.8818,2.8645,2.7447,2.5638,2.3208,0.0,0.0,0.0,0.0,0.0,0.0,0.0,0.0,0.0,0.0,0.0,0.0,0.0,0.0,0.0,0.0,0.0,0.0,0.0,0.0,0.0,0.0,0.0,1.9645,2.1048,2.1955,2.1876,2.2607,2.2702,2.161,2.2494,2.2978,2.2586,2.2849,2.3297,2.388,2.4094,2.4375,2.4788,2.48,2.4787,2.4728,2.4737,2.491,2.5237,2.491,2.4754,2.4772,2.5151,2.5338,2.5405,2.6508,2.7027,2.7093,2.7425,2.7572,2.7422,2.5878,2.5265,2.5258,2.5258,2.5795,2.6645,2.7436,2.712,2.6417,2.6629,2.6268,2.574,2.574,2.6927,2.8253,2.8253,2.9348,3.0496,3.0504,3.0504,3.0504,3.0504,3.0504,3.0504,3.0504,3.0504,3.0289,2.9576,2.9433,2.9166,2.8338,2.8231,2.8499,2.9273,3.0022,0.0,3.1571,3.2339,3.2829,3.2829,3.2829,3.2829,3.2829,3.135,3.0432,3.0432,2.898,2.8324,2.878,2.8809,2.9079,2.9603,2.7141,2.5499,2.4757,0.0,0.0,0.0,0.0,0.0,0.0,0.0,0.0,0.0,0.0,0.0,0.0,0.0,0.0,0.0,0.0,0.0,0.0,0.0,0.0,0.0,0.0,2.0764,2.1103,2.1515,2.2218,2.3392,2.3611,2.3707,2.3799,2.3984,2.4083,2.4025,2.4013,2.4067,2.4182,2.4209,2.4296,2.4503,2.4749,2.501,2.5274,2.5712,2.6031,2.6216,2.6031,2.6056,2.6282,2.6152,2.6092,2.6117,2.6429,2.6573,2.6607,2.6699,2.6864,2.7088,2.6933,2.6832,2.6806,2.6806,2.6988,2.731,2.7984,2.82,2.8259,2.8758,2.8854,2.8785,2.8785,2.9122,2.9536,2.9675,3.0032,3.0381,3.0466,3.0504,3.0504,3.0504,3.0504,3.0504,3.0504,3.0504,3.0432,3.0236,3.02,2.9772,2.8427,2.8677,2.9148,2.9362,3.0022,0.0,3.0807,3.1028,3.1153,3.1153,3.1153,3.1153,3.1153,2.9736,2.882,0.0,2.7339,2.6525,2.6651,2.6981,2.7386,2.7876,2.6047,2.4716,0.0,0.0,0.0,0.0,0.0,0.0,0.0,0.0,0.0,0.0,0.0,0.0,0.0,0.0,0.0,0.0,0.0,0.0,0.0,0.0,0.0,0.0,2.0892,2.1732,2.2395,2.2563,2.2909,2.3695,2.4028,2.4213,2.4234,2.4266,2.425,2.4151,2.4173,2.4307,2.4545,2.4488,2.4589,2.4846,2.4966,2.5136,2.5382,2.5715,2.6054,2.6352,2.6125,2.6343,2.6933,2.6535,2.6568,0.0,2.7226,2.7369,2.7378,2.7553,2.7828,0.0,0.0,0.0,0.0,0.0,2.8461,2.8545,2.8869,2.9114,2.932,2.9645,2.9851,2.9946,2.9923,3.0183,3.0535,3.0712,3.0989,3.1302,3.1472,3.151,3.151,3.151,3.151,3.151,3.151,3.151,3.1403,3.1064,0.0,0.0,2.9373,2.9558,2.9861,2.9861,3.0511,3.1011,0.0,3.1296,3.1385,3.1046,3.1011,3.0868,3.0521,2.9398,0.0,0.0,0.0,2.619,2.5973,2.6412,0.0,0.0,0.0,2.607,0.0,0.0,0.0,0.0,2.4055,2.3467,0.0,0.0,0.0,0.0,0.0,0.0,0.0,0.0,0.0,0.0,0.0,0.0,0.0,0.0,0.0,0.0,2.1574,2.2145,2.349,2.3893,2.3916,2.3532,2.4156,2.4413,2.3898,2.4025,2.4009,2.3709,2.3882,2.4272,2.4866,0.0,0.0,0.0,0.0,2.5105,2.5147,2.5125,2.5389,2.5957,2.5647,2.6052,2.7049,2.6589,2.6817,2.7608,2.8274,2.8544,2.8572,2.8937,2.9377,2.9744,2.8763,2.8593,2.8988,2.9645,2.9881,0.0,0.0,0.0,0.0,2.9918,3.0021,3.0111,3.0037,3.0609,3.1302,3.1432,3.1991,3.2597,3.2802,3.2868,3.2876,3.29,3.29,3.29,3.29,3.29,3.2686,3.1964,3.1839,3.1607,3.0886,3.0611,3.0504,3.0504,3.1118,3.1571,3.1571,3.2186,3.2364,3.1635,0.0,0.0,3.0557,2.9736,2.8969,2.8249,2.7371,2.6659,2.6215,2.6599,2.6846,2.6893,2.7764,2.8239,2.8261,2.9044,2.9167,2.8585,2.4835,2.4345,0.0,0.0,0.0,0.0,0.0,0.0,0.0,0.0,0.0,0.0,0.0,0.0,0.0,0.0,0.0,2.2697,2.2832,2.3054,2.4028,2.4707,2.5143,2.5216,2.4987,2.4966,2.5257,2.5105,2.494,2.4887,2.4761,2.4767,2.4891,2.484,0.0,2.525,2.4648,2.4496,2.4869,2.4613,2.4915,2.5764,0.0,0.0,2.747,2.7056,2.7068,2.7458,2.7591,2.7646,2.7662,2.7743,2.8428,2.9422,2.9472,2.9532,2.9624,2.9764,2.9816,2.9887,3.043,3.0603,3.069,3.1225,3.1406,3.1433,3.1415,3.1537,0.0,3.1908,3.2074,3.2275,3.2581,3.2664,3.2696,3.2868,3.29,3.29,3.29,3.29,3.2846,3.2704,3.2668,3.2614,3.2472,3.1367,3.0504,3.0504,3.0628,3.0735,3.0735,3.0868,3.0896,3.0761,3.0735,3.0664,3.0504,2.9237,2.8374,2.8213,2.6847,2.6085,2.6205,2.6291,2.6486,2.6804,2.7009,2.7223,2.7425,2.7599,2.7976,2.8514,2.7753,2.7767,0.0,0.0,0.0,0.0,0.0,0.0,0.0,0.0,0.0,0.0,0.0,1.9131,1.9397,0.0,2.208,2.2794,2.3311,2.3875,2.4514,2.4745,2.489,2.4993,2.5115,2.522,2.525,2.5107,2.4964,2.4904,2.4815,2.4739,2.4739,2.4624,2.4614,2.4744,2.4282,2.4315,2.4895,2.4731,2.5101,2.5998,2.6077,2.676,2.7945,2.7849,2.8121,2.8656,2.8857,2.8903,2.8861,2.9073,2.9369,2.9733,3.0182,3.0495,3.0716,3.0898,3.095,3.1002,3.1324,3.1446,3.1558,3.2268,3.251,3.257,3.2895,3.3044,3.3127,3.3185,3.325,3.3341,3.3556,3.3688,3.3773,3.3885,3.3977,3.3945,3.358,3.3499,3.3374,3.2971,3.29,3.29,3.29,3.2232,3.1696,3.1696,3.1696,3.1696,3.1696,3.1696,3.1546,3.1135,3.11,3.0939,3.0521,2.9469,2.8624,2.8231,2.7079,2.6286,2.6003,2.6233,2.6448,2.666,2.7731,2.8371,2.8506,2.9315,2.9953,3.0449,3.0413,3.0282,0.0,0.0,0.0,0.0,0.0,0.0,0.0,0.0,1.7389,1.7929,1.9029,1.9965,2.025,2.1592,2.2703,2.2785,2.3663,2.4481,2.4944,2.4747,2.451,2.4436,2.4999,2.5211,2.4842,2.4762,2.4701,2.4595,2.4559,2.4611,2.4766,2.4606,2.4585,2.4765,2.4565,2.4743,2.5314,2.527,2.5657,2.6518,2.6714,2.7351,2.8384,2.8611,2.9096,2.9803,3.0145,3.0235,3.0188,3.0665,3.06,3.0288,3.0954,3.1446,3.1798,3.1996,3.2074,3.21,3.2356,3.2435,3.2548,3.3212,3.3439,3.3525,3.4083,3.4312,3.437,3.4306,3.4364,3.4466,3.4514,3.4672,3.4809,3.488,3.5013,3.4992,3.442,3.4303,3.4115,3.3463,3.3346,3.3346,3.3346,3.3346,3.3257,3.2953,3.29,3.29,3.29,3.29,3.265,3.2,3.1928,3.1607,3.0807,3.019,2.9505,2.8695,2.8049,2.7388,2.674,2.7079,2.7335,2.744,2.9179,3.0143,3.0245,3.1558,3.2326,3.2605,3.2645,3.2322,1.5893,1.4404,0.0,1.5802,1.628,1.6917,0.0,0.0,1.961,2.0214,2.0655,2.1079,2.1581,2.1947,2.2639,2.4045,2.4329,2.4621,2.5329,2.5399,2.5264,2.4957,2.4899,2.4872,2.4802,2.4641,2.4529,2.4508,2.44,2.4647,2.5361,2.5311,2.5626,2.6407,2.624,2.6216,2.6424,2.6185,2.6478,2.7288,2.7184,2.7678,2.867,2.8926,2.9157,2.9373,2.9547,2.9603,2.964,3.0416,3.0681,3.0762,3.1877,3.2353,3.237,3.2114,3.2009,3.2154,3.3244,3.3603,3.368,3.411,3.4275,3.4275,3.4352,3.4387,3.4378,3.4247,3.4227,3.4256,3.4318,3.4356,3.4469,3.4818,3.4916,3.496,3.5054,3.5088,3.5052,3.4963,3.4945,3.4945,3.4945,3.4945,3.4472,3.3114,3.29,3.29,3.29,3.29,3.2864,3.2775,3.2775,3.2436,3.1625,3.1492,3.11,3.0289,3.0165,3.0075,2.9986,3.0019,3.0279,3.0742,3.1005,3.1368,3.1833,3.2021,3.2514,3.3308,3.4017,3.3994,1.7022,0.0,0.0,0.0,1.7401,1.8143,1.9735,1.9941,1.9972,2.0577,2.1109,2.1508,2.1693,2.2651,2.3579,0.0,2.4589,2.5043,2.5179,2.514,2.5078,2.5005,2.4882,2.4772,2.4696,2.458,2.4663,2.5051,2.5035,2.535,2.6167,2.617,2.6321,2.67,2.6612,2.6792,2.7241,2.7128,2.7423,2.8092,2.8159,2.8334,2.8586,2.8861,2.9059,2.9213,2.9704,2.9987,3.0202,3.1003,3.1288,3.1285,3.1862,3.2034,3.2071,3.2731,3.2995,3.309,3.3874,3.4159,3.4258,3.4938,3.5163,3.525,3.5677,3.5857,3.5877,3.57,3.565,3.564,3.5585,3.5643,3.5732,3.5916,3.6063,3.6054,3.5631,3.5696,3.5678,3.5137,3.5118,3.5195,3.5195,3.5195,3.4981,3.4347,3.424,3.4079,3.3659,3.3598,3.3427,3.2953,3.29,3.2757,3.2436,3.24,3.2053,3.1242,3.1207,3.0993,3.0521,3.0647,3.0834,3.106,3.1712,3.2243,3.2633,3.3599,3.4345,3.487,3.567,3.5915,1.8249,0.0,0.0,1.7967,1.8481,1.9099,1.987,2.0059,2.0201,2.0641,2.1102,2.1468,2.1603,2.2905,2.3916,2.3812,2.4608,2.5179,2.5025,2.4876,2.4852,2.4976,2.4882,2.4762,2.4666,2.4554,2.4772,2.5444,2.5506,2.5958,2.6978,2.7036,2.7141,2.7351,2.7351,2.7601,2.8091,2.8022,2.8218,2.866,2.8724,2.8661,2.8482,2.8895,2.9167,2.934,3.0125,3.0601,3.0843,3.1718,3.206,3.2003,3.2313,3.2341,3.2378,3.3512,3.375,3.3583,3.4271,3.4504,3.4668,3.5578,3.5879,3.5986,3.6654,3.6911,3.6958,3.6786,3.6725,3.6705,3.6592,3.6602,3.6654,3.6715,3.6859,3.6831,3.6268,3.6363,3.6362,3.5695,3.5714,3.5855,3.5855,3.5855,3.5855,3.5855,3.5855,3.5507,3.4535,3.4392,3.4178,3.3606,3.3534,3.3534,3.3534,3.3534,3.3285,3.2706,3.2474,3.2099,3.152,3.1472,3.1639,3.2019,3.2837,3.3543,3.4137,3.5345,3.6032,3.6259,3.7065,3.7424,0.0,0.0,1.784,1.9186,1.9594,1.9846,2.0521,2.0721,2.0771,2.0794,2.076,2.0928,2.1586,2.2328,2.3063,2.3701,2.4367,2.4862,2.4976,2.4876,2.4852,2.4976,2.4882,2.4802,0.0,2.462,2.4772,2.5444,2.5506,2.6193,2.7774,2.7859,2.8223,2.9008,2.9039,2.9039,2.9055,2.8865,2.8779,2.8783,2.8544,2.8408,2.8427,2.9221,2.9648,2.9826,3.0765,3.1163,3.1263,3.2403,3.2852,3.2945,3.3727,3.3948,3.3897,3.4394,3.386,3.3092,3.4357,3.4802,3.495,3.5955,3.6287,3.6361,3.6851,3.6997,3.6978,3.6849,3.6809,3.6778,3.6705,3.6602,3.6564,3.6758,3.6738,3.6766,3.6923,3.7127,3.7261,3.7226,3.7394,3.7541,3.7541,3.7541,3.7541,3.7541,3.7541,3.6961,3.5373,3.5177,3.5159,3.5124,3.5124,3.5124,3.5124,3.5124,3.5124,3.5106,3.4428,3.4018,3.3982,3.3257,3.3486,3.4855,3.4913,3.5599,3.6973,3.7024,3.7067,3.7073,3.7887,3.8257,1.8401,0.0,1.8936,1.9413,1.9954,2.0427,2.0654,2.0752,2.0761,2.0628,2.1434,2.2193,2.2269,2.2942,2.3714,2.4469,2.4229,2.4196,2.4902,2.4772,2.4701,2.4982,2.4882,0.0,0.0,0.0,0.0,2.6321,2.6346,2.6994,2.8615,2.8705,2.8827,2.9087,2.9001,2.8967,2.8967,2.8861,2.8759,2.866,2.8408,2.8504,2.8949,2.9128,2.9579,3.0252,3.1334,3.1902,3.2155,3.323,3.3698,3.3702,3.3907,3.3937,3.3911,3.3971,3.375,3.3577,3.4641,3.5295,3.5655,3.5543,3.6073,3.6731,3.6471,3.6683,3.6997,3.6948,3.7256,3.7598,3.7567,3.7857,3.8177,3.8251,3.8276,3.8297,3.8307,3.8586,3.8807,3.8765,3.8964,3.9129,3.9129,3.9129,3.8968,3.8469,3.7487,3.6613,3.6078,3.5534,3.5195,3.5195,3.5195,3.5195,3.5195,3.5195,3.5195,3.5195,3.4963,3.4838,3.4838,3.4579,3.466,3.5129,3.5129,3.559,3.651,3.7042,3.7495,3.7925,3.9314,3.9952,1.8722,1.91,1.9593,1.9859,2.0315,2.0701,2.0701,2.0752,2.0761,2.0637,2.1649,2.2497,2.231,2.2945,2.3721,2.4453,2.4229,2.429,2.524,2.5112,2.502,2.5259,2.5234,0.0,0.0,0.0,0.0,2.6751,2.6759,2.7371,2.895,2.904,2.9017,2.8986,2.8901,2.8865,2.8865,2.8763,2.8772,2.89,2.8947,2.9184,2.9559,2.978,3.0169,3.0755,3.1885,3.2486,3.2715,3.3595,3.3962,3.3949,3.3911,3.3873,3.3809,3.3684,3.3805,3.4069,3.4472,3.4889,3.5197,3.4943,3.5403,3.6082,3.6182,3.6474,3.6842,3.7157,3.7692,3.8177,3.8177,3.8581,3.8996,3.8996,3.8957,3.8908,3.8877,3.9118,3.935,3.9287,3.9486,3.965,3.965,3.9738,3.9656,3.9243,3.8317,3.7452,3.6908,3.6381,3.606,3.606,3.606,3.606,3.606,3.606,3.606,3.606,3.5792,3.5623,3.5623,3.5356,3.538,3.5802,3.581,3.6224,3.7055,3.7985,3.8649,3.9039,4.0546,4.1223,2.0225,2.0216,1.9814,2.0529,2.0701,2.0701,2.0701,2.0752,2.0802,2.0794,2.141,2.1906,0.0,0.0,2.3137,2.3742,2.4388,2.5094,2.5941,2.5879,2.5785,0.0,0.0,0.0,0.0,0.0,0.0,2.6768,0.0,2.7395,2.8826,2.8904,2.8877,2.8806,2.8806,2.881,2.8857,2.8738,2.8958,2.9473,3.0107,3.035,3.0291,3.105,3.1346,3.1314,3.2412,3.2897,3.2951,3.3477,3.3681,3.3707,3.3835,3.3829,3.3745,3.3603,3.4038,3.4587,3.4007,3.3832,3.3935,3.4336,3.4521,3.4807,3.6047,3.6461,3.6671,3.7501,3.8144,3.8555,3.8555,3.8819,3.9097,3.9097,3.8915,3.8743,3.8731,3.8898,3.904,3.9029,3.9206,3.9347,3.9357,3.9561,3.9792,3.9946,3.9958,3.9423,3.7907,3.7711,3.7693,3.7666,3.7666,3.7648,3.7595,3.7595,3.7595,3.7595,3.689,3.6453,3.6453,3.573,3.5848,3.6982,3.7008,3.7576,3.8723,3.9811,4.0341,4.0402,4.1535,4.2079,2.0052,2.0224,2.0466,2.0654,2.0701,2.0701,2.0701,2.0752,2.0786,2.0736,2.1755,2.2433,0.0,0.0,0.0,2.4434,2.4641,0.0,2.6609,2.6606,0.0,0.0,0.0,2.6654,2.6654,2.68,0.0,0.0,2.7595,2.8021,2.9005,2.9052,2.9006,2.8873,2.8826,2.904,2.9552,2.9918,3.0159,3.0291,3.0374,3.0648,3.1096,3.1305,3.1645,3.2124,3.2668,3.2964,3.3085,3.3411,3.3607,3.3681,3.3633,3.3978,3.4494,3.4378,3.4819,3.5472,3.5323,3.5589,3.5941,3.5576,3.6088,3.6829,3.6734,3.728,3.8014,3.8243,3.882,3.9393,3.9393,3.9865,4.0343,4.0343,4.0583,4.0809,4.0708,4.0809,4.0876,4.0776,4.1012,4.1241,4.1336,4.1507,4.1423,4.0885,4.0788,4.0449,3.944,3.9316,3.9111,3.8558,3.8477,3.8255,3.7639,3.7595,3.7595,3.7595,3.7407,3.7282,3.7282,3.7104,3.7417,3.8303,3.8321,3.9002,4.0385,4.0675,4.1078,4.1592,4.2529,4.2975,2.0257,2.046,2.071,2.0736,2.0726,2.0788,2.1145,2.125,2.1267,2.1165,2.2049,0.0,0.0,0.0,0.0,0.0,0.0,0.0,2.6888,2.6873,2.689,0.0,2.7378,0.0,2.7345,2.7661,2.8003,0.0,2.8079,2.8227,2.897,2.8986,2.9069,2.9288,2.9204,2.951,3.0226,3.0776,3.1039,3.1042,3.1204,3.1474,3.1842,3.1842,3.2028,3.2411,0.0,3.2636,3.2761,3.3311,3.3679,3.3913,3.4284,3.4782,3.5305,3.5187,3.5646,3.6364,3.6364,3.6875,3.7304,3.6171,3.6279,3.6862,3.6924,3.7384,3.7965,3.835,3.8949,3.948,3.948,4.008,4.0707,4.0707,4.1047,4.1364,4.1284,4.133,4.1375,4.1318,4.1458,4.1668,4.1913,4.2037,4.1989,4.166,4.1637,4.1448,4.1002,4.0332,3.9744,3.9333,3.928,3.9102,3.8647,3.8611,3.8611,3.8611,3.8611,3.8611,3.8611,3.8611,3.8826,3.928,3.928,3.9685,4.0526,4.1056,4.1583,4.2106,4.3128,4.3694,2.0636,2.076,2.0735,2.0786,2.076,2.0916,2.1718,2.183,2.1748,2.174,0.0,2.2488,2.183,2.2312,2.3113,2.4027,0.0,2.5523,2.7141,2.7162,2.7288,2.7969,2.807,2.807,2.807,2.8667,2.904,2.8943,2.8366,2.8288,2.8861,2.8951,2.9291,2.9935,2.9949,3.0279,3.097,3.1503,3.1778,3.1805,3.2216,3.2425,3.2425,3.2425,3.2425,3.2398,0.0,0.0,3.2472,3.3293,3.3897,3.4359,3.5264,3.584,3.6136,3.6027,3.652,3.7274,3.7274,3.7762,3.8139,3.6628,3.6158,3.6284,3.7037,3.7314,3.754,3.8298,3.8846,3.9219,3.9299,3.9868,4.0441,4.0604,4.0794,4.1,4.1117,4.1128,4.1134,4.1209,4.1243,4.1386,4.1758,4.1823,4.1941,4.2256,4.2297,4.2297,4.2297,4.1074,4.019,4.0065,4.0065,4.0029,3.9904,3.9904,3.9904,3.9904,3.9904,3.9904,3.9904,3.9904,3.9958,4.0065,4.0065,4.013,4.0295,4.1349,4.2031,4.2385,4.3436,4.4094,2.0771,2.0786,2.0786,2.0794,2.0786,2.0983,2.1726,2.1435,0.0,0.0,2.1978,2.1983,2.1745,2.235,0.0,2.526,0.0,0.0,0.0,0.0,2.8737,0.0,0.0,0.0,0.0,0.0,0.0,0.0,0.0,0.0,2.8893,2.9568,3.021,3.076,3.1363,3.1723,3.1874,3.2406,3.2723,3.2844,3.2654,3.2564,3.2564,3.2564,3.2509,3.2398,0.0,0.0,3.3458,3.3749,3.4377,3.5205,3.5619,3.6224,3.6909,3.6881,3.7415,3.8171,3.8171,3.8266,3.8359,3.8044,3.7949,3.7979,3.8123,3.8487,3.8866,3.9011,3.9125,3.9295,3.9749,3.9645,3.9675,4.0546,4.0478,4.0392,4.1169,4.1261,4.1226,4.134,4.1442,4.1615,4.1912,4.2012,4.2121,4.2277,4.2297,4.2297,4.2297,4.2065,4.1637,4.0967,4.0895,4.0618,3.9958,3.9904,3.9904,3.9904,3.9904,3.9904,3.9904,3.9904,4.0208,4.0877,4.0895,4.1359,4.2308,4.25,4.2814,4.3212,4.3419,4.371,2.0802,2.0802,2.0802,2.0802,2.0802,2.0992,2.1726,0.0,0.0,0.0,2.1806,2.1663,2.1267,0.0,0.0,0.0,0.0,0.0,0.0,0.0,0.0,0.0,0.0,0.0,0.0,0.0,0.0,0.0,0.0,0.0,2.9564,3.0674,3.1375,3.1567,3.2311,3.2712,3.2712,3.2913,3.3045,3.3096,3.2757,3.2607,3.2607,3.2537,3.2709,3.3062,3.2824,0.0,3.4143,3.4642,3.5214,3.589,3.6607,3.7257,3.7778,3.7778,3.8044,3.8391,3.8391,3.8391,3.8391,3.8391,3.8391,3.8391,3.8391,3.8572,3.8777,3.8777,3.8777,3.883,3.9098,3.9179,3.9322,3.9851,4.0141,4.0514,4.1249,4.1295,4.1243,4.1363,4.1448,4.156,4.1754,4.1812,4.1913,4.2163,4.2135,4.2135,4.2277,4.2297,4.2155,4.178,4.1726,4.1573,4.1181,4.1145,4.1145,4.1145,4.1145,4.1145,4.1145,4.1145,4.1324,4.1726,4.1726,4.1988,4.2545,4.2545,4.2837,4.3406,4.3406,4.3718,2.085,2.0802,2.0802,2.0802,2.0802,2.0992,2.1711,2.1774,0.0,0.0,2.1621,2.1385,2.1001,0.0,0.0,0.0,0.0,0.0,0.0,0.0,0.0,0.0,0.0,0.0,0.0,0.0,0.0,0.0,0.0,0.0,3.0635,3.169,3.2319,3.2361,3.2972,3.3309,3.3309,3.3163,3.3096,3.3096,3.2798,3.2739,3.2863,3.2765,3.318,3.3945,3.3616,0.0,0.0,3.5438,3.5971,3.647,3.7431,3.8003,3.8292,3.8292,3.8335,3.8391,3.8391,3.8391,3.8391,3.8391,3.8391,3.8391,3.8391,3.8391,3.8391,3.8391,3.8391,3.842,3.853,3.8884,3.9232,3.9335,4.012,4.089,4.118,4.1249,4.1283,4.134,4.1352,4.1397,4.1538,4.156,4.1659,4.1945,4.1902,4.1934,4.2176,4.2207,4.2246,4.2297,4.2297,4.2297,4.2297,4.2297,4.2297,4.2297,4.2297,4.2297,4.2297,4.2297,4.2297,4.2297,4.2297,4.2297,4.2297,4.2297,4.2603,4.3168,4.3168,4.3651,2.0976,2.0802,2.0802,2.0802,2.0802,2.0984,2.1653,0.0,0.0,2.1749,2.1355,2.1046,2.1597,2.1243,0.0,0.0,0.0,2.4548,0.0,0.0,0.0,0.0,0.0,0.0,0.0,0.0,0.0,0.0,0.0,0.0,0.0,3.2228,3.2563,3.3169,3.3248,3.3309,3.3309,3.3163,3.3096,3.3096,3.2951,3.3195,3.3786,3.3772,3.4146,3.4772,0.0,0.0,0.0,3.5669,3.6177,3.6951,3.7297,3.7653,3.7943,3.7943,3.8132,3.8391,3.8391,3.8391,3.8391,3.8391,3.8391,3.8391,3.8391,3.8391,3.8391,3.8391,3.8391,3.8502,3.9007,3.9165,3.9309,3.9813,4.0742,4.1363,4.0795,4.1047,4.134,4.1243,4.122,4.1255,4.1403,4.1426,4.1471,4.1626,4.1637,4.1697,4.1913,4.1945,4.203,4.2277,4.2297,4.2297,4.2297,4.2297,4.2297,4.2297,4.2297,4.2297,4.2297,4.2297,4.2297,4.2297,4.2297,4.2297,4.2297,4.2297,4.232,4.2402,4.2402,4.3178,2.0881,2.0802,2.0802,2.0802,2.0802,2.0873,2.1133,0.0,2.0881,2.1182,2.1,2.0873,2.1149,2.0984,2.1435,2.342,2.3462,0.0,0.0,0.0,0.0,0.0,0.0,0.0,0.0,0.0,0.0,0.0,0.0,0.0,0.0,3.2895,3.3008,3.3293,3.3309,3.3269,3.3176,3.3123,3.3072,3.2978,3.28,3.3129,3.3907,3.3825,3.4474,3.5677,0.0,0.0,0.0,3.6577,3.6764,3.703,3.7299,3.7593,3.79,3.79,3.8103,3.8391,3.8391,3.8391,3.8391,3.8391,3.8391,3.8391,3.8391,3.8391,3.8391,3.8391,3.8391,3.8448,3.8669,3.8722,3.8843,3.9388,3.9838,4.024,4.0544,4.0695,4.0884,4.1094,4.1146,4.1157,4.1204,4.1215,4.1284,4.1448,4.1549,4.1664,4.1863,4.204,4.2176,4.2287,4.2297,4.2297,4.2297,4.2297,4.2297,4.2297,4.2297,4.2297,4.2297,4.2297,4.2297,4.2297,4.2297,4.2297,4.2297,4.2787,4.3135,4.3326,4.381,4.4506,2.0866,2.0802,2.0802,2.0802,2.0952,2.1063,0.0,2.0976,2.1055,2.085,2.0802,2.0802,2.0802,2.0976,2.1514,2.2708,2.2871,2.315,2.4032,0.0,0.0,0.0,0.0,0.0,0.0,0.0,0.0,0.0,0.0,0.0,0.0,3.3309,3.3309,3.3309,3.3309,3.3243,3.3096,3.3096,3.2989,3.2816,3.2662,3.3153,3.419,3.4107,3.4983,3.659,0.0,0.0,0.0,3.7043,3.6998,3.6938,3.718,3.7461,3.777,3.7871,3.8103,3.8391,3.8391,3.8391,3.8391,3.8391,3.8391,3.8391,3.8391,3.8391,3.8391,3.8391,3.8391,3.8434,3.86,3.8641,3.8777,3.9309,3.9571,3.9825,4.0417,4.0599,4.0724,4.0994,4.1047,4.1047,4.1047,4.1047,4.1093,4.1232,4.1335,4.1464,4.1668,4.1934,4.2121,4.2184,4.2256,4.2297,4.2297,4.2297,4.2297,4.2297,4.2297,4.2297,4.2297,4.2297,4.2404,4.2644,4.2644,4.2751,4.2983,4.3543,4.3951,4.4187,4.4761,4.5373,2.0992,2.0802,2.0802,2.0802,2.1356,2.1703,0.0,2.1372,2.1688,2.0961,2.0802,2.0802,2.0802,2.1403,2.2114,2.2787,2.2791,2.3236,2.477,0.0,0.0,0.0,0.0,0.0,0.0,0.0,0.0,0.0,0.0,0.0,0.0,3.3309,3.3309,3.3309,3.3309,3.3243,3.3096,3.3096,3.2935,3.2607,3.2607,3.3401,3.4893,3.4893,3.5847,0.0,0.0,0.0,0.0,3.6831,3.6693,3.6723,3.6938,3.718,3.7447,3.7784,3.8103,3.8391,3.8391,3.8391,3.8391,3.8391,3.8391,3.8391,3.8391,3.8391,3.8391,3.8391,3.8391,3.8532,3.9044,3.9192,3.9339,3.9864,4.0388,4.0719,4.0449,4.0814,4.1128,4.0942,4.0912,4.0912,4.0912,4.0912,4.0912,4.0894,4.0912,4.0977,4.1186,4.1442,4.1675,4.1874,4.2135,4.2297,4.2297,4.2297,4.2297,4.2297,4.2297,4.2297,4.2297,4.2297,4.2662,4.3472,4.349,4.3847,4.4578,4.4578,4.4596,4.4596,4.4596,4.5258,2.0841,2.1166,2.1435,2.0929,2.0942,2.1027,2.0833,2.0942,2.1027,2.0833,2.0802,2.0802,2.0802,2.0992,2.1387,2.2099,2.2105,2.2384,0.0,0.0,0.0,0.0,0.0,0.0,0.0,0.0,0.0,0.0,0.0,0.0,0.0,3.3309,3.3309,3.3309,3.3216,3.3096,3.2964,3.2827,3.2646,3.2482,3.3072,3.3895,3.4925,3.5523,0.0,0.0,0.0,0.0,0.0,3.7089,3.6983,3.6908,3.6969,3.7105,3.7298,3.7641,3.7889,3.8089,3.8321,3.8391,3.8391,3.8391,3.8391,3.8391,3.8391,3.8391,3.8391,3.8391,3.8391,3.8434,3.8614,3.8655,3.8791,3.9339,3.9568,4.0015,4.1133,4.1498,4.184,4.2604,4.2756,4.2756,4.2756,4.2756,4.2756,4.2756,4.2786,4.2876,4.3039,4.3287,4.3496,4.3662,4.3796,4.3447,4.2387,4.2804,4.3126,4.3126,4.3579,4.3864,4.3864,4.3864,4.3989,4.4257,4.4257,4.4364,4.4614,4.5149,4.5713,4.6248,4.6813,4.7267,2.0207,2.0862,2.1345,2.0921,2.0933,2.1032,2.0841,2.0982,2.1099,2.0849,2.0605,2.0494,2.0747,2.0802,2.1023,2.1706,2.1806,2.2216,0.0,0.0,0.0,0.0,0.0,0.0,0.0,0.0,0.0,0.0,0.0,0.0,0.0,0.0,3.3309,3.3309,3.3216,3.3099,3.2897,3.2773,3.2759,3.2895,3.344,3.4294,3.54,3.5939,0.0,0.0,0.0,0.0,0.0,3.7239,3.715,3.7075,3.7135,3.7194,3.7329,3.7744,3.7932,3.8046,3.8307,3.8391,3.8391,3.8391,3.8391,3.8391,3.8391,3.8391,3.8391,3.8391,3.8391,3.8391,3.8391,3.8391,3.8555,3.9177,3.9473,3.9937,4.1193,4.184,4.2373,4.3009,4.3341,4.3522,4.3522,4.3485,4.3449,4.3449,4.348,4.3536,4.3637,4.3945,4.4175,4.4255,4.446,4.4203,4.3251,4.3633,4.3918,4.3918,4.4346,4.4614,4.4614,4.4614,4.4738,4.506,4.506,4.5202,4.5506,4.6302,4.6955,4.7473,4.8258,4.8633,0.0,1.9992,2.0694,2.0698,2.1159,2.1478,2.0912,2.1331,0.0,2.0945,2.0273,2.0012,2.0731,2.0794,2.0951,2.1675,2.179,0.0,0.0,0.0,0.0,0.0,0.0,0.0,0.0,0.0,0.0,0.0,0.0,0.0,0.0,0.0,3.3309,3.3309,3.3309,3.3176,3.291,3.2883,3.3172,3.3713,3.376,3.463,3.6202,3.6263,0.0,0.0,0.0,0.0,0.0,3.73,3.7224,3.7239,3.7358,3.7402,3.7461,3.7992,3.818,3.8193,3.8349,3.8391,3.8391,3.8391,3.8391,3.8391,3.8391,3.8391,3.8391,3.8391,3.8391,3.8408,3.8456,3.8472,3.8665,3.9435,4.001,4.0497,4.097,4.2031,4.2839,4.2635,4.309,4.3523,4.358,4.3435,4.333,4.337,4.3387,4.3374,4.337,4.377,4.4038,4.405,4.4475,4.4741,4.4741,4.471,4.4703,4.4703,4.4738,4.4774,4.4774,4.4774,4.5113,4.5873,4.5945,4.6337,4.7098,4.7883,4.8288,4.8306,4.9049,4.9382,1.7877,0.0,2.0434,1.9938,2.0305,2.079,0.0,2.0887,0.0,0.0,0.0,2.0178,2.141,2.0682,2.0475,2.2316,2.1567,0.0,0.0,0.0,0.0,0.0,0.0,0.0,0.0,0.0,0.0,0.0,0.0,0.0,0.0,0.0,3.3309,3.3309,3.3309,3.3216,3.3058,3.28,3.3072,3.3867,3.4367,3.5168,3.6217,3.6901,0.0,0.0,0.0,0.0,3.7495,3.745,3.7435,3.7435,3.7464,3.7449,3.7447,3.7831,3.7976,3.8017,3.8307,3.8391,3.8391,3.8391,3.8391,3.8391,3.8391,3.8391,3.8391,3.8391,3.8391,3.8521,3.9102,3.9248,3.9525,4.0623,4.097,4.1363,4.2487,4.332,4.4019,4.4521,4.4664,4.4853,4.5319,4.4886,4.4662,4.5123,4.5108,4.507,4.5185,4.5276,4.5384,4.5495,4.5888,4.6134,4.6134,4.5744,4.5517,4.5517,4.6105,4.6438,4.6438,4.6438,4.6516,4.6723,4.7312,4.7734,4.7931,4.8675,4.9038,4.9055,4.984,5.0215,1.6974,1.868,2.0407,2.0052,2.0496,2.1028,2.1174,0.0,0.0,0.0,0.0,2.0233,2.164,2.0935,0.0,2.2488,2.2337,0.0,0.0,0.0,0.0,0.0,0.0,0.0,0.0,0.0,0.0,0.0,0.0,0.0,0.0,0.0,3.3309,3.3309,3.3309,3.3243,3.3096,3.2854,3.3325,3.4505,3.478,3.557,3.6808,3.7276,0.0,0.0,0.0,0.0,3.7495,3.7495,3.7495,3.7495,3.7495,3.7479,3.7478,3.773,3.7742,3.7726,3.8164,3.8351,3.8391,3.8391,3.8391,3.8391,3.8391,3.8391,3.8391,3.8391,3.8634,3.9005,3.9394,3.9734,4.0211,4.1187,4.1439,4.1782,4.3029,4.3812,4.4477,4.5089,4.5311,4.5526,4.5852,4.5477,4.5241,4.5563,4.5537,4.5541,4.5619,4.5727,4.5875,4.6075,4.6728,4.7198,4.7317,4.738,4.7093,4.6391,4.6759,4.717,4.7526,4.7544,4.7705,4.805,4.8478,4.8693,4.871,4.9483,4.9858,4.9876,5.0691,5.1048,1.6676,1.857,2.0455,2.0246,2.09,2.159,2.1569,0.0,0.0,0.0,0.0,0.0,0.0,0.0,0.0,0.0,0.0,0.0,0.0,0.0,0.0,0.0,0.0,0.0,0.0,0.0,0.0,0.0,0.0,0.0,0.0,0.0,0.0,3.3309,3.3309,3.3256,3.3123,3.2978,3.368,3.5241,3.5011,3.5817,3.7495,3.7495,3.7495,0.0,0.0,0.0,3.7495,3.7495,3.7495,3.7495,3.7495,3.751,3.7538,3.7656,3.7596,3.7506,3.799,3.8264,3.8391,3.8391,3.8391,3.8424,3.8537,3.857,3.8586,3.8683,3.9102,3.9539,3.975,4.0236,4.0851,4.158,4.1819,4.2148,4.3114,4.3966,4.4657,4.5041,4.5399,4.5699,4.5752,4.549,4.5285,4.5393,4.5527,4.5609,4.5609,4.5927,4.6249,4.6517,4.7393,4.8043,4.8295,4.8919,4.8734,4.7426,4.7354,4.7669,4.833,4.8365,4.8657,4.9287,4.943,4.9471,4.9501,5.0286,5.0691,5.0709,5.1512,5.1881,1.7883,1.931,2.023,1.9085,2.0215,2.1481,2.0974,0.0,0.0,0.0,0.0,0.0,0.0,0.0,0.0,0.0,0.0,0.0,0.0,0.0,0.0,0.0,0.0,0.0,0.0,0.0,0.0,0.0,0.0,0.0,0.0,0.0,0.0,3.3295,3.3309,3.3295,3.3269,3.3032,3.3721,3.5366,3.5052,3.5817,3.7495,3.7495,3.7495,0.0,0.0,3.7495,3.7495,3.7495,3.7495,3.7495,3.7495,3.7569,3.7671,3.7686,3.7686,3.767,3.7887,3.8148,3.8391,3.8391,3.8391,3.8521,3.9135,3.9329,3.9458,4.0025,3.9847,3.9766,4.098,4.1353,4.1597,4.2278,4.284,4.3261,4.3436,4.4361,4.5144,4.5108,4.5061,4.5147,4.5563,4.507,4.4815,4.532,4.6081,4.6589,4.6589,4.726,4.7832,4.8032,4.8365,4.865,4.8847,4.9131,4.9198,4.8966,4.8948,4.9002,4.9127,4.9127,4.918,4.9293,4.9965,5.0334,5.0334,5.1119,5.1524,5.1542,5.2345,5.2733,1.726,1.8694,1.9858,1.9194,2.0819,2.2493,2.2213,0.0,0.0,0.0,0.0,0.0,0.0,0.0,0.0,0.0,0.0,0.0,0.0,0.0,0.0,0.0,0.0,0.0,0.0,0.0,0.0,0.0,0.0,0.0,0.0,0.0,0.0,0.0,3.3309,3.3309,3.3309,3.3471,3.4162,3.5408,3.5052,3.5817,3.7495,3.7495,3.7495,3.7495,0.0,3.7495,3.7495,3.7495,3.7495,3.7495,3.7495,3.7539,3.7568,3.7391,3.7479,3.7686,3.7654,3.796,3.8391,3.8391,3.8391,3.8537,3.928,3.9491,3.9718,4.0787,4.0868,4.0771,4.1434,4.1872,4.2229,4.2522,4.2804,4.32,4.385,4.4418,4.497,4.5485,4.5487,4.558,4.6248,4.6014,4.6009,4.6754,4.7237,4.7499,4.7499,4.7847,4.8194,4.8435,4.8993,4.944,4.9682,5.0241,5.0233,4.9359,4.9715,4.9947,4.9947,5.037,5.0602,5.0602,5.0959,5.1155,5.1155,5.197,5.2345,5.2363,5.3135,5.3492,1.7145,1.8387,1.9656,1.9895,2.1468,2.3004,2.314,0.0,0.0,0.0,0.0,0.0,0.0,0.0,0.0,0.0,0.0,0.0,0.0,0.0,0.0,0.0,0.0,0.0,0.0,0.0,0.0,0.0,0.0,0.0,0.0,0.0,0.0,0.0,3.3309,3.3309,3.3309,3.3653,3.436,3.5394,3.5281,3.6018,3.7495,3.7495,3.7495,3.7495,3.7495,3.7495,3.7495,3.7495,3.7495,3.7495,3.7495,3.748,3.7405,3.718,3.7345,3.7686,3.755,3.7902,3.8391,3.8391,3.8521,3.878,3.9523,3.9847,4.0251,4.1483,4.184,4.184,4.184,4.2229,4.2602,4.2602,4.2711,4.3065,4.3994,4.4308,4.4721,4.5845,4.5992,4.6196,4.7108,4.7182,4.7333,4.8,4.8297,4.8428,4.8428,4.8629,4.8828,4.9008,4.9679,5.0227,5.05,5.1183,5.111,4.9947,5.0429,5.078,5.078,5.1547,5.1988,5.1988,5.2154,5.2243,5.2243,5.285,5.3166,5.3184,5.3925,5.4282,1.8983,1.9444,1.9874,2.0978,2.1501,0.0,2.2353,2.2552,0.0,0.0,0.0,0.0,0.0,0.0,0.0,0.0,0.0,0.0,0.0,0.0,0.0,0.0,0.0,0.0,0.0,0.0,0.0,0.0,0.0,0.0,0.0,0.0,0.0,0.0,0.0,3.3309,3.3309,3.3092,3.3795,3.5408,3.5883,3.659,3.7495,3.7495,3.7495,3.7495,3.7495,3.7495,3.7495,3.7495,3.7495,3.7495,3.7495,3.739,3.7239,3.7328,3.7507,3.7715,3.7829,3.8103,3.8391,3.8391,3.8859,3.9539,4.022,4.09,4.1597,4.2327,4.2522,4.2522,4.2522,4.2554,4.2602,4.2602,4.3034,4.3468,4.3556,4.3992,4.4763,4.6025,4.6275,4.6638,4.7807,4.8013,4.8017,4.8083,4.8844,4.9392,4.9392,5.0165,5.0684,5.0631,5.068,5.0867,5.121,5.1302,5.1388,5.1517,5.1583,5.1613,5.1613,5.2381,5.2822,5.2822,5.3492,5.3823,5.3823,5.3876,5.3912,5.393,5.4746,5.5103,1.8153,1.8912,1.978,2.0529,2.1405,0.0,0.0,2.3402,0.0,0.0,0.0,0.0,0.0,0.0,0.0,0.0,0.0,0.0,0.0,0.0,0.0,0.0,0.0,0.0,0.0,0.0,0.0,0.0,0.0,0.0,0.0,0.0,0.0,0.0,0.0,3.3309,3.3309,3.3531,3.4239,3.5394,3.539,3.6125,3.7495,3.7495,3.7495,3.7495,3.7495,3.7495,3.7495,3.7495,3.7495,3.7495,3.7495,3.7315,3.7075,3.7135,3.7195,3.7301,3.7506,3.7813,3.8118,3.8335,3.8908,3.962,4.0301,4.1013,4.1742,4.2408,4.2602,4.2602,4.2602,4.2602,4.2602,4.2602,4.2773,4.3164,4.4003,4.4679,4.5521,4.6744,4.7299,4.7838,4.8809,4.8976,4.9177,4.9747,5.0134,5.0322,5.0192,5.0482,5.0675,5.0564,5.063,5.1,5.1776,5.1856,5.2188,5.2949,5.2651,5.2452,5.2452,5.3171,5.3581,5.3581,5.3854,5.4001,5.4001,5.4496,5.4746,5.4764,5.558,5.5955,1.7878,1.8708,1.9726,0.0,0.0,0.0,2.3415,2.3997,0.0,0.0,0.0,0.0,0.0,0.0,0.0,0.0,0.0,0.0,0.0,0.0,0.0,0.0,0.0,0.0,0.0,0.0,0.0,0.0,0.0,0.0,0.0,0.0,0.0,0.0,0.0,3.3309,3.3309,3.3633,3.4325,3.5408,3.5109,3.5875,3.7495,3.7495,3.7495,3.7495,3.7495,3.7495,3.7495,3.7495,3.7495,3.7495,3.7435,3.724,3.7015,3.706,3.7045,3.7045,3.7433,3.7711,3.799,3.8565,3.9232,3.9944,4.0641,4.1354,4.2002,4.2457,4.2602,4.2602,4.2602,4.2602,4.2602,4.2602,4.278,4.3261,4.4385,4.5165,4.6099,4.7557,4.8173,4.8773,4.9778,4.9945,5.0134,5.0718,5.0819,5.0747,5.0561,5.0533,5.0596,5.0763,5.0802,5.1266,5.242,5.2541,5.2938,5.3744,5.3699,5.3505,5.3273,5.3979,5.4389,5.4389,5.4639,5.4764,5.4764,5.5299,5.558,5.5598,5.6133,5.6401,1.8606,1.9084,1.9743,0.0,0.0,0.0,0.0,0.0,0.0,0.0,0.0,0.0,0.0,0.0,0.0,0.0,0.0,0.0,0.0,0.0,0.0,0.0,0.0,0.0,0.0,0.0,0.0,0.0,0.0,0.0,0.0,0.0,0.0,0.0,0.0,0.0,3.3309,3.3163,3.3869,3.5408,3.5254,3.6008,3.7495,3.7495,3.7495,3.7495,3.7495,3.7495,3.7495,3.7495,3.7495,3.748,3.7269,3.7119,3.7014,3.715,3.7104,3.7075,3.7698,3.79,3.8072,3.9147,3.9944,4.0641,4.1385,4.2067,4.2602,4.2602,4.2602,4.2602,4.2602,4.2602,4.2619,4.2619,4.3168,4.3894,4.458,4.5296,4.641,4.8426,4.8822,4.9264,5.0651,5.0904,5.0832,5.063,5.0598,5.0547,5.0429,5.0401,5.0728,5.1529,5.1434,5.183,5.3106,5.3327,5.3535,5.3797,5.4701,5.4853,5.4037,5.4781,5.521,5.521,5.599,5.6401,5.6401,5.6401,5.6401,5.6401,5.6401,5.6401,1.856,1.9022,0.0,0.0,0.0,0.0,0.0,0.0,0.0,0.0,0.0,0.0,0.0,0.0,0.0,0.0,0.0,0.0,0.0,0.0,0.0,0.0,0.0,0.0,0.0,0.0,0.0,0.0,0.0,0.0,0.0,0.0,0.0,0.0,3.3309,3.3309,3.3309,3.3163,3.3869,3.5408,3.5254,3.6008,3.7495,3.7495,3.7495,3.7495,3.7495,3.7495,3.7495,3.7344,3.73,3.7269,3.7224,3.7028,3.68,3.6984,3.6877,3.6739,3.7343,3.755,3.7749,3.9074,3.9944,4.0641,4.1385,4.2067,4.2602,4.2602,4.2602,4.2602,4.2602,4.299,4.3379,4.3379,4.3541,4.4155,4.582,4.6732,4.768,4.9275,4.9948,5.0416,5.0824,5.0774,5.0657,5.0598,5.0519,5.0648,5.1181,5.1115,5.1379,5.2277,5.2317,5.2718,5.3734,5.3948,5.4391,5.5221,5.5672,5.5578,5.4871,5.5616,5.6044,5.6044,5.6276,5.6401,5.6401,5.6401,5.6401,5.6401,5.6401,5.6401,1.8732,1.9404,0.0,0.0,0.0,0.0,0.0,0.0,0.0,0.0,0.0,0.0,0.0,0.0,0.0,0.0,0.0,0.0,0.0,0.0,0.0,0.0,0.0,0.0,0.0,0.0,0.0,0.0,0.0,0.0,0.0,0.0,0.0,0.0,3.3136,3.3163,3.3216,3.3136,3.3869,3.5408,3.5324,3.605,3.7495,3.7495,3.7495,3.7495,3.7495,3.745,3.7359,3.7254,3.7164,3.7119,3.7119,3.6953,3.6708,3.6846,3.6724,3.6585,3.7193,3.7372,3.7621,3.9336,4.0127,4.0632,4.1679,4.2278,4.2602,4.2602,4.2602,4.2602,4.2602,4.3152,4.3703,4.3703,4.414,4.4952,4.6465,4.7558,4.8493,4.9344,5.0268,5.0809,5.0471,5.0519,5.0557,5.0464,5.063,5.1074,5.1929,5.1926,5.2221,5.3163,5.3265,5.3637,5.4586,5.477,5.5123,5.5786,5.6067,5.6025,5.561,5.6106,5.6401,5.6401,5.6401,5.6401,5.6401,5.6401,5.6401,5.6401,5.6401,5.6401,1.8944,0.0,0.0,0.0,0.0,0.0,0.0,0.0,0.0,0.0,0.0,0.0,0.0,0.0,0.0,0.0,0.0,0.0,0.0,0.0,0.0,0.0,0.0,0.0,0.0,0.0,0.0,0.0,0.0,0.0,0.0,0.0,0.0,0.0,3.2897,3.2964,3.3085,3.3085,3.3826,0.0,3.5349,3.6075,3.7385,3.7463,3.7495,3.7495,3.7495,3.739,3.7209,3.7194,3.7089,3.6969,3.6969,3.6846,3.6677,3.6693,3.6631,3.6569,3.7178,3.7298,3.7564,3.9775,4.0393,4.0593,4.2135,4.2602,4.2602,4.2602,4.2602,4.2602,4.2602,4.3152,4.3719,4.3767,4.4819,4.6009,4.6746,4.7914,4.8852,4.896,4.9976,5.0582,4.9898,5.0239,5.0509,5.0332,5.0864,5.1682,5.2692,5.2826,5.318,5.4127,5.4229,5.4571,5.544,5.5622,5.5692,5.5692,5.5982,5.6169,5.6197,5.6332,5.6401,5.6401,5.6401,5.6401,5.6401,5.6401,5.6401,5.6401,5.6401,5.6401,1.8281,1.9186,0.0,0.0,0.0,0.0,0.0,0.0,0.0,0.0,0.0,0.0,0.0,0.0,0.0,0.0,0.0,0.0,0.0,0.0,0.0,0.0,0.0,0.0,0.0,0.0,0.0,0.0,0.0,0.0,0.0,0.0,0.0,3.2897,3.2897,3.291,3.2937,3.2937,3.3371,0.0,3.4916,3.568,3.6497,3.7182,3.7495,3.7495,3.7495,3.739,3.7194,3.709,3.6923,3.6754,3.6754,3.6662,3.6554,3.6662,3.6631,3.6569,3.7074,3.7223,3.7549,3.9672,4.0319,4.0593,4.2135,4.2602,4.2602,4.2602,4.2602,4.2602,4.2602,4.3152,4.3848,4.4431,4.5208,4.6139,4.7374,4.7899,4.8415,4.9474,4.9919,5.0179,5.0363,5.0422,5.0592,5.0997,5.1194,5.1917,5.3585,5.3789,5.4162,5.5115,5.5203,5.527,5.5475,5.5622,5.5692,5.5692,5.5782,5.5925,5.6197,5.6332,5.6401,5.6401,5.6401,5.6401,5.6401,5.6401,5.6401,5.6401,5.6401,5.6401,1.8346,0.0,0.0,0.0,0.0,0.0,0.0,0.0,0.0,0.0,0.0,0.0,0.0,0.0,0.0,0.0,0.0,0.0,0.0,0.0,0.0,0.0,0.0,0.0,0.0,0.0,0.0,0.0,0.0,0.0,0.0,3.2509,3.2551,3.2662,3.2662,3.2689,3.2759,3.2759,3.3127,3.3909,3.4696,3.5644,3.6705,3.7246,3.7495,3.7495,3.7495,3.7345,3.7105,3.703,3.6847,3.6616,3.6677,3.6616,3.6523,3.6647,3.6631,3.6569,3.7043,3.7429,3.8021,3.9739,4.053,4.1059,4.2248,4.2602,4.2602,4.2602,4.2602,4.2602,4.2602,4.3411,4.4318,4.4706,4.5305,4.6103,4.719,4.7917,4.8494,4.8868,4.9713,5.0324,5.0197,5.0612,5.1355,5.2483,5.264,5.3163,5.4589,5.4758,5.4963,5.5458,5.5493,5.5493,5.5493,5.5549,5.5561,5.547,5.5546,5.5709,5.5954,5.6092,5.6231,5.6401,5.6401,5.6401,5.6401,5.6401,5.6401,5.6401,5.6401,5.6401,1.8037,0.0,0.0,0.0,0.0,0.0,0.0,0.0,0.0,0.0,0.0,0.0,0.0,0.0,0.0,0.0,0.0,0.0,0.0,0.0,0.0,0.0,0.0,0.0,0.0,0.0,0.0,0.0,0.0,0.0,3.2398,3.2398,3.2398,3.2398,3.2398,3.2453,3.2551,3.2564,3.2941,3.3652,3.4476,3.5608,3.6991,3.7297,3.748,3.7495,3.745,3.7286,3.7,3.6954,3.677,3.6507,3.6616,3.66,3.6507,3.6616,3.66,3.6554,3.6968,3.7634,3.851,3.979,4.0741,4.1543,4.2361,4.2602,4.2602,4.2602,4.2602,4.2602,4.2602,4.3605,4.4642,4.4755,4.5305,4.6002,4.6748,4.7868,4.8604,4.816,4.9698,5.0847,5.0175,5.102,5.2317,5.3871,5.4092,5.4434,5.5373,5.5493,5.5493,5.5493,5.5493,5.5493,5.5463,5.5463,5.5371,5.5169,5.5312,5.5478,5.5677,5.5775,5.6003,5.6401,5.6401,5.6401,5.6401,5.6401,5.6401,5.6401,5.6401,5.6401,0.0,0.0,0.0,0.0,0.0,0.0,0.0,0.0,0.0,0.0,0.0,0.0,0.0,0.0,0.0,0.0,0.0,0.0,0.0,0.0,0.0,0.0,0.0,0.0,0.0,0.0,0.0,0.0,0.0,0.0,3.2398,3.2398,3.2398,3.2398,3.2398,3.2411,3.2425,3.2425,3.2485,3.2621,3.4044,3.5228,3.617,3.6913,3.7344,3.7495,3.7315,3.715,3.7,3.6816,3.6647,3.6507,3.6523,3.6523,3.6507,3.6523,3.6523,3.6538,3.6708,3.7435,3.8464,3.953,4.0556,4.1543,4.2361,4.2602,4.2602,4.2602,4.2602,4.2602,4.2602,4.3217,4.401,4.4642,4.5305,4.6002,4.6748,4.7489,4.8192,4.8666,5.0334,5.1647,5.1535,5.2091,5.2907,5.3941,5.4092,5.4434,5.5373,5.5493,5.5493,5.5493,5.5493,5.5431,5.5244,5.5229,5.5187,5.5053,5.4932,5.5148,5.5695,5.5604,5.5822,5.6401,5.6401,5.6401,5.6401,5.6401,5.6401,5.6401,5.6401,5.6401,1.6386,0.0,0.0,0.0,0.0,0.0,0.0,0.0,0.0,0.0,0.0,0.0,0.0,0.0,0.0,0.0,0.0,0.0,0.0,0.0,0.0,0.0,0.0,0.0,0.0,0.0,0.0,0.0,0.0,3.2398,3.2398,3.2398,3.2398,3.2398,3.2398,3.2398,3.2398,3.2398,3.2582,3.2967,3.4126,3.5094,3.5867,3.6686,3.718,3.7329,3.7239,3.7119,3.6969,3.677,3.6616,3.6507,3.6507,3.6507,3.6507,3.6507,3.6507,3.6523,3.6647,3.7716,3.9108,3.9625,4.0828,4.2136,4.249,4.2602,4.2602,4.2602,4.2602,4.2699,4.312,4.3751,4.4496,4.5192,4.5888,4.6607,4.7323,4.7999,4.8744,4.9681,5.0918,5.1927,5.235,5.3064,5.3894,5.4755,5.4878,5.503,5.5458,5.5493,5.5493,5.5493,5.5401,5.5291,5.5214,5.5124,5.502,5.4886,5.4826,5.5042,5.5561,5.5531,5.5793,5.6401,5.6401,5.6401,5.6401,5.6401,5.6401,5.6401,5.6401,5.6401,0.0,0.0,0.0,0.0,0.0,0.0,0.0,0.0,0.0,0.0,0.0,0.0,0.0,0.0,0.0,0.0,0.0,0.0,0.0,0.0,0.0,0.0,0.0,0.0,0.0,0.0,0.0,0.0,0.0,3.2398,3.2398,3.2398,3.2398,3.2398,3.2398,3.2398,3.2398,3.2398,3.2644,3.3152,3.3989,3.4727,3.5424,3.6287,3.6812,3.7074,3.7074,3.7014,3.6908,3.6739,3.6585,3.6507,3.6507,3.6507,3.6507,3.6507,3.6507,3.6523,3.6647,3.7966,3.9628,3.9768,4.1067,4.2602,4.2602,4.2602,4.2602,4.2602,4.2602,4.2764,4.3508,4.4253,4.4965,4.5646,4.6495,4.7321,4.7967,4.862,4.9394,5.0359,5.1384,5.2241,5.2799,5.385,5.4823,5.5405,5.5493,5.5493,5.5493,5.5493,5.5478,5.5431,5.5291,5.5169,5.5094,5.5007,5.4886,5.4733,5.4717,5.4948,5.5472,5.5502,5.5793,5.6401,5.6401,5.6401,5.6401,5.6401,5.6401,5.6401,5.6401,5.6508,0.0,0.0,0.0,0.0,0.0,0.0,0.0,0.0,0.0,0.0,0.0,0.0,0.0,0.0,0.0,0.0,0.0,0.0,0.0,0.0,0.0,0.0,0.0,0.0,0.0,0.0,0.0,0.0,0.0,3.2398,3.2398,3.2398,3.2398,3.2398,3.2398,3.2398,3.2398,3.2398,3.2427,3.2459,3.3151,3.3843,3.4596,3.5408,3.6134,3.6739,3.6739,3.6723,3.6708,3.6569,3.6507,3.6507,3.6507,3.6507,3.6507,3.6507,3.6507,3.6523,3.6647,3.7966,3.9628,3.9768,4.1067,4.2602,4.2602,4.2602,4.2602,4.2602,4.2602,4.2764,4.3508,4.4253,4.4965,4.5646,4.6848,4.7999,4.8528,4.9197,4.9808,5.0321,5.1741,5.2846,5.2888,5.4302,5.5458,5.5493,5.5493,5.5493,5.5493,5.5493,5.5431,5.5229,5.5214,5.5096,5.4842,5.4811,5.4733,5.4527,5.4512,5.4807,5.5472,5.5502,5.5793,5.6401,5.6401,5.6401,5.6401,5.6401,5.6401,5.6401,5.6401,5.6807,0.0,0.0,0.0,0.0,0.0,0.0,0.0,0.0,0.0,0.0,0.0,0.0,0.0,0.0,0.0,0.0,0.0,0.0,0.0,0.0,0.0,0.0,0.0,0.0,0.0,0.0,0.0,0.0,0.0,0.0,3.1734,3.1765,3.1965,3.2396,3.2398,3.2398,3.2398,3.2398,3.2398,3.2398,3.3075,3.3797,3.452,3.5243,3.5937,3.6569,3.6569,3.6616,3.6693,3.6554,3.6507,3.6507,3.6507,3.6507,3.6507,3.6507,3.6507,3.6523,3.6647,3.7966,3.9628,3.9768,4.1067,4.2602,4.2602,4.2602,4.2602,4.2602,4.2942,4.3476,4.4221,4.4917,4.5613,4.6326,4.7556,4.8416,4.7967,4.9072,5.0354,5.1042,5.2039,5.2962,5.356,5.4695,5.5493,5.5493,5.5493,5.5493,5.5493,5.5401,5.5291,5.5214,5.5053,5.4902,5.4813,5.4686,5.4575,5.4512,5.4496,5.4698,5.5159,5.5189,5.5366,5.5822,5.5822,5.6007,5.6401,5.6401,5.6401,5.6401,5.6932,5.7324,0.0,0.0,0.0,0.0,0.0,0.0,0.0,0.0,0.0,0.0,0.0,0.0,0.0,0.0,0.0,0.0,0.0,0.0,0.0,0.0,0.0,0.0,0.0,0.0,0.0,0.0,0.0,0.0,0.0,0.0,3.1043,3.1059,3.1366,3.2028,3.2275,3.2398,3.2398,3.2398,3.2398,3.2411,3.2844,3.3443,3.4151,3.4844,3.5522,3.6184,3.6399,3.6554,3.6631,3.6538,3.6507,3.6507,3.6507,3.6507,3.6507,3.6507,3.6507,3.6538,3.6739,3.8028,3.9628,3.9845,4.1129,4.2602,4.2602,4.2602,4.2602,4.2602,4.3136,4.3864,4.4609,4.5484,4.6328,4.697,4.7819,4.8303,4.7737,4.8745,4.9919,5.0579,5.1592,5.2628,5.3475,5.4672,5.5493,5.5493,5.5493,5.5478,5.5416,5.5291,5.5169,5.5081,5.4902,5.4764,5.4702,5.4575,5.4496,5.4496,5.4496,5.4636,5.4992,5.5007,5.5159,5.5487,5.5502,5.5706,5.6092,5.6189,5.6373,5.6654,5.7301,5.7878,0.0,0.0,0.0,0.0,0.0,0.0,0.0,0.0,0.0,0.0,0.0,0.0,0.0,0.0,0.0,0.0,0.0,0.0,0.0,0.0,0.0,0.0,0.0,0.0,0.0,0.0,0.0,0.0,0.0,3.034,3.0371,3.0386,3.0707,3.138,3.2026,3.2381,3.2398,3.2398,3.2398,3.2398,3.2398,3.2752,3.3429,3.4167,3.4874,3.5537,3.6215,3.6507,3.6507,3.6507,3.6507,3.6507,3.6507,3.6507,3.6507,3.6507,3.6507,3.6554,3.6877,3.8151,3.9659,3.9984,4.1223,4.2602,4.2602,4.2602,4.2602,4.2602,4.3152,4.3913,4.4658,4.589,4.7032,4.7473,4.7589,4.7688,4.7982,4.8208,4.848,4.887,5.046,5.1943,5.2622,5.428,5.5493,5.5493,5.5493,5.5431,5.5229,5.5199,5.5096,5.4826,5.478,5.4717,5.4512,5.4496,5.4496,5.4496,5.4496,5.4653,5.4976,5.4992,5.5144,5.5458,5.5472,5.5472,5.5472,5.5746,5.6311,5.7101,5.7487,5.847,1.5735,0.0,0.0,0.0,0.0,0.0,0.0,0.0,0.0,0.0,0.0,0.0,0.0,0.0,0.0,0.0,0.0,0.0,0.0,0.0,0.0,0.0,0.0,0.0,0.0,0.0,0.0,0.0,2.8845,2.9169,2.9661,3.014,3.0707,3.138,3.158,3.1919,3.2398,3.2398,3.2398,3.2398,3.2398,3.2752,3.3429,3.4167,3.4874,3.5537,3.6215,3.6507,3.6507,3.6507,3.6507,3.6507,3.6507,3.6507,3.6507,3.6507,3.6569,3.6677,3.6923,3.8197,3.9783,4.0015,4.1223,4.2602,4.2602,4.2602,4.2602,4.2602,4.3508,4.4771,4.6002,4.6976,4.7522,4.7169,4.7355,4.744,4.6914,4.7144,4.7952,4.9599,5.1259,5.2699,5.3558,5.4707,5.5493,5.5493,5.5493,5.5431,5.5229,5.5126,5.4992,5.4811,5.467,5.4559,5.4512,5.4496,5.4496,5.4496,5.4496,5.4543,5.462,5.4636,5.4667,5.4776,5.4776,5.4776,5.4776,5.5339,5.6123,5.7137,5.8594,5.9809,0.0,0.0,0.0,0.0,0.0,0.0,2.0886,2.102,0.0,0.0,0.0,0.0,0.0,0.0,0.0,0.0,0.0,0.0,0.0,0.0,0.0,0.0,0.0,0.0,0.0,0.0,0.0,2.8396,2.8411,2.8569,2.8953,2.9615,3.0153,3.0551,3.1118,3.1595,3.198,3.2273,3.2398,3.2398,3.2398,3.2598,3.3013,3.4043,3.472,3.5137,3.6091,3.6507,3.6507,3.6507,3.6507,3.6507,3.6507,3.6507,3.6507,3.6507,3.6585,3.6723,3.6938,3.8228,3.9829,4.003,4.1223,4.2602,4.2602,4.2602,4.2602,4.2602,4.3654,4.5111,4.6537,4.7185,4.7371,4.6877,4.6913,4.6896,4.6349,4.7137,4.8357,4.9596,5.1162,5.2663,5.3902,5.4878,5.5493,5.5493,5.5493,5.5419,5.5156,5.5035,5.4915,5.4702,5.4575,5.4496,5.4496,5.4496,5.4496,5.4496,5.4496,5.4496,5.4496,5.4496,5.4496,5.4496,5.4496,5.4651,5.4961,5.5475,5.6553,5.8093,5.9532,6.0532,0.0,0.0,0.0,0.0,0.0,0.0,2.2039,2.1247,2.063,0.0,0.0,0.0,0.0,0.0,0.0,0.0,0.0,0.0,0.0,0.0,0.0,0.0,0.0,0.0,0.0,2.8597,2.8541,2.842,2.8411,2.8411,2.8411,2.8969,2.9322,2.9399,3.0551,3.1257,3.1395,3.1996,3.2334,3.2398,3.2398,3.2398,3.2442,3.3766,3.4428,3.4582,3.5845,3.643,3.6507,3.6507,3.6507,3.6507,3.6507,3.6507,3.6507,3.6538,3.6631,3.6754,3.6968,3.8258,3.986,4.003,4.1223,4.2602,4.2602,4.2602,4.2635,4.2797,4.3784,4.5111,4.6537,4.6893,4.6842,4.6686,4.6458,4.6261,4.615,4.7748,4.9223,4.9347,5.0772,5.242,5.3854,5.4878,5.5493,5.5493,5.5493,5.5389,5.5037,5.5007,5.4869,5.4543,5.4496,5.4496,5.4496,5.4496,5.4496,5.4496,5.4496,5.4496,5.4496,5.4496,5.4496,5.4496,5.4565,5.4978,5.5737,5.619,5.7405,5.9378,6.0253,6.0826,0.0,0.0,0.0,0.0,0.0,0.0,1.9155,1.9163,1.9416,0.0,0.0,0.0,0.0,0.0,0.0,0.0,0.0,0.0,0.0,0.0,0.0,0.0,0.0,0.0,0.0,2.8597,2.8468,2.8537,2.8456,2.8411,2.8411,2.8522,2.883,2.9384,2.9645,3.0304,3.138,3.1534,3.1873,3.2398,3.2398,3.2398,3.2442,3.3229,3.3936,3.4551,3.5352,3.5999,3.6507,3.6507,3.6507,3.6507,3.6507,3.6507,3.6538,3.6801,3.6923,3.6984,3.7224,3.8532,4.0046,4.0092,4.1223,4.2602,4.2602,4.2602,4.2845,4.4043,4.4577,4.5111,4.6537,4.6893,4.6876,4.6842,4.6562,4.628,4.6261,4.7803,4.9418,5.0175,5.2114,5.3738,5.4053,5.4878,5.5493,5.5493,5.5493,5.5389,5.5037,5.5007,5.4869,5.4543,5.4496,5.4496,5.4496,5.4496,5.4496,5.4496,5.4496,5.4496,5.4496,5.4496,5.4496,5.4496,5.5082,5.5771,5.6564,5.7766,5.8581,5.9038,6.039,6.1034,0.0,0.0,0.0,2.1265,0.0,0.0,0.0,1.9732,1.9641,0.0,0.0,0.0,0.0,0.0,0.0,0.0,0.0,0.0,0.0,0.0,0.0,0.0,0.0,0.0,0.0,2.7915,2.8201,2.8566,2.8468,2.8411,2.8411,2.8411,2.8538,2.8892,2.923,2.9876,3.0889,3.1241,3.1734,3.2398,3.2398,3.2398,3.2413,3.309,3.3813,3.4536,3.5198,3.5876,3.6507,3.6507,3.6507,3.6507,3.6507,3.6507,3.6538,3.6877,3.7,3.7045,3.7314,3.8592,4.0092,4.0092,4.1223,4.2602,4.2602,4.2602,4.291,4.4383,4.4804,4.5111,4.6537,4.6893,4.6893,4.6893,4.6597,4.6404,4.6772,4.8452,5.0158,5.0984,5.3121,5.4801,5.4801,5.5204,5.5493,5.5493,5.5493,5.5389,5.5037,5.5007,5.4869,5.4543,5.4496,5.4496,5.4496,5.4496,5.4496,5.4496,5.4496,5.4496,5.4496,5.4496,5.4668,5.503,5.5822,5.6581,5.7357,5.8806,5.9492,5.9508,6.043,6.0944,0.0,0.0,0.0,0.0,0.0,2.116,0.0,0.0,0.0,2.2053,0.0,0.0,0.0,0.0,0.0,0.0,0.0,0.0,0.0,0.0,0.0,0.0,0.0,0.0,0.0,2.7032,2.772,2.8313,2.8268,2.8273,2.8396,2.8411,2.8411,2.8411,2.8922,2.9599,3.0386,3.0951,3.1611,3.2398,3.2398,3.2398,3.2427,3.2952,3.3689,3.4536,3.506,3.5768,3.6507,3.6507,3.6507,3.6507,3.6507,3.6538,3.6631,3.6969,3.7075,3.712,3.7403,3.8637,4.0092,4.0092,4.1223,4.2602,4.2602,4.2602,4.291,4.4383,4.4804,4.5111,4.6537,4.6893,4.6876,4.6842,4.6562,4.6476,4.7185,4.9061,5.0821,5.156,5.376,5.5493,5.5493,5.5493,5.5493,5.5493,5.5478,5.5341,5.5037,5.4976,5.4838,5.4527,5.4496,5.4496,5.4496,5.4496,5.4496,5.4496,5.4496,5.4496,5.4496,5.4649,5.4978,5.5582,5.6529,5.7305,5.7909,5.9366,6.0089,6.0105,6.0516,6.0838,0.0,0.0,0.0,0.0,2.3603,0.0,0.0,0.0,2.1682,2.0651,0.0,0.0,0.0,0.0,0.0,0.0,0.0,0.0,0.0,0.0,0.0,0.0,0.0,0.0,0.0,0.0,2.6893,2.7492,2.7515,2.7765,2.8365,2.8411,2.8411,2.8411,2.8461,2.9122,3.0386,3.0492,3.1153,3.2398,3.2398,3.2398,3.2398,3.2488,3.3243,3.4505,3.4582,3.5322,3.6507,3.6507,3.6507,3.6507,3.6507,3.6677,3.6984,3.7254,3.7343,3.7387,3.7728,3.8832,4.0092,4.0092,4.1223,4.2602,4.2602,4.2602,4.291,4.4383,4.4804,4.5111,4.6537,4.6893,4.6875,4.6686,4.6458,4.6441,4.7015,4.8945,5.0821,5.156,5.376,5.5493,5.5493,5.5493,5.5493,5.5493,5.5354,5.5187,5.5022,5.4886,5.4749,5.4527,5.4496,5.4496,5.4496,5.4496,5.4496,5.4496,5.4496,5.4496,5.4496,5.5134,5.5513,5.5599,5.703,5.7823,5.7909,5.9366,6.0089,6.0123,6.0762,6.1064,0.0,0.0,0.0,0.0,0.0,0.0,0.0,0.0,2.1956,0.0,0.0,0.0,0.0,0.0,0.0,0.0,0.0,0.0,0.0,0.0,0.0,0.0,0.0,0.0,0.0,0.0,0.0,0.0,0.0,2.7145,2.778,2.7827,2.7996,2.8396,2.8411,2.8821,2.9697,3.0176,3.0837,3.1719,3.2185,3.2398,3.2398,3.2398,3.3166,3.4505,3.4505,3.526,3.6507,3.6507,3.6507,3.6523,3.6708,3.6877,3.703,3.7299,3.7402,3.7447,3.7787,3.8862,4.0251,4.1223,4.2024,4.2602,4.2602,4.2602,4.291,4.4383,4.4804,4.5111,4.6537,4.6807,4.6687,4.6617,4.6687,4.7079,4.8249,4.9936,5.16,5.284,5.4408,5.5493,5.5493,5.5493,5.5493,5.5493,5.5339,5.5154,5.5022,5.4871,5.4717,5.4527,5.4496,5.4496,5.4496,5.4496,5.4496,5.4496,5.4496,5.4685,5.5116,5.5444,5.6013,5.6909,5.7581,5.8116,5.853,5.9592,6.0089,6.0123,6.0793,6.1093,2.4448,0.0,0.0,0.0,0.0,0.0,0.0,0.0,0.0,0.0,0.0,0.0,0.0,0.0,0.0,0.0,0.0,0.0,0.0,0.0,0.0,0.0,0.0,0.0,0.0,0.0,0.0,0.0,0.0,0.0,2.7504,2.728,2.7519,2.8369,2.8411,2.8658,2.9192,2.9997,3.0659,3.1211,3.202,3.2398,3.2398,3.2398,3.3166,3.4505,3.4505,3.526,3.6507,3.6507,3.6554,3.6662,3.6908,3.7105,3.727,3.7477,3.7535,3.7565,3.7816,3.8862,4.0378,4.2056,4.2602,4.2602,4.2602,4.2873,4.3405,4.4496,4.5065,4.5587,4.6637,4.679,4.6652,4.6546,4.686,4.7602,4.9125,5.0621,5.2173,5.3788,5.486,5.5493,5.5493,5.5493,5.5478,5.5431,5.5262,5.5096,5.4961,5.4809,5.467,5.4512,5.4496,5.4496,5.4496,5.4496,5.4496,5.4496,5.4496,5.4823,5.5565,5.5806,5.6547,5.7874,5.8116,5.8495,5.9081,5.9716,6.0041,6.0123,6.0793,6.1093,0.0,0.0,0.0,2.3695,0.0,0.0,0.0,0.0,2.4362,0.0,0.0,0.0,0.0,0.0,0.0,0.0,0.0,0.0,0.0,0.0,0.0,0.0,0.0,0.0,0.0,0.0,0.0,0.0,0.0,0.0,2.7857,2.7002,2.7038,2.8353,2.8411,2.8658,2.9192,2.9997,3.0659,3.1211,3.202,3.2398,3.2398,3.2398,3.3166,3.4505,3.4505,3.526,3.6507,3.6507,3.6677,3.7,3.7,3.7359,3.7871,3.7886,3.7887,3.789,3.7905,3.8862,4.0378,4.2056,4.2602,4.2602,4.2602,4.3557,4.4664,4.4773,4.5734,4.6747,4.687,4.691,4.679,4.6404,4.6859,4.7736,4.9027,5.0574,5.2173,5.3788,5.486,5.5493,5.5493,5.5493,5.5431,5.5229,5.5096,5.4963,5.4826,5.4622,5.4512,5.4496,5.4496,5.4496,5.4496,5.4496,5.4496,5.4496,5.4496,5.4823,5.5565,5.6357,5.7116,5.7892,5.8599,5.9064,5.9285,5.965,5.9911,6.0123,6.0793,6.1093,0.0,0.0,2.6547,2.5243,0.0,0.0,0.0,0.0,0.0,0.0,0.0,0.0,0.0,0.0,0.0,0.0,0.0,0.0,0.0,0.0,0.0,0.0,0.0,0.0,0.0,0.0,0.0,0.0,0.0,0.0,0.0,2.6224,2.6653,2.8088,2.7872,2.7949,2.8401,2.973,3.0403,3.0418,3.1764,3.2398,3.2398,3.2398,3.3166,3.4505,3.4505,3.538,3.6831,3.6831,3.6999,3.73,3.7507,3.7727,3.79,3.79,3.7902,3.8033,3.9022,3.9692,4.0378,4.2056,4.2602,4.2665,4.3064,4.3588,4.4231,4.5142,4.575,4.6272,4.6784,4.6702,4.6597,4.6945,4.7388,4.8314,5.0424,5.1653,5.2894,5.4679,5.527,5.5493,5.5493,5.5401,5.5277,5.5214,5.5081,5.4946,5.4811,5.4622,5.4496,5.4496,5.4496,5.4496,5.4496,5.4496,5.4496,5.4496,5.4961,5.5582,5.6357,5.7116,5.7874,5.8599,5.8994,5.9234,5.9302,5.9782,6.0041,6.0105,6.0651,6.0908,2.5022,2.6165,0.0,2.5571,2.5801,0.0,2.3833,0.0,0.0,0.0,0.0,0.0,0.0,0.0,0.0,0.0,0.0,0.0,0.0,1.9591,0.0,0.0,0.0,0.0,0.0,0.0,0.0,0.0,0.0,0.0,0.0,0.0,2.672,2.8103,2.828,2.8444,2.8596,3.0022,3.0588,3.0262,3.1709,3.2398,3.2398,3.2523,3.328,3.4519,3.4738,3.5647,3.7015,3.709,3.7314,3.7609,3.7828,3.7972,3.8075,3.8075,3.8004,3.8111,3.9596,4.0092,4.0378,4.2056,4.2758,4.3007,4.3436,4.4135,4.489,4.5551,4.6127,4.6582,4.6747,4.6598,4.6563,4.7151,4.7902,4.9071,5.1225,5.2494,5.3655,5.5203,5.5493,5.5478,5.5416,5.5291,5.5184,5.5139,5.5005,5.4871,5.4717,5.4575,5.4496,5.4496,5.4496,5.4496,5.4496,5.4496,5.4496,5.4496,5.5185,5.5961,5.6771,5.7512,5.8133,5.8599,5.9062,5.9197,5.8986,5.9659,5.9869,5.9604,5.9997,6.0197]},{"header":{"parameterUnit":"m.s-1","parameterCategory":1,"la1":30.6,"la2":29.2853,"lo1":-89.7004,"lo2":-87.6739,"dy":0.0162,"dx":0.0183,"nx":112,"ny":82,"refTime":"2024-03-26T12:00:00:Z","depth":0,"parameterNumber":3,"parameterNumberName":"V-component_of_WINDS"},"data":[0.0,0.0,0.0,0.0,0.0,0.0,0.0,0.0,0.0,0.0,0.0,0.0,0.0,0.0,0.0,0.0,0.0,0.0,0.0,0.0,0.0,0.0,0.0,0.0,0.0,0.0,0.0,0.0,0.0,0.0,0.0,0.0,0.0,0.0,0.0,0.0,0.0,0.0,0.0,0.0,0.0,0.0,0.0,0.0,0.0,0.0,0.0,0.0,0.0,0.0,0.0,0.0,0.0,0.0,0.0,0.0,0.0,0.0,0.0,0.0,0.0,0.0,0.0,0.0,0.0,0.0,0.0,0.0,0.0,0.0,0.0,0.0,0.0,0.0,0.0,0.0,0.0,0.0,0.0,0.0,0.0,0.0,0.0,0.0,0.0,0.0,0.0,0.0,0.0,0.0,0.0,0.5659,0.6112,0.6404,0.6404,0.6396,0.6192,0.5729,0.0,0.0,0.0,0.0,0.0,0.0,0.0,0.0,0.0,0.0,0.0,0.0,0.0,0.0,0.0,0.0,0.0,0.0,0.0,0.0,0.0,0.0,0.0,0.0,0.0,0.0,0.0,0.0,0.0,0.0,0.0,0.0,0.0,0.0,0.0,0.0,0.0,0.0,0.0,0.0,0.0,0.0,0.0,0.0,0.0,0.0,0.0,0.0,0.0,0.0,0.0,0.0,0.0,0.0,0.0,0.0,0.0,0.0,0.0,0.0,0.0,0.0,0.0,0.0,0.0,0.0,0.0,0.0,0.0,0.0,0.0,0.0,0.0,0.0,0.0,0.0,0.0,0.0,0.0,0.0,0.0,0.0,0.0,0.0,0.0,0.0,0.0,0.0,0.0,0.0,0.0,0.0,0.0,0.0,0.0,0.0,0.0,0.0,0.0,0.0,0.0,0.0,0.0,0.0,0.52,0.6022,0.6278,0.6404,0.6404,0.6395,0.6197,0.5734,0.0,0.0,0.0,0.0,0.0,0.0,0.0,0.0,0.0,0.0,0.0,0.0,0.0,0.0,0.0,0.0,0.0,0.0,0.0,0.0,0.0,0.0,0.0,0.0,0.0,0.0,0.0,0.0,0.0,0.0,0.0,0.0,0.0,0.0,0.0,0.0,0.0,0.0,0.0,0.0,0.0,0.0,0.0,0.0,0.0,0.0,0.0,0.0,0.0,0.0,0.0,0.0,0.0,0.0,0.0,0.0,0.0,0.0,0.0,0.0,0.0,0.0,0.0,0.0,0.0,0.0,0.0,0.0,0.0,0.0,0.0,0.0,0.0,0.0,0.0,0.0,0.0,0.0,0.0,0.0,0.0,0.0,0.0,0.0,0.0,0.0,0.0,0.0,0.0,0.0,0.0,0.0,0.0,0.0,0.0,0.0,0.0,0.0,0.0,0.0,0.0,0.0,0.0,0.5272,0.5592,0.6241,0.6367,0.6404,0.6404,0.6392,0.6196,0.5738,0.5323,0.0,0.0,0.0,0.0,0.0,0.0,0.0,0.0,0.0,0.0,0.0,0.0,0.0,0.0,0.0,0.0,0.0,0.0,0.0,0.0,0.0,0.0,0.0,0.0,0.0,0.0,0.0,0.0,0.0,0.0,0.0,0.0,0.0,0.0,0.0,0.0,0.0,0.0,0.0,0.0,0.0,0.0,0.0,0.0,0.0,0.0,0.0,0.0,0.0,0.0,0.0,0.0,0.0,0.0,0.0,0.0,0.0,0.0,0.0,0.0,0.0,0.0,0.0,0.0,0.0,0.0,0.0,0.0,0.0,0.0,0.0,0.0,0.0,0.0,0.0,0.0,0.0,0.0,0.0,0.0,0.0,0.0,0.0,0.0,0.0,0.0,0.0,0.0,0.0,0.0,0.0,0.0,0.0,0.0,0.0,0.0,0.0,0.0,0.0,0.0,0.0,0.0,0.5828,0.6053,0.6371,0.6404,0.6404,0.6404,0.6355,0.6146,0.5724,0.5262,0.0,0.0,0.0,0.0,0.0,0.0,0.0,0.0,0.0,0.0,0.0,0.0,0.0,0.0,0.0,0.0,0.0,0.0,0.0,0.0,0.0,0.0,0.0,0.0,0.0,0.0,0.0,0.0,0.0,0.0,0.0,0.0,0.0,0.0,0.0,0.0,0.0,0.0,0.0,0.0,0.0,0.0,0.0,0.0,0.0,0.0,0.0,0.0,0.0,0.0,0.0,0.0,0.0,0.0,0.0,0.0,0.0,0.0,0.0,0.0,0.0,0.0,0.0,0.0,0.0,0.0,0.0,0.0,0.0,0.0,0.0,0.0,0.0,0.0,0.0,0.0,0.0,0.0,0.0,0.0,0.0,0.0,0.0,0.0,0.0,0.0,0.0,0.0,0.0,0.0,0.0,0.0,0.0,0.0,0.0,0.0,0.0,0.0,0.0,0.0,0.0,0.0,0.5896,0.6367,0.6396,0.6404,0.6404,0.6404,0.6233,0.6005,0.5721,0.5095,0.0,0.0,0.0,0.0,0.0,0.0,0.0,0.0,0.0,0.0,0.0,0.0,0.0,0.0,0.0,0.0,0.0,0.0,0.0,0.0,0.0,0.0,0.0,0.0,0.0,0.0,0.0,0.0,0.0,0.0,0.0,0.0,0.0,0.0,0.0,0.0,0.0,0.0,0.0,0.0,0.0,0.0,0.0,0.0,0.0,0.0,0.0,0.0,0.0,0.0,0.0,0.0,0.0,0.0,0.0,0.0,0.0,0.0,0.0,0.0,0.0,0.0,0.0,0.0,0.0,0.0,0.0,0.0,0.0,0.0,0.0,0.0,0.0,0.0,0.0,0.0,0.0,0.0,0.0,0.0,0.0,0.0,0.0,0.0,0.0,0.0,0.0,0.0,0.0,0.0,0.0,0.0,0.0,0.0,0.0,0.0,0.0,0.0,0.0,0.0,0.0,0.0,0.6055,0.6486,0.0,0.6404,0.6404,0.6404,0.6326,0.6118,0.572,0.0,0.0,0.0,0.0,0.0,0.0,0.0,0.0,0.0,0.0,0.0,0.0,0.0,0.0,0.0,0.0,0.0,0.0,0.0,0.0,0.0,0.0,0.0,0.0,0.0,0.0,0.0,0.0,0.0,0.0,0.0,0.0,0.0,0.0,0.0,0.0,0.0,0.0,0.0,0.0,0.0,0.0,0.0,0.0,0.0,0.0,0.0,0.0,0.0,0.0,0.0,0.0,0.0,0.0,0.0,0.0,0.0,0.0,0.0,0.0,0.0,0.0,0.0,0.0,0.0,0.0,0.0,0.0,0.0,0.0,0.0,0.0,0.0,0.0,0.0,0.0,0.0,0.0,0.0,0.0,0.0,0.0,0.0,0.0,0.0,0.0,0.0,0.0,0.0,0.0,0.0,0.0,0.0,0.0,0.0,0.0,0.0,0.0,0.0,0.0,0.0,0.0,0.5618,0.6373,0.6804,0.0,0.6552,0.6552,0.6552,0.6509,0.6312,0.594,0.0,0.0,0.0,0.0,0.0,0.0,0.0,0.0,0.0,0.0,0.0,0.0,0.0,0.0,0.0,0.0,0.0,0.0,0.0,0.0,0.0,0.0,0.0,0.0,0.0,0.0,0.0,0.0,0.0,0.0,0.0,0.0,0.0,0.0,0.0,0.0,0.0,0.0,0.0,0.0,0.0,0.0,0.0,0.0,0.0,0.0,0.0,0.0,0.0,0.0,0.0,0.0,0.0,0.0,0.0,0.0,0.0,0.0,0.0,0.0,0.0,0.0,0.0,0.0,0.0,0.0,0.0,0.0,0.0,0.0,0.0,0.0,0.0,0.0,0.0,0.0,0.0,0.0,0.0,0.0,0.0,0.0,0.0,0.0,0.0,0.0,0.0,0.0,0.0,0.0,0.0,0.0,0.0,0.0,0.0,0.0,0.0,0.0,0.0,0.0,0.0,0.0,0.5977,0.6885,0.7347,0.6946,0.6913,0.6913,0.6913,0.673,0.6555,0.0,0.0,0.0,0.0,0.0,0.0,0.0,0.0,0.0,0.0,0.0,0.0,0.0,0.0,0.0,0.0,0.0,0.0,0.0,0.0,0.0,0.0,0.0,0.0,0.0,0.0,0.0,0.0,0.0,0.0,0.0,0.0,0.0,0.0,0.0,0.0,0.0,0.0,0.0,0.0,0.0,0.0,0.0,0.0,0.0,0.0,0.0,0.0,0.0,0.0,0.0,0.0,0.0,0.0,0.0,0.0,0.0,0.0,0.0,0.0,0.0,0.0,0.0,0.0,0.0,0.0,0.0,0.0,0.0,0.0,0.0,0.0,0.0,0.0,0.0,0.0,0.0,0.0,0.0,0.0,0.0,0.0,0.0,0.0,0.0,0.0,0.0,0.0,0.0,0.0,0.0,0.0,0.0,0.0,0.0,0.0,0.0,0.0,0.0,0.0,0.0,0.0,0.0,0.6247,0.7204,0.7722,0.7363,0.733,0.733,0.733,0.7267,0.6913,0.6169,0.0,0.0,0.0,0.0,0.0,0.0,0.0,0.0,0.0,0.0,0.0,0.0,0.0,0.0,0.0,0.0,0.0,0.0,0.0,0.0,0.0,0.0,0.0,0.0,0.0,0.0,0.0,0.0,0.0,0.0,0.0,0.0,0.0,0.0,0.0,0.0,0.0,0.0,0.0,0.0,0.0,0.0,0.0,0.0,0.0,0.0,0.0,0.0,0.0,0.0,0.0,0.0,0.0,0.0,0.0,0.0,0.0,0.0,0.0,0.0,0.0,0.0,0.0,0.0,0.0,0.0,0.0,0.0,0.0,0.0,0.0,0.0,0.0,0.0,0.0,0.0,0.0,0.0,0.0,0.0,0.0,0.0,0.0,0.0,0.0,0.0,0.0,0.0,0.0,0.0,0.0,0.0,0.0,0.0,0.0,0.0,0.0,0.0,0.0,0.0,0.0,0.0,0.7308,0.8323,0.8758,0.8161,0.8096,0.7988,0.7722,0.7939,0.7752,0.6973,0.0,0.0,0.0,0.0,0.0,0.0,0.0,0.0,0.0,0.0,0.0,0.0,0.0,0.0,0.0,0.0,0.0,0.0,0.0,0.0,0.0,0.0,0.0,0.0,0.0,0.0,0.0,0.0,0.0,0.0,0.0,0.0,0.0,0.0,0.0,0.0,0.0,0.0,0.0,0.0,0.0,0.0,0.0,0.0,0.0,0.0,0.0,0.0,0.0,0.0,0.0,0.0,0.0,0.0,0.0,0.0,0.0,0.0,0.0,0.0,0.0,0.0,0.0,0.0,0.0,0.0,0.0,0.0,0.0,0.0,0.0,0.0,0.0,0.0,0.0,0.0,0.0,0.0,0.0,0.0,0.0,0.0,0.0,0.0,0.0,0.0,0.0,0.0,0.0,0.0,0.0,0.0,0.0,0.0,0.0,0.0,0.0,0.0,0.0,0.0,0.0,0.0,0.858,0.9681,1.0025,0.9058,0.901,0.8775,0.8101,0.8603,0.8747,0.8262,0.0,0.0,0.0,0.0,0.0,0.0,0.0,0.0,0.0,0.0,0.0,0.0,0.0,0.0,0.0,0.0,0.0,0.0,0.0,0.0,0.0,0.0,0.0,0.0,0.0,0.0,0.0,0.0,0.0,0.0,0.0,0.0,0.0,0.0,0.0,0.0,0.0,0.0,0.0,0.0,0.0,0.0,0.0,0.0,0.0,0.0,0.0,0.0,0.0,0.0,0.0,0.0,0.0,0.0,0.0,0.0,0.0,0.0,0.0,0.0,0.7033,0.0,0.0,0.0,0.0,0.0,0.0,0.0,0.0,0.0,0.0,0.0,0.0,0.0,0.0,0.0,0.0,0.0,0.0,0.0,0.0,0.0,0.0,0.0,0.0,0.0,0.0,0.0,0.0,0.0,0.0,0.0,0.0,0.0,0.0,0.0,0.0,0.0,0.0,0.0,0.0,0.0,0.7489,0.8821,0.9422,0.8684,0.9075,0.9123,0.8447,0.8528,0.8348,0.7713,0.0,0.0,0.0,0.0,0.0,0.0,0.0,0.0,0.0,0.0,0.0,0.0,0.0,0.0,0.0,0.0,0.0,0.0,0.0,0.0,0.0,0.0,0.0,0.0,0.0,0.0,0.0,0.0,0.0,0.0,0.0,0.0,0.0,0.0,0.0,0.0,0.0,0.0,0.0,0.0,0.0,0.0,0.0,0.0,0.0,0.0,0.0,0.0,0.0,0.0,0.0,0.0,0.0,0.0,0.0,0.0,0.0,0.0,0.0,0.0,0.0,0.7675,0.0,0.0,0.0,0.0,0.0,0.0,0.0,0.0,0.0,0.0,0.0,0.0,0.0,0.0,0.0,0.0,0.0,0.0,0.0,0.0,0.0,0.0,0.0,0.0,0.0,0.0,0.0,0.0,0.0,0.0,0.0,0.0,0.0,0.0,0.0,0.0,0.0,0.0,0.0,0.0,0.8996,1.0334,1.0903,1.0031,1.0431,1.0409,0.953,0.9763,0.9584,0.8755,0.8172,0.0,0.0,0.0,0.0,0.0,0.0,0.0,0.0,0.0,0.0,0.0,0.0,0.0,0.0,0.0,0.0,0.0,0.0,0.0,0.0,0.0,0.0,0.0,0.0,0.0,0.0,0.0,0.0,0.0,0.0,0.0,0.0,0.0,0.0,0.0,0.0,0.0,0.0,0.0,0.0,0.0,0.0,0.0,0.0,0.0,0.0,0.0,0.0,0.0,0.0,0.0,0.0,0.0,0.9406,0.951,0.9592,0.948,0.9431,0.943,0.9033,0.8856,0.8801,0.0,0.0,0.0,0.0,0.0,0.0,0.0,0.0,0.0,0.0,0.0,0.0,0.0,0.0,0.0,0.0,0.0,0.0,0.0,0.0,0.0,0.0,0.0,0.0,0.0,1.0606,1.0756,0.0,0.0,0.0,0.0,0.0,0.0,0.0,0.0,0.0,0.0,0.0,0.0,1.0827,1.2086,1.2534,1.1545,1.1879,1.1752,1.0685,1.1115,1.1051,1.0133,0.9547,0.8785,0.0,0.0,0.0,0.0,0.0,0.0,0.0,0.0,0.0,0.0,0.0,0.0,0.0,0.0,0.0,0.0,0.0,0.0,0.0,0.0,0.0,0.0,0.0,0.0,0.0,0.0,0.0,0.0,0.0,0.0,0.0,0.0,0.6289,0.6738,0.0,0.0,0.0,0.0,0.0,0.0,0.0,0.0,0.0,0.0,0.0,0.0,0.0,0.0,0.8672,0.9169,0.9517,0.9731,1.025,1.0447,1.0348,1.0337,1.0509,1.0824,1.0771,0.0,0.9682,0.9199,0.0,0.0,0.0,0.0,0.0,0.0,0.0,0.0,0.0,0.0,0.0,0.0,0.0,0.0,0.0,0.0,0.0,0.0,0.0,0.0,0.0,0.0,1.1211,1.0911,1.1374,1.1735,0.0,1.0115,0.9211,0.9132,0.0,0.0,0.0,0.0,0.0,0.0,0.0,0.0,1.0087,1.1364,1.195,1.1225,1.1976,1.2116,1.1099,1.1095,1.0943,1.0465,0.9975,0.9311,0.842,0.757,0.0,0.0,0.0,0.0,0.0,0.0,0.0,0.0,0.0,0.0,0.0,0.0,0.0,0.0,0.0,0.0,0.0,0.0,0.0,0.0,0.0,0.0,0.0,0.0,0.0,0.0,0.0,0.0,0.0,0.6989,0.7303,0.7808,0.7939,0.7991,0.0,0.0,0.0,0.0,0.0,0.0,0.0,0.0,0.0,0.9267,0.9338,0.9487,0.9706,1.0245,1.0577,1.0714,1.1226,1.1461,1.1402,1.1402,1.1501,1.1661,1.1661,1.1453,1.1089,1.0481,1.0341,1.0427,0.0,0.0,0.0,0.0,0.0,0.9325,0.9678,0.9552,0.0,0.0,0.0,0.0,0.0,0.0,0.0,0.0,0.0,0.0,0.0,0.0,0.0,1.1842,1.2122,1.2297,1.2152,1.1782,1.1252,0.0,1.0102,0.9717,0.907,0.0,0.0,0.0,0.0,0.0,1.139,1.2329,1.2837,1.2533,1.3075,1.3187,1.2563,1.2327,1.1995,1.1434,1.0898,1.0078,0.8936,0.8331,0.7399,0.0,0.0,0.0,0.0,0.0,0.0,0.0,0.0,0.0,0.0,0.0,0.0,0.0,0.0,0.0,0.0,0.0,0.0,0.0,0.0,0.0,0.0,0.0,0.0,0.0,0.0,0.0,0.0,0.78,0.8215,0.8651,0.8872,0.8951,0.0,0.0,0.0,0.0,0.0,0.0,0.9304,0.9776,1.0151,1.0355,1.0444,1.0622,1.0858,1.1256,1.148,1.1531,1.188,1.2051,1.2051,1.2073,1.2068,1.2078,1.2143,1.22,1.2168,1.1495,1.1197,1.1143,1.0539,1.053,1.0835,1.0647,1.0447,1.0345,1.0948,1.0777,1.0224,0.9722,0.0,0.9053,0.8511,0.0,0.0,0.0,0.0,1.0434,1.0987,1.1304,1.1636,1.2192,1.2383,1.2455,1.2455,1.2718,1.2662,0.0,1.1613,1.1414,1.0264,0.0,0.0,0.0,0.0,1.2034,1.2766,1.3362,1.3736,1.3736,1.4037,1.4083,1.3768,1.341,1.2977,1.2385,1.185,1.0953,0.9584,0.9149,0.8303,0.6961,0.0,0.0,0.0,0.0,0.0,0.0,0.0,0.0,0.0,0.0,0.0,0.0,0.0,0.0,0.0,0.0,0.0,0.0,0.0,0.0,0.0,0.0,0.0,0.0,0.0,0.0,0.0,0.0,0.0,0.8677,0.9485,0.0,0.0,0.0,0.0,0.9465,0.9929,1.0048,0.9609,1.0147,1.0649,1.1033,1.1063,1.1312,1.1818,1.1866,1.1866,1.1888,1.1906,1.1915,1.1911,1.1977,1.2013,1.2017,1.2279,1.2462,1.2525,1.1772,1.1703,1.2,1.1581,1.1592,1.1814,1.1678,1.1588,1.154,1.1768,1.1662,1.14,1.1389,1.0682,0.9842,0.9803,1.0089,0.0,0.0,1.0897,1.143,1.1469,1.1493,1.1509,1.1549,1.1797,1.2028,1.2028,1.2344,1.2598,0.0,1.2527,1.2392,1.1941,0.0,1.1676,1.2359,1.2503,1.2789,1.3458,1.3854,1.4068,1.4068,1.4367,1.4431,1.4099,1.3767,1.3425,1.3076,1.2727,1.1896,1.0494,1.0229,0.9304,0.7589,0.6829,0.0,0.0,0.0,0.0,0.0,0.0,0.0,0.0,0.0,0.0,0.0,0.0,0.0,0.0,0.0,0.0,0.0,0.0,0.0,0.0,0.0,0.0,0.0,0.0,0.0,0.0,0.0,0.0,1.0053,1.0403,0.0,0.0,1.0199,1.0254,1.0028,1.0348,1.0513,1.0438,1.0965,1.1347,1.1477,1.16,1.1777,1.196,1.2219,1.2356,1.2356,1.2436,1.248,1.2476,1.2497,1.2505,1.2514,1.2627,1.2679,1.2708,1.2453,1.2417,1.2538,1.239,1.2443,1.2608,1.2555,1.2485,1.2427,1.2274,1.2182,1.2108,1.1892,1.1423,1.0931,1.0931,1.1032,1.1135,1.1135,1.1318,1.1557,1.1773,1.1814,1.1884,1.2152,1.2304,1.2384,1.2384,1.2662,1.2869,1.2638,1.259,1.2479,1.2068,1.2297,1.2551,1.259,1.2965,1.341,1.3862,1.4029,1.4179,1.4391,1.4526,1.455,1.4431,1.3918,1.3553,1.3426,1.2909,1.2158,1.1179,1.0662,0.9834,0.8645,0.7657,0.6652,0.0,0.0,0.0,0.0,0.0,0.0,0.0,0.0,0.0,0.0,0.0,0.0,0.0,0.0,0.0,0.0,0.0,0.0,0.0,0.0,0.0,0.0,0.0,0.0,0.0,0.0,1.0268,1.0885,1.1009,1.0994,1.0912,1.082,1.0845,1.1032,1.1002,1.1094,1.1388,1.1656,1.1961,1.2304,1.2448,1.2529,1.2569,1.2833,1.2863,1.2665,1.2968,1.3095,1.3118,1.3474,1.364,1.3645,1.351,1.3438,1.3433,1.323,1.3144,1.3104,1.2895,1.2844,1.2927,1.2927,1.2956,1.2986,1.2831,1.2802,1.2777,1.2454,1.2029,1.1678,1.1678,1.1762,1.1867,1.1867,1.2026,1.2265,1.248,1.2544,1.2607,1.2861,1.2941,1.2941,1.2941,1.3108,1.3171,1.2822,1.2773,1.2639,1.2266,1.2615,1.2893,1.2789,1.3235,1.3728,1.4069,1.4202,1.4344,1.4581,1.4605,1.4605,1.4605,1.3989,1.3601,1.3601,1.2973,1.2166,1.1195,1.0742,1.0011,0.898,0.8016,0.7095,0.6205,0.0,0.0,0.0,0.0,0.0,0.0,0.0,0.0,0.0,0.0,0.0,0.0,0.0,0.0,0.0,0.0,0.0,0.0,0.0,0.0,0.0,0.0,0.0,0.9622,1.0266,1.0812,1.1101,1.1256,1.1458,1.1733,1.1523,1.1692,1.2471,1.1942,1.1839,1.2414,1.2211,1.252,1.3494,1.3553,1.3616,1.3724,1.3747,1.3473,1.2894,1.3473,1.3757,1.3766,1.4833,1.5319,1.5284,1.4902,1.4732,1.4691,1.4106,1.386,1.3766,1.3097,1.2838,1.2852,1.2852,1.3002,1.3267,1.3474,1.354,1.346,1.3168,1.2617,1.2088,1.2088,1.236,1.2653,1.2653,1.3124,1.3618,1.3601,1.3601,1.3601,1.3601,1.3601,1.3601,1.3601,1.3601,1.3506,1.3187,1.3124,1.3004,1.2654,1.2606,1.2726,1.3052,1.3386,0.0,1.4036,1.4377,1.4573,1.4573,1.4573,1.4573,1.4573,1.3958,1.3569,1.3569,1.2941,1.195,1.0582,1.0503,0.9853,0.8506,0.7879,0.7372,0.6982,0.0,0.0,0.0,0.0,0.0,0.0,0.0,0.0,0.0,0.0,0.0,0.0,0.0,0.0,0.0,0.0,0.0,0.0,0.0,0.0,0.0,0.0,1.0954,1.0724,1.0948,1.129,1.1695,1.1998,1.2407,1.3023,1.309,1.3195,1.342,1.3362,1.3426,1.3699,1.3732,1.3816,1.4005,1.4706,1.4879,1.4427,1.4957,1.5029,1.4625,1.5029,1.4987,1.4587,1.5328,1.5658,1.5654,1.5549,1.5497,1.5478,1.5318,1.4987,1.4536,1.3909,1.3764,1.3899,1.3899,1.3844,1.3859,1.4471,1.4349,1.4013,1.4456,1.4308,1.3962,1.3962,1.4027,1.4068,1.3818,1.3884,1.3966,1.3684,1.3601,1.3601,1.3601,1.3601,1.3601,1.3601,1.3601,1.3569,1.3482,1.3466,1.3275,1.2694,1.2805,1.2996,1.3092,1.3386,0.0,1.3736,1.3815,1.387,1.387,1.387,1.387,1.387,1.3259,1.2869,0.0,1.2208,1.1637,1.1244,1.0374,0.9313,0.801,0.73,0.684,0.0,0.0,0.0,0.0,0.0,0.0,0.0,0.0,0.0,0.0,0.0,0.0,0.0,0.0,0.0,0.0,0.0,0.0,0.0,0.0,0.0,0.0,1.1417,1.1754,1.1923,1.1855,1.2037,1.2682,1.2928,1.3404,1.4311,1.4258,1.4284,1.4565,1.4453,1.4533,1.4894,1.4988,1.516,1.545,1.6136,1.6304,1.5918,1.6343,1.628,1.5717,1.6167,1.6222,1.5924,1.6581,1.6966,0.0,1.6501,1.6263,1.6248,1.5988,1.5505,0.0,0.0,0.0,0.0,0.0,1.4482,1.4446,1.4928,1.4834,1.4599,1.5126,1.5066,1.4788,1.4878,1.4926,1.4873,1.4505,1.4512,1.4534,1.4115,1.4029,1.4029,1.4029,1.4029,1.4029,1.4029,1.4029,1.3982,1.3831,0.0,0.0,1.3116,1.3179,1.3315,1.3315,1.3584,1.3807,0.0,1.3934,1.3974,1.3823,1.3807,1.3743,1.3609,1.3108,0.0,0.0,0.0,1.1524,1.1092,0.9891,0.0,0.0,0.0,0.7291,0.0,0.0,0.0,0.0,0.597,0.5661,0.0,0.0,0.0,0.0,0.0,0.0,0.0,0.0,0.0,0.0,0.0,0.0,0.0,0.0,0.0,0.0,1.2082,1.226,1.3138,1.2973,1.3053,1.381,1.3981,1.447,1.5557,1.5287,1.5277,1.5879,1.5509,1.5519,1.611,0.0,0.0,0.0,0.0,1.7743,1.7649,1.7715,1.7368,1.6616,1.7197,1.7469,1.7482,1.821,1.8669,1.8864,1.7667,1.7151,1.7104,1.656,1.593,1.5319,1.5213,1.4865,1.4433,1.478,1.4919,0.0,0.0,0.0,0.0,1.5492,1.5379,1.5157,1.5346,1.5428,1.5394,1.4992,1.5088,1.5222,1.4776,1.4677,1.4659,1.4605,1.4605,1.4605,1.4605,1.4605,1.451,1.421,1.4155,1.4052,1.3751,1.3649,1.3601,1.3601,1.3854,1.4036,1.4036,1.4288,1.4367,1.4085,0.0,0.0,1.3625,1.3259,1.2917,1.2614,1.2186,1.1523,1.0558,0.9435,0.8771,0.8625,0.8389,0.8231,0.8154,0.8328,0.8037,0.726,0.6394,0.6098,0.0,0.0,0.0,0.0,0.0,0.0,0.0,0.0,0.0,0.0,0.0,0.0,0.0,0.0,0.0,1.3071,1.3382,1.3698,1.4083,1.4355,1.4498,1.4449,1.507,1.581,1.6619,1.6953,1.7161,1.7305,1.7418,1.7544,1.7673,1.7779,0.0,1.7537,1.8405,1.8606,1.8006,1.8484,1.8668,1.8569,0.0,0.0,1.8441,1.9077,1.9263,1.9048,1.8786,1.8669,1.868,1.8559,1.8263,1.77,1.5836,1.5047,1.4952,1.5022,1.5049,1.5125,1.5651,1.5825,1.5913,1.645,1.6567,1.6516,1.655,1.657,0.0,1.6105,1.6035,1.5938,1.5258,1.508,1.5008,1.4677,1.4605,1.4605,1.4605,1.4605,1.4581,1.4518,1.4502,1.4478,1.4415,1.3966,1.3601,1.3601,1.3657,1.3704,1.3704,1.3743,1.3776,1.3696,1.3704,1.3673,1.3601,1.3036,1.267,1.2598,1.197,1.1325,1.0687,1.0422,0.9804,0.8774,0.8711,0.8421,0.788,0.7914,0.7873,0.7757,0.7355,0.6827,0.0,0.0,0.0,0.0,0.0,0.0,0.0,0.0,0.0,0.0,0.0,1.3164,1.3535,0.0,1.3647,1.4088,1.418,1.4417,1.5059,1.5575,1.5857,1.5731,1.6193,1.6852,1.7639,1.7909,1.8075,1.8156,1.8278,1.8348,1.8348,1.8535,1.8548,1.8309,1.895,1.9255,1.9146,1.9453,1.9677,1.9859,1.9852,1.9689,1.9408,1.9545,1.9599,1.958,1.9213,1.9108,1.9171,1.8813,1.8823,1.8942,1.7294,1.645,1.6117,1.5807,1.5706,1.5733,1.6047,1.6152,1.6232,1.6731,1.6901,1.6955,1.7261,1.727,1.7153,1.6954,1.6828,1.6646,1.6208,1.5933,1.5704,1.5509,1.5306,1.5091,1.4951,1.4893,1.4837,1.4637,1.4605,1.4605,1.4605,1.4329,1.4091,1.4091,1.4091,1.4091,1.4091,1.4091,1.4045,1.3862,1.3846,1.3775,1.3609,1.314,1.2781,1.2606,1.2074,1.1549,1.1121,1.0516,0.9905,0.9261,0.876,0.8337,0.8006,0.8233,0.8272,0.8159,0.822,0.7796,0.0,0.0,0.0,0.0,0.0,0.0,0.0,0.0,1.275,1.3464,1.4081,1.4489,1.4461,1.4547,1.4744,1.5153,1.502,1.5149,1.6025,1.6575,1.6924,1.7031,1.7282,1.7694,1.834,1.8449,1.853,1.8639,1.8654,1.8714,1.8768,1.9009,1.9164,1.9219,1.9474,1.9814,2.0226,2.0281,2.0454,2.0718,2.0498,2.0401,2.041,2.0057,2.0044,2.0221,1.96,1.9425,1.9534,1.8999,1.9214,1.981,1.9015,1.8385,1.7808,1.708,1.6808,1.6799,1.6731,1.6705,1.6741,1.6945,1.7015,1.7105,1.7601,1.7625,1.7512,1.7551,1.7438,1.7278,1.7138,1.6817,1.6487,1.6334,1.6049,1.5717,1.537,1.5295,1.5189,1.4877,1.4803,1.4803,1.4803,1.4803,1.4764,1.4629,1.4605,1.4605,1.4605,1.4605,1.4494,1.4226,1.4195,1.4052,1.3736,1.3441,1.3156,1.2813,1.2488,1.2194,1.1923,1.0975,1.0322,1.0038,0.9235,0.8679,0.8388,0.877,0.8851,0.8641,0.9015,0.8717,1.2044,1.1065,0.0,1.184,1.2115,1.2633,0.0,0.0,1.4313,1.4941,1.4767,1.4742,1.5554,1.5511,1.5577,1.6219,1.6391,1.6588,1.7004,1.7111,1.7343,1.7884,1.8131,1.83,1.8394,1.861,1.8758,1.8784,1.8893,1.9084,1.9373,1.9598,1.9797,1.9967,2.0249,2.0344,2.0298,2.0573,2.0897,2.1224,2.1358,2.1455,2.1506,2.1161,2.0942,2.0807,2.0593,2.0513,2.0562,2.0709,2.0841,2.0896,2.0627,2.0463,2.0252,1.9059,1.862,1.8564,1.8262,1.8174,1.8073,1.7591,1.744,1.744,1.7503,1.7521,1.754,1.7709,1.7747,1.7691,1.7486,1.7411,1.7186,1.6468,1.6258,1.6117,1.5722,1.5645,1.5629,1.5589,1.5581,1.5581,1.5581,1.5581,1.5348,1.47,1.4605,1.4605,1.4605,1.4605,1.4589,1.455,1.455,1.4399,1.406,1.4021,1.3846,1.3506,1.345,1.341,1.337,1.3248,1.2542,1.1246,1.1094,1.04,0.909,0.9144,0.9266,0.9472,0.9694,0.9268,1.2915,0.0,0.0,0.0,1.2964,1.3471,1.4603,1.4621,1.4577,1.5174,1.5372,1.5555,1.5997,1.6138,1.6415,0.0,1.7118,1.7252,1.7672,1.7829,1.795,1.8084,1.8286,1.8435,1.8504,1.8691,1.8903,1.92,1.9253,1.9452,1.983,1.9923,2.0015,2.0097,2.0213,2.0396,2.0644,2.0792,2.1114,2.1653,2.1534,2.1594,2.1811,2.1478,2.121,2.1031,2.1285,2.1291,2.1123,2.1407,2.1579,2.1652,2.1466,2.1455,2.1328,1.9473,1.8787,1.8698,1.8082,1.7877,1.7857,1.773,1.7675,1.7719,1.7958,1.7902,1.7863,1.8215,1.8312,1.8331,1.8352,1.8283,1.8108,1.7785,1.7395,1.7052,1.6804,1.6433,1.6142,1.6059,1.5865,1.5693,1.5693,1.5693,1.5597,1.5292,1.5245,1.5173,1.4964,1.4959,1.4861,1.4629,1.4605,1.4542,1.4399,1.4383,1.425,1.391,1.3894,1.3799,1.3609,1.3226,1.2732,1.2117,1.1719,1.0984,0.9899,1.0212,1.0173,0.9834,1.0165,1.0087,1.3689,0.0,0.0,1.3447,1.3738,1.4117,1.4552,1.4624,1.4728,1.5152,1.5579,1.594,1.615,1.6489,1.6922,1.75,1.7634,1.7774,1.8057,1.8261,1.8327,1.8125,1.8286,1.8449,1.8545,1.8692,1.8986,1.9458,1.9505,1.9717,2.0214,2.0235,2.029,2.0401,2.0401,2.0587,2.0976,2.1068,2.136,2.1843,2.1694,2.1745,2.1979,2.1824,2.1656,2.1488,2.1937,2.1979,2.1773,2.1953,2.2111,2.2227,2.2156,2.2253,2.2201,2.0335,1.9707,1.9683,1.8948,1.8685,1.8628,1.8324,1.8207,1.8212,1.8275,1.8152,1.81,1.8491,1.8612,1.8652,1.8871,1.8851,1.8752,1.8632,1.8302,1.7914,1.7689,1.7174,1.6715,1.6621,1.6252,1.5987,1.5987,1.5987,1.5987,1.5987,1.5987,1.5809,1.5399,1.5335,1.5239,1.494,1.4909,1.4909,1.4909,1.4909,1.4798,1.4561,1.4458,1.4291,1.4054,1.3481,1.2984,1.2613,1.2114,1.1407,1.0457,1.0848,1.0737,1.0162,1.0541,1.0709,0.0,0.0,1.3322,1.4229,1.4466,1.4618,1.515,1.5176,1.5074,1.5108,1.5222,1.5486,1.6009,1.6484,1.6969,1.7518,1.8031,1.8313,1.8125,1.8261,1.8327,1.8125,1.8286,1.8394,0.0,1.8637,1.8986,1.9458,1.9505,1.9828,2.0552,2.0568,2.0765,2.1148,2.1171,2.1171,2.1183,2.1506,2.1686,2.1714,2.2027,2.217,2.2209,2.2524,2.2545,2.2374,2.2584,2.2667,2.2662,2.261,2.2579,2.2616,2.2856,2.3087,2.3161,2.2309,2.2199,2.24,2.1861,2.1668,2.1391,1.9777,1.9244,1.9105,1.8273,1.802,1.806,1.8322,1.8402,1.8462,1.8652,1.8851,1.8882,1.8503,1.8543,1.8531,1.8083,1.7659,1.7375,1.7359,1.6992,1.6665,1.6665,1.6665,1.6665,1.6665,1.6665,1.6432,1.5772,1.5685,1.5677,1.5661,1.5661,1.5661,1.5661,1.5661,1.5661,1.5653,1.5351,1.5168,1.5152,1.4764,1.3935,1.2622,1.2578,1.1911,1.058,1.0616,1.0607,1.0587,1.0864,1.0993,1.3616,0.0,1.4237,1.4546,1.4833,1.5081,1.5266,1.5199,1.5153,1.5334,1.5788,1.6273,1.6629,1.7034,1.7468,1.7859,1.8052,1.813,1.8093,1.8435,1.853,1.815,1.8286,0.0,0.0,0.0,0.0,1.9722,1.9853,2.0226,2.0957,2.0999,2.1064,2.1206,2.1289,2.1336,2.1336,2.1576,2.1745,2.1843,2.217,2.2522,2.2873,2.3118,2.324,2.3266,2.3292,2.3178,2.2962,2.2892,2.2864,2.2893,2.3113,2.3242,2.3279,2.3157,2.3169,2.3077,2.1778,2.0894,2.0353,2.0469,1.9561,1.8514,1.8935,1.8565,1.802,1.8121,1.8423,1.8745,1.8807,1.9185,1.9505,1.9359,1.9267,1.9225,1.9204,1.8638,1.8173,1.8309,1.7834,1.7421,1.7421,1.7421,1.735,1.7127,1.669,1.6301,1.6063,1.5844,1.5693,1.5693,1.5693,1.5693,1.5693,1.5693,1.5693,1.5693,1.5589,1.5534,1.5534,1.5396,1.5115,1.4663,1.4663,1.3885,1.2327,1.2462,1.1957,1.0875,1.1273,1.1456,1.3838,1.4214,1.4664,1.4863,1.5101,1.5301,1.5301,1.5199,1.5153,1.5323,1.5892,1.642,1.664,1.6997,1.7393,1.7848,1.8052,1.82,1.8359,1.8731,1.8854,1.8499,1.8566,0.0,0.0,0.0,0.0,1.9931,2.005,2.0439,2.1227,2.1269,2.1301,2.1375,2.1459,2.1506,2.1506,2.1675,2.1953,2.2301,2.2718,2.311,2.3486,2.3741,2.3944,2.4083,2.4055,2.3902,2.3687,2.336,2.3205,2.3224,2.3279,2.3335,2.3427,2.3641,2.3808,2.3772,2.244,2.1564,2.1096,2.1439,2.0672,1.9667,2.0133,1.9804,1.9281,1.9394,1.9465,1.9505,1.9505,1.9658,1.9789,1.9789,1.9823,1.9878,2.0023,1.9504,1.9033,1.9162,1.8702,1.8305,1.8305,1.8162,1.7916,1.7549,1.7085,1.6675,1.6408,1.6198,1.6055,1.6055,1.6055,1.6055,1.6055,1.6055,1.6055,1.6055,1.5936,1.5884,1.5884,1.5764,1.5614,1.5428,1.5408,1.4774,1.3487,1.3381,1.2768,1.1726,1.1794,1.1845,1.4695,1.4806,1.4661,1.5173,1.5301,1.5301,1.5301,1.5199,1.5097,1.5108,1.5556,1.597,0.0,0.0,1.6868,1.7528,1.8067,1.8526,1.889,1.9172,1.9298,0.0,0.0,0.0,0.0,0.0,0.0,2.0103,0.0,2.0504,2.133,2.1388,2.149,2.1682,2.1682,2.171,2.1745,2.1902,2.2321,2.3027,2.3549,2.3872,2.4041,2.4341,2.4628,2.4825,2.4814,2.479,2.4718,2.3934,2.3611,2.3574,2.339,2.3468,2.3656,2.3858,2.4223,2.4529,2.3895,2.3634,2.3486,2.2754,2.2472,2.2282,2.1767,2.1531,2.152,2.1843,2.1307,2.0635,2.0635,2.0262,1.9894,1.9894,2.0204,2.0492,2.0513,2.0195,1.9919,1.994,1.9547,1.9217,1.9196,1.8817,1.8371,1.789,1.7816,1.7578,1.6853,1.6765,1.6757,1.6721,1.6721,1.6713,1.6689,1.6689,1.6689,1.6689,1.64,1.623,1.623,1.5931,1.5517,1.5036,1.5023,1.4707,1.4046,1.3417,1.3059,1.2933,1.2377,1.2116,1.4568,1.4829,1.5127,1.5266,1.5301,1.5301,1.5301,1.5199,1.5119,1.5221,1.5879,1.6374,0.0,0.0,0.0,1.8039,1.8317,0.0,1.9399,1.9732,0.0,0.0,0.0,1.9701,1.9701,1.9831,0.0,0.0,2.0465,2.0711,2.1219,2.1253,2.1316,2.1463,2.1624,2.1859,2.2218,2.2802,2.3194,2.3375,2.3651,2.3998,2.4377,2.4458,2.4752,2.5154,2.4898,2.47,2.4538,2.4025,2.3751,2.3611,2.3714,2.3902,2.4153,2.4352,2.4608,2.4867,2.4705,2.4147,2.362,2.4166,2.3324,2.2211,2.2815,2.1987,2.0855,2.0926,2.0968,2.0973,2.0973,2.1085,2.1225,2.1225,2.0762,2.0402,2.0602,2.0402,2.0269,2.0469,1.9947,1.9423,1.922,1.8943,1.8606,1.823,1.816,1.8009,1.7586,1.753,1.7413,1.7167,1.7156,1.7032,1.6733,1.6689,1.6689,1.6689,1.663,1.6575,1.6575,1.6495,1.6512,1.668,1.6687,1.6031,1.4674,1.4504,1.3695,1.232,1.232,1.2323,1.4718,1.5002,1.5289,1.5221,1.5267,1.5347,1.5522,1.551,1.5487,1.5626,1.6204,0.0,0.0,0.0,0.0,0.0,0.0,0.0,1.958,1.993,2.0103,0.0,2.0167,0.0,2.0211,2.0375,2.0603,0.0,2.073,2.0792,2.1266,2.1375,2.1559,2.1821,2.2031,2.2339,2.2751,2.3482,2.3844,2.3873,2.427,2.459,2.485,2.485,2.5023,2.5294,0.0,2.5099,2.4969,2.479,2.4554,2.433,2.4483,2.4525,2.4492,2.4695,2.4959,2.5227,2.5227,2.4931,2.4604,2.4888,2.4241,2.3455,2.4151,2.3616,2.2784,2.2901,2.2771,2.2594,2.2594,2.2245,2.1872,2.1872,2.1311,2.0821,2.0979,2.0888,2.0798,2.0826,2.0501,2.007,1.96,1.9379,1.9108,1.8603,1.8511,1.8454,1.8255,1.7984,1.7721,1.7538,1.7514,1.7435,1.7207,1.7191,1.7191,1.7191,1.7191,1.7191,1.7191,1.7191,1.7286,1.7514,1.7514,1.7076,1.6168,1.5889,1.4981,1.3504,1.3314,1.2995,1.4993,1.5187,1.5256,1.5119,1.5187,1.5371,1.5797,1.5842,1.5855,1.6032,0.0,1.6564,1.6172,1.6473,1.6967,1.7537,0.0,1.88,1.9764,2.0098,2.0354,2.0649,2.0676,2.0676,2.0676,2.1019,2.1269,2.1368,2.0966,2.0908,2.1381,2.1619,2.1948,2.2456,2.2697,2.2973,2.3258,2.401,2.4357,2.4322,2.4973,2.5276,2.5276,2.5276,2.5276,2.5312,0.0,0.0,2.5628,2.572,2.5572,2.5279,2.5328,2.5125,2.4836,2.4993,2.5276,2.5558,2.5558,2.5711,2.5816,2.5292,2.5113,2.5171,2.5455,2.5466,2.5411,2.565,2.5137,2.4477,2.4348,2.3367,2.2359,2.2104,2.1834,2.1571,2.1347,2.1325,2.1271,2.0997,2.093,2.069,1.9973,1.9837,1.9585,1.8897,1.8804,1.8804,1.8804,1.8287,1.792,1.7864,1.7864,1.7848,1.7793,1.7793,1.7793,1.7793,1.7793,1.7793,1.7793,1.7793,1.7816,1.7864,1.7864,1.7814,1.773,1.7154,1.6345,1.5348,1.4771,1.3956,1.5074,1.5119,1.5119,1.5108,1.5119,1.528,1.5785,1.5555,0.0,0.0,1.6004,1.6063,1.609,1.6388,0.0,1.8564,0.0,0.0,0.0,0.0,2.1022,0.0,0.0,0.0,0.0,0.0,0.0,0.0,0.0,0.0,2.1404,2.1705,2.2151,2.2787,2.3287,2.3554,2.3613,2.4337,2.4631,2.447,2.4915,2.5129,2.5129,2.5129,2.52,2.5312,0.0,0.0,2.5761,2.5605,2.5583,2.5578,2.5202,2.5188,2.5367,2.5407,2.5595,2.5838,2.5838,2.5872,2.5874,2.5782,2.5748,2.5738,2.5805,2.5293,2.4671,2.4734,2.4627,2.4317,2.3531,2.3704,2.3692,2.2129,2.2293,2.2448,2.1118,2.0938,2.1006,2.0781,2.0578,2.0269,1.9739,1.9479,1.9196,1.885,1.8804,1.8804,1.8804,1.8701,1.8511,1.824,1.8208,1.8111,1.7816,1.7793,1.7793,1.7793,1.7793,1.7793,1.7793,1.7793,1.7928,1.82,1.8208,1.793,1.7389,1.7279,1.6703,1.5701,1.5589,1.4997,1.5097,1.5097,1.5097,1.5097,1.5097,1.5234,1.5785,0.0,0.0,0.0,1.6007,1.5938,1.5719,0.0,0.0,0.0,0.0,0.0,0.0,0.0,0.0,0.0,0.0,0.0,0.0,0.0,0.0,0.0,0.0,0.0,2.1677,2.2311,2.2874,2.3305,2.3745,2.3958,2.3958,2.441,2.4592,2.449,2.4909,2.5105,2.5105,2.5164,2.5326,2.5571,2.5876,0.0,2.6377,2.6432,2.6355,2.6196,2.5901,2.5756,2.5722,2.5722,2.5782,2.5895,2.5895,2.5895,2.5895,2.5895,2.5895,2.5895,2.5895,2.5591,2.5242,2.5242,2.5242,2.5126,2.4669,2.4541,2.4274,2.3357,2.2855,2.2227,2.0961,2.0871,2.093,2.0736,2.0609,2.0382,2.0027,1.986,1.96,1.9104,1.9119,1.9119,1.885,1.8804,1.8741,1.8574,1.855,1.851,1.8335,1.8319,1.8319,1.8319,1.8319,1.8319,1.8319,1.8319,1.8398,1.855,1.855,1.8393,1.8087,1.8087,1.728,1.5798,1.5798,1.4973,1.5131,1.5097,1.5097,1.5097,1.5097,1.5234,1.5774,1.582,0.0,0.0,1.5962,1.5788,1.5487,0.0,0.0,0.0,0.0,0.0,0.0,0.0,0.0,0.0,0.0,0.0,0.0,0.0,0.0,0.0,0.0,0.0,2.2232,2.2972,2.3535,2.3809,2.4066,2.42,2.42,2.44,2.449,2.449,2.4856,2.5093,2.5189,2.5284,2.5546,2.5929,2.6322,0.0,0.0,2.7223,2.7168,2.6925,2.673,2.6394,2.6042,2.6042,2.5979,2.5895,2.5895,2.5895,2.5895,2.5895,2.5895,2.5895,2.5895,2.5895,2.5895,2.5895,2.5895,2.5853,2.5654,2.5041,2.4456,2.4252,2.2931,2.157,2.1096,2.0961,2.0893,2.0781,2.0758,2.0668,2.0428,2.0382,2.0178,1.9531,1.9623,1.9554,1.9027,1.8958,1.892,1.8804,1.8804,1.8804,1.8804,1.8804,1.8804,1.8804,1.8804,1.8804,1.8804,1.8804,1.8804,1.8804,1.8804,1.8804,1.8804,1.8804,1.8002,1.6436,1.6436,1.5404,1.5223,1.5097,1.5097,1.5097,1.5097,1.5246,1.5786,0.0,0.0,1.582,1.5533,1.5326,1.5763,1.5487,0.0,0.0,0.0,1.8082,0.0,0.0,0.0,0.0,0.0,0.0,0.0,0.0,0.0,0.0,0.0,0.0,0.0,2.3361,2.3631,2.4126,2.4184,2.42,2.42,2.44,2.449,2.449,2.4718,2.5043,2.546,2.5478,2.576,2.6292,0.0,0.0,0.0,2.7308,2.7479,2.775,2.7316,2.6857,2.6445,2.6445,2.6207,2.5895,2.5895,2.5895,2.5895,2.5895,2.5895,2.5895,2.5895,2.5895,2.5895,2.5895,2.5895,2.5696,2.485,2.4562,2.4295,2.3422,2.1806,2.0736,2.1748,2.1311,2.0781,2.093,2.0975,2.0907,2.0699,2.0654,2.0564,2.0246,2.0224,2.0056,1.96,1.9531,1.9348,1.885,1.8804,1.8804,1.8804,1.8804,1.8804,1.8804,1.8804,1.8804,1.8804,1.8804,1.8804,1.8804,1.8804,1.8804,1.8804,1.8804,1.8704,1.8519,1.8519,1.7582,1.5154,1.5097,1.5097,1.5097,1.5097,1.5165,1.5372,0.0,1.5154,1.5372,1.5257,1.5165,1.5383,1.5246,1.5555,1.6977,1.7085,0.0,0.0,0.0,0.0,0.0,0.0,0.0,0.0,0.0,0.0,0.0,0.0,0.0,0.0,2.3872,2.3982,2.4189,2.42,2.4255,2.4381,2.4454,2.4556,2.4682,2.4885,2.5163,2.5493,2.5634,2.6007,2.6551,0.0,0.0,0.0,2.75,2.7609,2.7841,2.738,2.6908,2.6507,2.6507,2.6249,2.5895,2.5895,2.5895,2.5895,2.5895,2.5895,2.5895,2.5895,2.5895,2.5895,2.5895,2.5895,2.5812,2.5443,2.5327,2.5105,2.4167,2.3379,2.268,2.2214,2.1895,2.1624,2.1307,2.1248,2.1226,2.1136,2.1114,2.0979,2.0609,2.0405,2.0124,1.966,1.9325,1.9027,1.8827,1.8804,1.8804,1.8804,1.8804,1.8804,1.8804,1.8804,1.8804,1.8804,1.8804,1.8804,1.8804,1.8804,1.8804,1.8804,1.905,1.884,1.8196,1.8456,1.7841,1.5142,1.5097,1.5097,1.5097,1.5223,1.5303,0.0,1.5223,1.528,1.5131,1.5097,1.5097,1.5097,1.5223,1.5613,1.6461,1.6636,1.6916,1.7662,0.0,0.0,0.0,0.0,0.0,0.0,0.0,0.0,0.0,0.0,0.0,0.0,2.42,2.42,2.42,2.42,2.4291,2.449,2.449,2.4634,2.4897,2.5034,2.5324,2.5735,2.5877,2.6272,2.686,0.0,0.0,0.0,2.7725,2.7817,2.7962,2.7574,2.7124,2.6693,2.6549,2.6249,2.5895,2.5895,2.5895,2.5895,2.5895,2.5895,2.5895,2.5895,2.5895,2.5895,2.5895,2.5895,2.5833,2.5549,2.5485,2.5242,2.4295,2.3865,2.34,2.2403,2.2072,2.1882,2.154,2.1482,2.1482,2.1482,2.1482,2.1392,2.1037,2.0835,2.0532,2.007,1.9554,1.9196,1.9058,1.8897,1.8804,1.8804,1.8804,1.8804,1.8804,1.8804,1.8804,1.8804,1.8804,1.8852,1.8986,1.8986,1.9034,1.9137,1.9415,1.9168,1.8416,1.8713,1.8303,1.5234,1.5097,1.5097,1.5097,1.5498,1.575,0.0,1.551,1.5739,1.5211,1.5097,1.5097,1.5097,1.5532,1.6049,1.6518,1.6711,1.7096,1.7976,0.0,0.0,0.0,0.0,0.0,0.0,0.0,0.0,0.0,0.0,0.0,0.0,2.42,2.42,2.42,2.42,2.4291,2.449,2.449,2.4706,2.5105,2.5105,2.5514,2.6294,2.6294,2.6617,0.0,0.0,0.0,0.0,2.8007,2.8187,2.8179,2.7962,2.7606,2.7144,2.6672,2.6249,2.5895,2.5895,2.5895,2.5895,2.5895,2.5895,2.5895,2.5895,2.5895,2.5895,2.5895,2.5895,2.5686,2.4754,2.452,2.4284,2.3335,2.2416,2.185,2.2306,2.1672,2.1154,2.1597,2.1696,2.1696,2.1696,2.1696,2.1696,2.1687,2.1696,2.153,2.1042,2.0578,2.0102,1.9637,1.9119,1.8804,1.8804,1.8804,1.8804,1.8804,1.8804,1.8804,1.8804,1.8804,1.8994,1.9383,1.9391,1.955,1.9877,1.9877,1.9884,1.9884,1.9884,1.9444,1.5177,1.536,1.5555,1.5188,1.5303,1.5418,1.5154,1.5303,1.5418,1.5154,1.5097,1.5097,1.5097,1.5234,1.5521,1.6037,1.6227,1.6507,0.0,0.0,0.0,0.0,0.0,0.0,0.0,0.0,0.0,0.0,0.0,0.0,0.0,2.42,2.42,2.42,2.4327,2.449,2.47,2.4849,2.5022,2.5235,2.5463,2.5833,2.6318,2.6496,0.0,0.0,0.0,0.0,0.0,2.7664,2.7837,2.8002,2.7921,2.7708,2.7348,2.6942,2.6592,2.627,2.6,2.5895,2.5895,2.5895,2.5895,2.5895,2.5895,2.5895,2.5895,2.5895,2.5895,2.5833,2.5528,2.5464,2.5221,2.4284,2.3833,2.3424,2.2683,2.2298,2.2071,2.2001,2.1962,2.1962,2.1962,2.1962,2.1962,2.1962,2.1859,2.164,2.1312,2.085,2.0456,2.01,1.9758,1.9344,1.8844,1.9058,1.9201,1.9201,1.9431,1.9558,1.9558,1.9558,1.9614,1.9733,1.9733,1.9781,1.9892,2.0131,2.0353,2.0591,2.0812,2.0798,1.4918,1.5279,1.5579,1.52,1.5349,1.551,1.5177,1.5314,1.5453,1.5165,1.497,1.489,1.5073,1.5097,1.5292,1.5879,1.6007,1.6308,0.0,0.0,0.0,0.0,0.0,0.0,0.0,0.0,0.0,0.0,0.0,0.0,0.0,0.0,2.42,2.42,2.4327,2.452,2.479,2.4921,2.5165,2.5499,2.5688,2.6019,2.6465,2.6624,0.0,0.0,0.0,0.0,0.0,2.7461,2.7615,2.7748,2.7667,2.7522,2.7339,2.683,2.653,2.6332,2.6021,2.5895,2.5895,2.5895,2.5895,2.5895,2.5895,2.5895,2.5895,2.5895,2.5895,2.5895,2.5895,2.5895,2.5792,2.5381,2.5026,2.4654,2.4234,2.3461,2.2857,2.2868,2.2532,2.2265,2.2265,2.2336,2.2408,2.2408,2.2304,2.2153,2.1995,2.1374,2.0893,2.0725,2.0233,1.9709,1.9256,1.9455,1.9582,1.9582,1.9773,1.9892,1.9892,1.9892,1.9948,2.0091,2.0091,2.0155,2.029,2.0615,2.0875,2.1105,2.1454,2.1621,0.0,1.4912,1.5278,1.5107,1.5568,1.5893,1.5245,1.5498,0.0,1.52,1.4729,1.4556,1.5062,1.5108,1.5291,1.602,1.5996,0.0,0.0,0.0,0.0,0.0,0.0,0.0,0.0,0.0,0.0,0.0,0.0,0.0,0.0,0.0,2.42,2.42,2.42,2.4381,2.4772,2.4807,2.5139,2.5782,2.5817,2.6125,2.6696,2.6711,0.0,0.0,0.0,0.0,0.0,2.7412,2.7482,2.7461,2.7267,2.7205,2.7124,2.6479,2.624,2.6188,2.5958,2.5895,2.5895,2.5895,2.5895,2.5895,2.5895,2.5895,2.5895,2.5895,2.5895,2.5906,2.5939,2.595,2.6049,2.6443,2.589,2.549,2.6384,2.4851,2.3472,2.3999,2.3214,2.2476,2.2536,2.2731,2.2888,2.2939,2.2948,2.2972,2.2939,2.2122,2.1538,2.1514,2.0621,2.0037,2.0037,1.9965,1.9932,1.9932,1.9948,1.9964,1.9964,1.9964,2.0115,2.0424,2.0456,2.0631,2.0939,2.1288,2.1436,2.1444,2.1838,2.2051,1.3533,0.0,1.5398,1.4855,1.518,1.5542,0.0,1.528,0.0,0.0,0.0,1.466,1.5556,1.513,1.5048,1.6269,1.6068,0.0,0.0,0.0,0.0,0.0,0.0,0.0,0.0,0.0,0.0,0.0,0.0,0.0,0.0,0.0,2.42,2.42,2.42,2.4327,2.4574,2.4885,2.5205,2.5579,2.5986,2.6351,2.6708,2.6964,0.0,0.0,0.0,0.0,2.721,2.724,2.726,2.726,2.7219,2.7208,2.7144,2.6674,2.6467,2.6373,2.6021,2.5895,2.5895,2.5895,2.5895,2.5895,2.5895,2.5895,2.5895,2.5895,2.5895,2.5983,2.6344,2.6442,2.6379,2.6129,2.5912,2.569,2.5497,2.4416,2.359,2.4016,2.3034,2.2271,2.2781,2.2686,2.2695,2.3209,2.3451,2.3524,2.3303,2.3038,2.2782,2.2559,2.1795,2.1268,2.1268,2.0666,2.0265,2.0265,2.0527,2.0645,2.0645,2.0645,2.071,2.0772,2.1034,2.119,2.1278,2.1671,2.1865,2.1873,2.2223,2.239,1.2849,1.4188,1.5465,1.5093,1.5445,1.581,1.5614,0.0,0.0,0.0,0.0,1.4717,1.5705,1.528,0.0,1.6564,1.6604,0.0,0.0,0.0,0.0,0.0,0.0,0.0,0.0,0.0,0.0,0.0,0.0,0.0,0.0,0.0,2.42,2.42,2.42,2.4291,2.449,2.4814,2.5227,2.5737,2.612,2.6531,2.6927,2.7113,0.0,0.0,0.0,0.0,2.721,2.721,2.721,2.721,2.721,2.7199,2.7167,2.685,2.6766,2.6755,2.6229,2.599,2.5895,2.5895,2.5895,2.5895,2.5895,2.5895,2.5895,2.5895,2.6059,2.6278,2.654,2.6769,2.69,2.6875,2.6846,2.6746,2.6336,2.5327,2.4464,2.4322,2.3399,2.276,2.3111,2.3203,2.3363,2.3719,2.3895,2.3929,2.378,2.3488,2.3154,2.2753,2.2257,2.1852,2.1595,2.1312,2.0998,2.0655,2.0788,2.097,2.1129,2.1137,2.1208,2.1393,2.1584,2.1679,2.1687,2.2064,2.2231,2.2239,2.2569,2.2728,1.2595,1.4041,1.5467,1.5291,1.5785,1.6232,1.6033,0.0,0.0,0.0,0.0,0.0,0.0,0.0,0.0,0.0,0.0,0.0,0.0,0.0,0.0,0.0,0.0,0.0,0.0,0.0,0.0,0.0,0.0,0.0,0.0,0.0,0.0,2.42,2.42,2.4273,2.4454,2.4682,2.5178,2.5958,2.6203,2.6624,2.721,2.721,2.721,0.0,0.0,0.0,2.721,2.721,2.721,2.721,2.721,2.719,2.7117,2.6953,2.7003,2.7062,2.6447,2.6084,2.5895,2.5895,2.5895,2.5917,2.5994,2.6016,2.6026,2.6092,2.6344,2.6638,2.678,2.7108,2.7522,2.8013,2.8009,2.7831,2.7599,2.645,2.5266,2.4615,2.3822,2.3285,2.3438,2.3775,2.4079,2.4168,2.4207,2.4219,2.4219,2.3781,2.328,2.2782,2.2542,2.2212,2.166,2.1844,2.173,2.1115,2.1084,2.1193,2.1486,2.1502,2.1663,2.1976,2.204,2.2091,2.2072,2.2422,2.2569,2.2577,2.2934,2.3065,1.3461,1.4617,1.5279,1.4365,1.5233,1.615,1.5556,0.0,0.0,0.0,0.0,0.0,0.0,0.0,0.0,0.0,0.0,0.0,0.0,0.0,0.0,0.0,0.0,0.0,0.0,0.0,0.0,0.0,0.0,0.0,0.0,0.0,0.0,2.4218,2.42,2.4218,2.4255,2.461,2.5123,2.5754,2.6115,2.6624,2.721,2.721,2.721,0.0,0.0,2.721,2.721,2.721,2.721,2.721,2.721,2.7108,2.6933,2.6912,2.6912,2.6901,2.656,2.6218,2.5895,2.5895,2.5895,2.5983,2.6366,2.6496,2.6584,2.6966,2.6846,2.6791,2.7576,2.7827,2.8024,2.8551,2.7987,2.7296,2.7274,2.5741,2.4384,2.4492,2.3457,2.2818,2.3592,2.3524,2.3547,2.4097,2.4245,2.4285,2.4285,2.4308,2.4175,2.3817,2.3361,2.2945,2.2616,2.2229,2.1937,2.1833,2.1825,2.1849,2.1905,2.1905,2.1929,2.2011,2.2279,2.241,2.241,2.276,2.2906,2.2914,2.3271,2.3409,1.2859,1.4007,1.4896,1.4447,1.5795,1.7143,1.6834,0.0,0.0,0.0,0.0,0.0,0.0,0.0,0.0,0.0,0.0,0.0,0.0,0.0,0.0,0.0,0.0,0.0,0.0,0.0,0.0,0.0,0.0,0.0,0.0,0.0,0.0,0.0,2.42,2.42,2.42,2.4739,2.525,2.5696,2.6115,2.6624,2.721,2.721,2.721,2.721,0.0,2.721,2.721,2.721,2.721,2.721,2.721,2.7149,2.7076,2.7353,2.7199,2.6912,2.6889,2.6456,2.5895,2.5895,2.5895,2.5994,2.6464,2.6606,2.6758,2.7479,2.7533,2.7468,2.7882,2.821,2.8484,2.8749,2.8432,2.7754,2.6641,2.5644,2.4703,2.3868,2.327,2.313,2.3755,2.3826,2.3919,2.4306,2.4394,2.4398,2.4398,2.4445,2.4325,2.3885,2.3631,2.3284,2.2904,2.2665,2.2398,2.2008,2.2167,2.2271,2.2271,2.2426,2.2529,2.2529,2.2688,2.2776,2.2776,2.3105,2.3271,2.3279,2.3657,2.3816,1.2686,1.3668,1.4678,1.5009,1.6362,1.7632,1.7776,0.0,0.0,0.0,0.0,0.0,0.0,0.0,0.0,0.0,0.0,0.0,0.0,0.0,0.0,0.0,0.0,0.0,0.0,0.0,0.0,0.0,0.0,0.0,0.0,0.0,0.0,0.0,2.42,2.42,2.42,2.4788,2.531,2.5716,2.6166,2.6682,2.721,2.721,2.721,2.721,2.721,2.721,2.721,2.721,2.721,2.721,2.721,2.7231,2.7301,2.7606,2.7383,2.6912,2.7001,2.6539,2.5895,2.5895,2.5983,2.6157,2.6627,2.6846,2.7086,2.7948,2.8188,2.8188,2.8188,2.8484,2.8803,2.8803,2.8606,2.8,2.6402,2.5872,2.527,2.377,2.3656,2.3856,2.4003,2.4203,2.4378,2.449,2.4509,2.4509,2.4509,2.4545,2.4411,2.4002,2.3962,2.3722,2.3181,2.3191,2.2923,2.2271,2.2485,2.2609,2.2609,2.295,2.3113,2.3113,2.322,2.326,2.326,2.353,2.3636,2.3644,2.4044,2.4203,1.4208,1.4569,1.4875,1.6006,1.635,0.0,1.7133,1.713,0.0,0.0,0.0,0.0,0.0,0.0,0.0,0.0,0.0,0.0,0.0,0.0,0.0,0.0,0.0,0.0,0.0,0.0,0.0,0.0,0.0,0.0,0.0,0.0,0.0,0.0,0.0,2.42,2.42,2.4627,2.5121,2.5696,2.6371,2.686,2.721,2.721,2.721,2.721,2.721,2.721,2.721,2.721,2.721,2.721,2.721,2.7322,2.7461,2.7307,2.7094,2.6871,2.6642,2.6249,2.5895,2.5895,2.618,2.6638,2.7097,2.7555,2.8024,2.8583,2.8749,2.8749,2.8749,2.8771,2.8803,2.8803,2.8047,2.7261,2.7118,2.6368,2.5552,2.5054,2.4962,2.4863,2.4524,2.4464,2.4499,2.4499,2.4553,2.4592,2.4592,2.4704,2.4754,2.4729,2.4718,2.4467,2.388,2.382,2.3588,2.2971,2.2966,2.2946,2.2946,2.3287,2.3449,2.3449,2.3816,2.4034,2.4034,2.4058,2.4074,2.4082,2.441,2.4569,1.3556,1.4139,1.4838,1.5788,1.6443,0.0,0.0,1.7916,0.0,0.0,0.0,0.0,0.0,0.0,0.0,0.0,0.0,0.0,0.0,0.0,0.0,0.0,0.0,0.0,0.0,0.0,0.0,0.0,0.0,0.0,0.0,0.0,0.0,0.0,0.0,2.42,2.42,2.4755,2.5277,2.5716,2.6217,2.6701,2.721,2.721,2.721,2.721,2.721,2.721,2.721,2.721,2.721,2.721,2.721,2.7423,2.7748,2.7667,2.7586,2.7476,2.7062,2.6631,2.6228,2.5979,2.6213,2.6693,2.7151,2.7631,2.8122,2.8638,2.8803,2.8803,2.8803,2.8803,2.8803,2.8803,2.8479,2.8098,2.773,2.6779,2.5919,2.5612,2.4951,2.4506,2.4535,2.4552,2.4586,2.4668,2.4723,2.4782,2.4957,2.5032,2.5128,2.5348,2.5174,2.4909,2.4557,2.4526,2.437,2.4025,2.3545,2.3319,2.3319,2.3673,2.3856,2.3856,2.4012,2.4114,2.4114,2.4299,2.441,2.4418,2.4746,2.4913,1.3304,1.3922,1.4747,0.0,0.0,0.0,1.7705,1.8392,0.0,0.0,0.0,0.0,0.0,0.0,0.0,0.0,0.0,0.0,0.0,0.0,0.0,0.0,0.0,0.0,0.0,0.0,0.0,0.0,0.0,0.0,0.0,0.0,0.0,0.0,0.0,2.42,2.42,2.4717,2.5226,2.5696,2.6039,2.6546,2.721,2.721,2.721,2.721,2.721,2.721,2.721,2.721,2.721,2.721,2.726,2.7525,2.7893,2.78,2.782,2.782,2.7196,2.6775,2.6447,2.6196,2.6431,2.6911,2.738,2.7861,2.8331,2.8705,2.8803,2.8803,2.8803,2.8803,2.8803,2.8803,2.8924,2.8804,2.8039,2.7373,2.6716,2.5956,2.5177,2.465,2.4649,2.4664,2.4723,2.4908,2.4923,2.5026,2.5312,2.5367,2.5503,2.5865,2.5745,2.556,2.5249,2.5131,2.4932,2.4634,2.4119,2.3787,2.3684,2.4068,2.4251,2.4251,2.4362,2.4418,2.4418,2.4657,2.4746,2.4754,2.4992,2.5111,1.3799,1.4137,1.4659,0.0,0.0,0.0,0.0,0.0,0.0,0.0,0.0,0.0,0.0,0.0,0.0,0.0,0.0,0.0,0.0,0.0,0.0,0.0,0.0,0.0,0.0,0.0,0.0,0.0,0.0,0.0,0.0,0.0,0.0,0.0,0.0,0.0,2.42,2.44,2.489,2.5696,2.5908,2.6432,2.721,2.721,2.721,2.721,2.721,2.721,2.721,2.721,2.721,2.7231,2.7421,2.7655,2.7861,2.7615,2.7676,2.778,2.6828,2.6507,2.6534,2.6592,2.6911,2.738,2.7849,2.8375,2.8803,2.8803,2.8803,2.8803,2.8803,2.8803,2.8814,2.8814,2.9152,2.9191,2.806,2.8167,2.7955,2.6157,2.5789,2.5577,2.491,2.4793,2.4896,2.5174,2.5193,2.534,2.566,2.5715,2.5847,2.6255,2.6526,2.648,2.5937,2.5615,2.5177,2.4659,2.4605,2.4458,2.4129,2.4426,2.4617,2.4617,2.4928,2.5111,2.5111,2.5111,2.5111,2.5111,2.5111,2.5111,1.3828,1.4285,0.0,0.0,0.0,0.0,0.0,0.0,0.0,0.0,0.0,0.0,0.0,0.0,0.0,0.0,0.0,0.0,0.0,0.0,0.0,0.0,0.0,0.0,0.0,0.0,0.0,0.0,0.0,0.0,0.0,0.0,0.0,0.0,2.42,2.42,2.42,2.44,2.489,2.5696,2.5908,2.6432,2.721,2.721,2.721,2.721,2.721,2.721,2.721,2.7351,2.7412,2.7421,2.7482,2.7745,2.8079,2.7869,2.801,2.8191,2.7287,2.7001,2.6957,2.6698,2.6911,2.738,2.7849,2.8375,2.8803,2.8803,2.8803,2.8803,2.8803,2.9032,2.9294,2.9294,2.9403,2.9364,2.8876,2.8253,2.7493,2.6476,2.5656,2.5034,2.4823,2.497,2.5119,2.5193,2.5395,2.5702,2.6078,2.6291,2.6462,2.6636,2.6729,2.6717,2.6608,2.6349,2.6016,2.5677,2.5444,2.5036,2.4466,2.4762,2.4952,2.4952,2.5056,2.5111,2.5111,2.5111,2.5111,2.5111,2.5111,2.5111,1.3988,1.4622,0.0,0.0,0.0,0.0,0.0,0.0,0.0,0.0,0.0,0.0,0.0,0.0,0.0,0.0,0.0,0.0,0.0,0.0,0.0,0.0,0.0,0.0,0.0,0.0,0.0,0.0,0.0,0.0,0.0,0.0,0.0,0.0,2.4436,2.44,2.4327,2.4436,2.489,2.5696,2.5812,2.6342,2.721,2.721,2.721,2.721,2.721,2.724,2.733,2.7441,2.7563,2.7655,2.7655,2.7878,2.8199,2.805,2.8211,2.8391,2.749,2.7246,2.727,2.6972,2.713,2.7568,2.8146,2.8551,2.8803,2.8803,2.8803,2.8803,2.8803,2.9141,2.9512,2.9512,2.9773,2.9894,2.9317,2.8435,2.7646,2.7247,2.5889,2.4987,2.5578,2.5395,2.5276,2.5505,2.5867,2.6199,2.6459,2.6636,2.6788,2.6833,2.6848,2.6889,2.6956,2.6713,2.6477,2.6311,2.5847,2.5422,2.5014,2.5053,2.5111,2.5111,2.5111,2.5111,2.5111,2.5111,2.5111,2.5111,2.5111,2.5111,1.413,0.0,0.0,0.0,0.0,0.0,0.0,0.0,0.0,0.0,0.0,0.0,0.0,0.0,0.0,0.0,0.0,0.0,0.0,0.0,0.0,0.0,0.0,0.0,0.0,0.0,0.0,0.0,0.0,0.0,0.0,0.0,0.0,0.0,2.479,2.47,2.4538,2.4538,2.4916,0.0,2.5712,2.624,2.7162,2.7188,2.721,2.721,2.721,2.7322,2.7502,2.7522,2.7696,2.7921,2.7921,2.805,2.8239,2.8219,2.8331,2.8379,2.751,2.7348,2.748,2.7368,2.7503,2.7833,2.8588,2.8803,2.8803,2.8803,2.8803,2.8803,2.8803,2.9141,2.9523,2.9556,3.0267,3.0597,2.9495,2.879,2.8276,2.8089,2.6364,2.5357,2.6636,2.5944,2.5459,2.6062,2.6478,2.6725,2.6812,2.6807,2.6841,2.6913,2.6927,2.6986,2.7077,2.6792,2.6601,2.6601,2.6031,2.5672,2.561,2.5265,2.5111,2.5111,2.5111,2.5111,2.5111,2.5111,2.5111,2.5111,2.5111,2.5111,1.3776,1.449,0.0,0.0,0.0,0.0,0.0,0.0,0.0,0.0,0.0,0.0,0.0,0.0,0.0,0.0,0.0,0.0,0.0,0.0,0.0,0.0,0.0,0.0,0.0,0.0,0.0,0.0,0.0,0.0,0.0,0.0,0.0,2.479,2.479,2.4772,2.4736,2.4736,2.5004,0.0,2.5807,2.6252,2.6822,2.7076,2.721,2.721,2.721,2.7322,2.7522,2.7728,2.795,2.8139,2.8139,2.8259,2.8431,2.8259,2.8331,2.8411,2.7684,2.745,2.7501,2.7586,2.7646,2.7833,2.8588,2.8803,2.8803,2.8803,2.8803,2.8803,2.8803,2.9141,2.9576,2.9969,3.0493,3.0684,2.9927,2.9641,2.9019,2.7213,2.6472,2.6017,2.5661,2.5587,2.5813,2.6477,2.665,2.6739,2.6863,2.6892,2.6931,2.703,2.7073,2.7069,2.7094,2.6792,2.6601,2.6601,2.6457,2.6153,2.561,2.5265,2.5111,2.5111,2.5111,2.5111,2.5111,2.5111,2.5111,2.5111,2.5111,2.5111,1.3982,0.0,0.0,0.0,0.0,0.0,0.0,0.0,0.0,0.0,0.0,0.0,0.0,0.0,0.0,0.0,0.0,0.0,0.0,0.0,0.0,0.0,0.0,0.0,0.0,0.0,0.0,0.0,0.0,0.0,0.0,2.52,2.5147,2.5034,2.5034,2.4998,2.4939,2.4939,2.5133,2.5523,2.5938,2.6465,2.7099,2.7154,2.721,2.721,2.721,2.7383,2.7708,2.7841,2.8082,2.8319,2.8239,2.8319,2.8471,2.8279,2.8331,2.8411,2.7725,2.7664,2.7815,2.7729,2.7856,2.812,2.8631,2.8803,2.8803,2.8803,2.8803,2.8803,2.8803,2.9316,2.9893,3.0155,3.0559,3.0878,3.0756,2.9869,2.8886,2.8249,2.6816,2.578,2.6026,2.6032,2.6166,2.6705,2.6785,2.6833,2.6994,2.7004,2.703,2.7086,2.7103,2.7103,2.7103,2.6943,2.6874,2.7017,2.6904,2.6609,2.6092,2.5747,2.5441,2.5111,2.5111,2.5111,2.5111,2.5111,2.5111,2.5111,2.5111,2.5111,1.3871,0.0,0.0,0.0,0.0,0.0,0.0,0.0,0.0,0.0,0.0,0.0,0.0,0.0,0.0,0.0,0.0,0.0,0.0,0.0,0.0,0.0,0.0,0.0,0.0,0.0,0.0,0.0,0.0,0.0,2.5312,2.5312,2.5312,2.5312,2.5312,2.5241,2.5147,2.5129,2.5248,2.5474,2.6068,2.6741,2.7435,2.7316,2.7231,2.721,2.724,2.7496,2.7913,2.7941,2.8183,2.849,2.8319,2.8339,2.849,2.8319,2.8371,2.8431,2.7825,2.788,2.8172,2.7894,2.8066,2.8451,2.8707,2.8803,2.8803,2.8803,2.8803,2.8803,2.8803,2.9447,3.0111,3.0188,3.0559,3.1029,3.1495,2.9948,2.8701,2.9476,2.7089,2.5351,2.6573,2.656,2.6513,2.6859,2.6896,2.6955,2.7082,2.7103,2.7103,2.7103,2.7103,2.7103,2.7164,2.7164,2.7306,2.7581,2.7427,2.7133,2.6631,2.638,2.5892,2.5111,2.5111,2.5111,2.5111,2.5111,2.5111,2.5111,2.5111,2.5111,0.0,0.0,0.0,0.0,0.0,0.0,0.0,0.0,0.0,0.0,0.0,0.0,0.0,0.0,0.0,0.0,0.0,0.0,0.0,0.0,0.0,0.0,0.0,0.0,0.0,0.0,0.0,0.0,0.0,0.0,2.5312,2.5312,2.5312,2.5312,2.5312,2.5294,2.5276,2.5276,2.5295,2.5343,2.6152,2.6758,2.7164,2.7377,2.7351,2.721,2.7391,2.7615,2.7913,2.8091,2.8279,2.849,2.8471,2.8471,2.849,2.8471,2.8471,2.8451,2.8199,2.8146,2.8203,2.8229,2.8299,2.8451,2.8707,2.8803,2.8803,2.8803,2.8803,2.8803,2.8803,2.9185,2.9685,3.0111,3.0559,3.1029,3.1495,3.0582,2.9424,2.8595,2.6939,2.5715,2.594,2.6399,2.6776,2.6894,2.6896,2.6955,2.7082,2.7103,2.7103,2.7103,2.7103,2.7185,2.7431,2.7461,2.759,2.79,2.8178,2.7797,2.664,2.6783,2.6327,2.5111,2.5111,2.5111,2.5111,2.5111,2.5111,2.5111,2.5111,2.5111,1.2845,0.0,0.0,0.0,0.0,0.0,0.0,0.0,0.0,0.0,0.0,0.0,0.0,0.0,0.0,0.0,0.0,0.0,0.0,0.0,0.0,0.0,0.0,0.0,0.0,0.0,0.0,0.0,0.0,2.5312,2.5312,2.5312,2.5312,2.5312,2.5312,2.5312,2.5312,2.5312,2.5456,2.5757,2.6334,2.6837,2.7274,2.7582,2.7574,2.7371,2.7461,2.7655,2.7921,2.8119,2.8319,2.849,2.849,2.849,2.849,2.849,2.849,2.8471,2.8279,2.8292,2.8413,2.833,2.8455,2.8656,2.8761,2.8803,2.8803,2.8803,2.8803,2.8869,2.9119,2.9545,3.0013,3.0482,3.0952,3.1179,3.0732,2.9739,2.8462,2.6834,2.6119,2.5855,2.6101,2.642,2.6724,2.6965,2.7026,2.7026,2.7086,2.7103,2.7103,2.7103,2.7246,2.7379,2.7491,2.7672,2.7921,2.8268,2.8427,2.8007,2.6874,2.6935,2.6388,2.5111,2.5111,2.5111,2.5111,2.5111,2.5111,2.5111,2.5111,2.5111,0.0,0.0,0.0,0.0,0.0,0.0,0.0,0.0,0.0,0.0,0.0,0.0,0.0,0.0,0.0,0.0,0.0,0.0,0.0,0.0,0.0,0.0,0.0,0.0,0.0,0.0,0.0,0.0,0.0,2.5312,2.5312,2.5312,2.5312,2.5312,2.5312,2.5312,2.5312,2.5312,2.5504,2.5901,2.6288,2.6738,2.7274,2.7624,2.774,2.7684,2.7684,2.7797,2.8002,2.8191,2.8359,2.849,2.849,2.849,2.849,2.849,2.849,2.8471,2.8279,2.8383,2.8561,2.8366,2.8522,2.8803,2.8803,2.8803,2.8803,2.8803,2.8803,2.8913,2.9381,2.9849,3.033,3.0788,3.103,3.0877,2.9828,2.8711,2.752,2.618,2.5935,2.6189,2.6902,2.6812,2.6739,2.706,2.7103,2.7103,2.7103,2.7103,2.7133,2.7185,2.7379,2.7581,2.7732,2.799,2.8268,2.8606,2.8636,2.8148,2.7056,2.6995,2.6388,2.5111,2.5111,2.5111,2.5111,2.5111,2.5111,2.5111,2.5111,2.5159,0.0,0.0,0.0,0.0,0.0,0.0,0.0,0.0,0.0,0.0,0.0,0.0,0.0,0.0,0.0,0.0,0.0,0.0,0.0,0.0,0.0,0.0,0.0,0.0,0.0,0.0,0.0,0.0,0.0,2.5312,2.5312,2.5312,2.5312,2.5312,2.5312,2.5312,2.5312,2.5312,2.5306,2.536,2.5871,2.6412,2.6939,2.7262,2.7696,2.8159,2.8159,2.8179,2.8199,2.8411,2.849,2.849,2.849,2.849,2.849,2.849,2.849,2.8471,2.8279,2.8383,2.8561,2.8366,2.8522,2.8803,2.8803,2.8803,2.8803,2.8803,2.8803,2.8913,2.9381,2.9849,3.033,3.0788,3.0423,2.9775,2.8943,2.787,2.7255,2.7822,2.7078,2.6854,2.8418,2.778,2.7086,2.7103,2.7103,2.7103,2.7103,2.7103,2.7185,2.7461,2.7491,2.7771,2.8397,2.8457,2.8606,2.8955,2.8984,2.8379,2.7056,2.6995,2.6388,2.5111,2.5111,2.5111,2.5111,2.5111,2.5111,2.5111,2.5111,2.5255,0.0,0.0,0.0,0.0,0.0,0.0,0.0,0.0,0.0,0.0,0.0,0.0,0.0,0.0,0.0,0.0,0.0,0.0,0.0,0.0,0.0,0.0,0.0,0.0,0.0,0.0,0.0,0.0,0.0,0.0,2.4765,2.4789,2.4946,2.5282,2.5312,2.5312,2.5312,2.5312,2.5312,2.5312,2.5841,2.6376,2.691,2.738,2.7888,2.8379,2.8379,2.8319,2.8219,2.8431,2.849,2.849,2.849,2.849,2.849,2.849,2.849,2.8471,2.8279,2.8383,2.8561,2.8366,2.8522,2.8803,2.8803,2.8803,2.8803,2.8803,2.9033,2.9359,2.9827,3.0297,3.0766,3.1247,3.0042,2.9055,2.9864,2.8011,2.6317,2.6855,2.6802,2.684,2.7474,2.7307,2.7103,2.7103,2.7103,2.7103,2.7103,2.7246,2.7379,2.7491,2.79,2.8238,2.8496,2.8696,2.8865,2.8984,2.9014,2.8588,2.7689,2.7629,2.7228,2.6327,2.6327,2.5931,2.5111,2.5111,2.5111,2.5111,2.531,2.5485,0.0,0.0,0.0,0.0,0.0,0.0,0.0,0.0,0.0,0.0,0.0,0.0,0.0,0.0,0.0,0.0,0.0,0.0,0.0,0.0,0.0,0.0,0.0,0.0,0.0,0.0,0.0,0.0,0.0,0.0,2.4254,2.4266,2.4506,2.5023,2.5216,2.5312,2.5312,2.5312,2.5312,2.5294,2.5661,2.6099,2.6652,2.7193,2.7721,2.8238,2.8406,2.8431,2.8299,2.8451,2.849,2.849,2.849,2.849,2.849,2.849,2.849,2.8451,2.8191,2.8332,2.8561,2.829,2.8466,2.8803,2.8803,2.8803,2.8803,2.8803,2.913,2.9622,3.0089,3.0679,3.1138,3.1162,3.0026,2.9167,3.0156,2.8499,2.7174,2.8362,2.7939,2.7616,2.8396,2.7744,2.7103,2.7103,2.7103,2.7133,2.7215,2.7379,2.7581,2.7801,2.8238,2.8546,2.8666,2.8865,2.9014,2.9014,2.9014,2.8707,2.802,2.799,2.7689,2.7025,2.6995,2.6571,2.5747,2.5533,2.5505,2.5595,2.5587,2.5731,0.0,0.0,0.0,0.0,0.0,0.0,0.0,0.0,0.0,0.0,0.0,0.0,0.0,0.0,0.0,0.0,0.0,0.0,0.0,0.0,0.0,0.0,0.0,0.0,0.0,0.0,0.0,0.0,0.0,2.3758,2.3782,2.3794,2.4018,2.4489,2.4994,2.527,2.5312,2.5312,2.5312,2.5312,2.5312,2.5588,2.6117,2.6664,2.7186,2.7733,2.8262,2.849,2.849,2.849,2.849,2.849,2.849,2.849,2.849,2.849,2.849,2.8431,2.8042,2.8198,2.8518,2.8128,2.8365,2.8803,2.8803,2.8803,2.8803,2.8803,2.9141,2.962,3.0122,3.088,3.1351,3.0535,3.0317,3.0162,2.9692,2.9398,3.0,3.2538,3.0582,2.9164,3.1268,2.9128,2.7103,2.7103,2.7103,2.7185,2.7461,2.7521,2.7771,2.8427,2.8517,2.8636,2.8984,2.9014,2.9014,2.9014,2.9014,2.8716,2.805,2.802,2.7719,2.7086,2.7056,2.7056,2.7056,2.6441,2.6296,2.6589,2.5934,2.6033,1.2502,0.0,0.0,0.0,0.0,0.0,0.0,0.0,0.0,0.0,0.0,0.0,0.0,0.0,0.0,0.0,0.0,0.0,0.0,0.0,0.0,0.0,0.0,0.0,0.0,0.0,0.0,0.0,2.2562,2.2815,2.32,2.3601,2.4018,2.4489,2.4645,2.491,2.5312,2.5312,2.5312,2.5312,2.5312,2.5588,2.6117,2.6664,2.7186,2.7733,2.8262,2.849,2.849,2.849,2.849,2.849,2.849,2.849,2.849,2.849,2.8411,2.8239,2.7982,2.8103,2.8344,2.8084,2.8365,2.8803,2.8803,2.8803,2.8803,2.8803,2.9381,3.0199,3.0993,3.0799,3.0531,3.1109,3.0753,3.0551,3.1458,3.2024,3.2154,3.156,3.0119,2.9212,2.9917,2.8403,2.7103,2.7103,2.7103,2.7185,2.7461,2.7711,2.802,2.8457,2.8725,2.8895,2.8984,2.9014,2.9014,2.9014,2.9014,2.8925,2.8737,2.8707,2.8648,2.8439,2.8439,2.8439,2.8439,2.7328,2.6694,2.6605,2.6472,2.6628,0.0,0.0,0.0,0.0,0.0,0.0,1.6632,1.6777,0.0,0.0,0.0,0.0,0.0,0.0,0.0,0.0,0.0,0.0,0.0,0.0,0.0,0.0,0.0,0.0,0.0,0.0,0.0,2.2185,2.2197,2.2345,2.2646,2.3164,2.3585,2.3869,2.4285,2.4657,2.4958,2.5186,2.5312,2.5312,2.5312,2.5468,2.5793,2.6537,2.7066,2.7421,2.8166,2.849,2.849,2.849,2.849,2.849,2.849,2.849,2.849,2.849,2.8359,2.8179,2.7962,2.8094,2.8279,2.8062,2.8365,2.8803,2.8803,2.8803,2.8803,2.8803,2.948,3.0428,3.1353,3.112,3.08,3.1582,3.1494,3.1483,3.2454,3.2929,3.281,3.171,3.0627,2.9795,2.9457,2.8113,2.7103,2.7103,2.7103,2.7254,2.765,2.7891,2.817,2.8666,2.8865,2.9014,2.9014,2.9014,2.9014,2.9014,2.9014,2.9014,2.9014,2.9014,2.9014,2.9014,2.9014,2.9097,2.9262,2.819,2.7468,2.705,2.7287,2.7307,0.0,0.0,0.0,0.0,0.0,0.0,1.7315,1.69,1.6576,0.0,0.0,0.0,0.0,0.0,0.0,0.0,0.0,0.0,0.0,0.0,0.0,0.0,0.0,0.0,0.0,2.1894,2.1999,2.2154,2.2197,2.2197,2.2197,2.2658,2.2935,2.2995,2.3869,2.4393,2.4501,2.497,2.5234,2.5312,2.5312,2.5312,2.5318,2.6352,2.6837,2.6958,2.7974,2.843,2.849,2.849,2.849,2.849,2.849,2.849,2.849,2.8451,2.8331,2.8139,2.7889,2.802,2.8236,2.8062,2.8365,2.8803,2.8803,2.8803,2.8825,2.8935,2.9567,3.0428,3.1353,3.1593,3.1669,3.1899,3.2229,3.258,3.2804,3.2663,3.2464,3.2276,3.1419,3.0455,2.9545,2.8113,2.7103,2.7103,2.7103,2.7315,2.793,2.799,2.8259,2.8925,2.9014,2.9014,2.9014,2.9014,2.9014,2.9014,2.9014,2.9014,2.9014,2.9014,2.9014,2.9014,2.9051,2.9271,2.9675,2.8979,2.8348,2.7807,2.8056,2.784,0.0,0.0,0.0,0.0,0.0,0.0,1.5356,1.5346,1.5531,0.0,0.0,0.0,0.0,0.0,0.0,0.0,0.0,0.0,0.0,0.0,0.0,0.0,0.0,0.0,0.0,2.1894,2.2092,2.1972,2.2108,2.2197,2.2197,2.2309,2.255,2.2983,2.3188,2.3676,2.4489,2.4609,2.4874,2.5312,2.5312,2.5312,2.5318,2.5961,2.6484,2.6934,2.7589,2.8094,2.849,2.849,2.849,2.849,2.849,2.849,2.8451,2.8143,2.7982,2.7901,2.7482,2.7643,2.804,2.8008,2.8365,2.8803,2.8803,2.8803,2.8967,2.9707,3.0067,3.0428,3.1353,3.1593,3.1618,3.1669,3.2114,3.2519,3.258,3.2548,3.2131,3.0898,3.0126,2.9634,2.9425,2.8113,2.7103,2.7103,2.7103,2.7315,2.793,2.799,2.8259,2.8925,2.9014,2.9014,2.9014,2.9014,2.9014,2.9014,2.9014,2.9014,2.9014,2.9014,2.9014,2.9014,2.9326,2.9693,3.0075,2.9156,2.8612,2.8476,2.776,2.7334,0.0,0.0,0.0,1.6688,0.0,0.0,0.0,1.5382,1.502,0.0,0.0,0.0,0.0,0.0,0.0,0.0,0.0,0.0,0.0,0.0,0.0,0.0,0.0,0.0,0.0,2.1275,2.164,2.187,2.2092,2.2197,2.2197,2.2197,2.2321,2.2598,2.2863,2.3368,2.4133,2.4381,2.4765,2.5312,2.5312,2.5312,2.5324,2.5853,2.6388,2.6922,2.7469,2.7998,2.849,2.849,2.849,2.849,2.849,2.849,2.8451,2.8042,2.7913,2.782,2.736,2.7559,2.8008,2.8008,2.8365,2.8803,2.8803,2.8803,2.9011,2.9936,3.0185,3.0428,3.1353,3.1593,3.1593,3.1593,3.2063,3.2342,3.1772,3.1503,3.0963,2.9622,2.8767,2.8262,2.8262,2.7599,2.7103,2.7103,2.7103,2.7315,2.793,2.799,2.8259,2.8925,2.9014,2.9014,2.9014,2.9014,2.9014,2.9014,2.9014,2.9014,2.9014,2.9014,2.9106,2.9299,2.9681,3.0085,3.0497,2.948,2.9016,2.8984,2.8139,2.7533,0.0,0.0,0.0,0.0,0.0,1.6218,0.0,0.0,0.0,1.5767,0.0,0.0,0.0,0.0,0.0,0.0,0.0,0.0,0.0,0.0,0.0,0.0,0.0,0.0,0.0,2.0532,2.1079,2.175,2.1937,2.2089,2.2185,2.2197,2.2197,2.2197,2.2622,2.3151,2.3794,2.4181,2.4669,2.5312,2.5312,2.5312,2.5306,2.5745,2.6291,2.6922,2.7361,2.7914,2.849,2.849,2.849,2.849,2.849,2.8451,2.8331,2.7921,2.778,2.7687,2.7237,2.7496,2.8008,2.8008,2.8365,2.8803,2.8803,2.8803,2.9011,2.9936,3.0185,3.0428,3.1353,3.1593,3.1618,3.1669,3.2114,3.2204,3.112,3.0508,2.9862,2.8728,2.7725,2.7103,2.7103,2.7103,2.7103,2.7103,2.7133,2.7366,2.793,2.805,2.8319,2.8955,2.9014,2.9014,2.9014,2.9014,2.9014,2.9014,2.9014,2.9014,2.9014,2.9058,2.9271,2.9592,3.0057,3.047,3.0791,2.9801,2.9307,2.9275,2.8461,2.7766,0.0,0.0,0.0,0.0,1.6279,0.0,0.0,0.0,1.4832,1.416,0.0,0.0,0.0,0.0,0.0,0.0,0.0,0.0,0.0,0.0,0.0,0.0,0.0,0.0,0.0,0.0,2.0682,2.1407,2.1473,2.1692,2.2161,2.2197,2.2197,2.2197,2.2261,2.2778,2.3794,2.3849,2.4367,2.5312,2.5312,2.5312,2.5312,2.5354,2.5943,2.6898,2.6958,2.7565,2.849,2.849,2.849,2.849,2.849,2.8271,2.7901,2.7441,2.7287,2.7226,2.6818,2.7254,2.8008,2.8008,2.8365,2.8803,2.8803,2.8803,2.9011,2.9936,3.0185,3.0428,3.1353,3.1593,3.1655,3.1899,3.2229,3.2255,3.1341,3.0658,2.9862,2.8728,2.7725,2.7103,2.7103,2.7103,2.7103,2.7103,2.7297,2.759,2.796,2.8268,2.8576,2.8955,2.9014,2.9014,2.9014,2.9014,2.9014,2.9014,2.9014,2.9014,2.9014,2.9354,2.9556,2.9601,3.0363,3.0745,3.0791,2.9801,2.9307,2.9283,2.7932,2.7267,0.0,0.0,0.0,0.0,0.0,0.0,0.0,0.0,1.4173,0.0,0.0,0.0,0.0,0.0,0.0,0.0,0.0,0.0,0.0,0.0,0.0,0.0,0.0,0.0,0.0,0.0,0.0,0.0,0.0,2.1089,2.1704,2.174,2.1873,2.2185,2.2197,2.2593,2.3438,2.3682,2.4201,2.5006,2.5203,2.5312,2.5312,2.5312,2.5883,2.6898,2.6898,2.7517,2.849,2.849,2.849,2.8471,2.8231,2.8042,2.7841,2.738,2.7205,2.7144,2.6736,2.7211,2.8053,2.8365,2.8613,2.8803,2.8803,2.8803,2.9011,2.9936,3.0185,3.0428,3.1353,3.1721,3.1863,3.1964,3.1863,3.1457,3.048,2.9709,2.8897,2.78,2.7312,2.7103,2.7103,2.7103,2.7103,2.7103,2.7328,2.7612,2.796,2.8298,2.8636,2.8955,2.9014,2.9014,2.9014,2.9014,2.9014,2.9014,2.9014,2.9115,2.9344,2.9519,2.9822,3.0299,3.0616,3.0901,3.1162,2.9915,2.9307,2.9283,2.7865,2.72,1.5858,0.0,0.0,0.0,0.0,0.0,0.0,0.0,0.0,0.0,0.0,0.0,0.0,0.0,0.0,0.0,0.0,0.0,0.0,0.0,0.0,0.0,0.0,0.0,0.0,0.0,0.0,0.0,0.0,0.0,2.1104,2.117,2.15,2.2189,2.2197,2.2516,2.3195,2.3594,2.4142,2.4798,2.5129,2.5312,2.5312,2.5312,2.5883,2.6898,2.6898,2.7517,2.849,2.849,2.8431,2.8323,2.8002,2.7739,2.7484,2.7135,2.7021,2.6981,2.6695,2.7211,2.8076,2.8635,2.8803,2.8803,2.8803,2.8681,2.8763,2.9872,3.0076,3.0173,3.1309,3.1746,3.1913,3.2102,3.1607,3.0839,2.992,2.9079,2.818,2.7111,2.7017,2.7103,2.7103,2.7103,2.7133,2.7185,2.744,2.7771,2.808,2.8418,2.8725,2.8984,2.9014,2.9014,2.9014,2.9014,2.9014,2.9014,2.9014,2.9188,2.9583,2.9712,3.0106,3.0772,3.0901,3.1061,3.1249,3.0018,2.9406,2.9283,2.7865,2.72,0.0,0.0,0.0,1.3957,0.0,0.0,0.0,0.0,1.3818,0.0,0.0,0.0,0.0,0.0,0.0,0.0,0.0,0.0,0.0,0.0,0.0,0.0,0.0,0.0,0.0,0.0,0.0,0.0,0.0,0.0,2.0472,2.0603,2.11,2.2177,2.2197,2.2516,2.3195,2.3594,2.4142,2.4798,2.5129,2.5312,2.5312,2.5312,2.5883,2.6898,2.6898,2.7517,2.849,2.849,2.8271,2.7913,2.7913,2.733,2.6549,2.6528,2.656,2.6623,2.6603,2.7211,2.8076,2.8635,2.8803,2.8803,2.8803,2.8354,2.8147,2.974,2.9735,2.9602,3.1207,3.1604,3.1746,3.2342,3.1644,3.0668,3.0118,2.9199,2.818,2.7111,2.7017,2.7103,2.7103,2.7103,2.7185,2.7461,2.7771,2.8118,2.8427,2.8776,2.8984,2.9014,2.9014,2.9014,2.9014,2.9014,2.9014,2.9014,2.9014,2.9188,2.9583,2.9965,3.0369,3.0781,3.1199,3.124,3.0903,3.0148,2.9626,2.9283,2.7865,2.72,0.0,0.0,1.5696,1.4519,0.0,0.0,0.0,0.0,0.0,0.0,0.0,0.0,0.0,0.0,0.0,0.0,0.0,0.0,0.0,0.0,0.0,0.0,0.0,0.0,0.0,0.0,0.0,0.0,0.0,0.0,0.0,1.956,2.0062,2.1046,2.1459,2.2058,2.2871,2.349,2.3994,2.4413,2.5012,2.5312,2.5312,2.5312,2.5883,2.6898,2.6898,2.7363,2.8102,2.8102,2.7849,2.7412,2.7094,2.6787,2.6507,2.6507,2.6539,2.6693,2.7323,2.7728,2.8076,2.8635,2.8803,2.8676,2.7966,2.8306,2.8965,2.9141,2.9746,3.0518,3.1371,3.191,3.2063,3.1516,3.0774,2.9971,2.9186,2.8155,2.7315,2.7076,2.7069,2.7103,2.7103,2.7246,2.7409,2.7491,2.7801,2.811,2.8457,2.8776,2.9014,2.9014,2.9014,2.9014,2.9014,2.9014,2.9014,2.9014,2.9262,2.9592,2.9965,3.0369,3.0772,3.1199,3.112,3.1,3.0912,2.9929,2.9406,2.9275,2.8081,2.7517,1.4356,1.4954,0.0,1.4615,1.4803,0.0,1.376,0.0,0.0,0.0,0.0,0.0,0.0,0.0,0.0,0.0,0.0,0.0,0.0,1.2064,0.0,0.0,0.0,0.0,0.0,0.0,0.0,0.0,0.0,0.0,0.0,0.0,1.9413,2.1057,2.1407,2.19,2.2594,2.3562,2.3979,2.3857,2.4829,2.5312,2.5312,2.5182,2.5768,2.6879,2.6595,2.7014,2.7893,2.7728,2.736,2.6919,2.661,2.6404,2.629,2.629,2.6426,2.6717,2.7661,2.8008,2.8076,2.8635,2.8536,2.8196,2.8073,2.8287,2.8701,2.9299,2.9991,3.0722,3.1531,3.2026,3.2077,3.1172,3.0334,2.9558,2.8687,2.7619,2.6898,2.7073,2.7103,2.7133,2.7215,2.7379,2.7551,2.7642,2.7951,2.8298,2.8636,2.8865,2.9014,2.9014,2.9014,2.9014,2.9014,2.9014,2.9014,2.9014,2.9381,2.9794,3.0185,3.058,3.091,3.1199,3.0992,3.0775,3.0502,2.9826,2.9402,2.9232,2.8417,2.7991]}]]